GFSSGP_500_spd_000.txt.gz
Wind_Speed
21 20 18 15 11 7 10 18 25 24 18 16 22 16 16 13 13 13 15 15 12 10 7 8 7 8 6 5 6 8 9 8 8 9 10 9 7 8 8 8 10 11 13 14 16 18 21 22 22
23 22 19 16 10 8 15 23 28 23 24 25 20 16 14 14 14 14 15 14 12 10 8 8 7 8 7 5 4 6 7 8 7 9 10 10 8 8 9 9 11 12 13 14 17 19 21 23 26
25 22 19 15 10 11 20 26 24 25 27 19 19 16 16 16 17 19 15 13 12 11 8 9 7 7 7 6 6 7 9 9 8 9 11 12 12 11 10 11 12 13 13 15 16 18 21 21 22
25 24 19 16 14 17 23 25 22 21 31 21 21 16 19 18 20 18 16 14 12 13 9 9 9 8 7 7 7 10 11 12 12 12 11 10 13 12 13 13 14 13 12 13 15 19 21 21 21
23 23 19 15 16 19 23 17 22 18 24 22 21 19 21 19 17 15 14 13 13 13 10 11 10 9 9 8 7 9 13 14 14 14 13 10 11 12 15 16 16 13 13 12 16 18 19 20 19
21 21 20 16 17 19 25 28 23 20 23 25 23 23 22 20 17 13 13 12 12 13 12 11 11 11 11 11 9 8 12 14 14 14 11 10 12 14 16 18 15 14 14 13 15 16 18 18 17
23 21 20 18 19 23 26 29 20 23 24 25 25 25 21 20 19 15 12 11 12 13 14 12 13 14 14 11 11 10 10 12 14 13 12 13 13 15 17 16 16 16 15 15 15 15 15 16 17
25 23 20 20 21 29 29 29 27 25 29 30 26 23 18 19 18 16 13 11 12 13 14 15 14 16 15 13 13 11 10 11 14 14 15 15 16 17 17 17 18 19 18 18 19 16 17 18 19
26 24 21 22 24 30 30 34 30 23 27 23 23 21 18 15 14 15 14 12 14 14 14 16 15 16 17 17 14 14 14 15 17 18 19 19 21 22 20 20 21 22 22 21 23 23 21 22 23
25 25 22 24 24 28 31 34 28 19 20 23 23 20 18 15 15 17 13 14 15 15 15 16 17 16 17 17 17 17 18 18 20 22 23 24 26 27 26 25 25 25 26 27 26 27 28 28 27
24 26 24 25 26 26 32 29 24 19 22 25 26 20 20 18 19 16 15 15 16 17 15 17 17 18 18 18 18 19 20 21 23 25 25 27 28 29 30 29 28 30 30 31 31 32 32 32 32
25 28 26 26 27 26 31 26 25 22 21 26 19 17 19 21 21 20 17 16 17 19 18 17 17 18 19 20 20 20 21 23 25 27 28 30 31 32 33 35 37 38 36 35 36 37 37 35 35
24 27 28 27 26 25 30 27 22 20 18 21 16 16 19 21 23 22 21 20 19 20 21 18 17 18 19 21 22 24 25 26 27 30 33 35 36 38 39 40 42 42 39 39 40 41 41 40 38
23 28 29 26 28 25 30 28 25 22 26 22 19 21 23 25 26 26 25 24 23 22 23 20 18 18 20 23 25 27 28 29 33 37 37 39 41 43 44 45 44 41 40 42 41 42 43 43 43
26 26 30 26 29 25 30 26 28 27 24 22 23 23 28 29 29 30 29 25 26 24 23 22 20 19 22 25 27 28 30 34 36 36 35 35 35 37 39 40 39 41 42 42 42 42 45 46 47
27 26 29 29 27 26 27 27 28 28 25 25 28 32 30 28 30 31 28 26 25 22 20 20 22 24 26 30 32 34 34 33 34 35 35 35 36 36 37 38 40 41 42 41 43 44 45 48 50
30 25 29 29 27 24 24 29 27 27 26 24 28 29 31 28 27 25 24 21 18 20 22 23 26 29 32 35 35 33 32 31 31 31 32 33 34 35 36 37 38 40 41 42 45 47 49 49 51
24 29 30 29 26 25 24 24 26 25 21 22 22 23 23 21 20 20 19 18 19 21 26 28 31 34 35 34 31 28 25 24 26 28 30 32 33 35 37 38 40 43 45 46 48 49 51 53 54
34 30 31 27 27 27 28 27 27 28 21 22 20 21 22 19 17 17 18 19 22 26 30 33 33 33 31 28 27 25 26 25 27 29 31 32 33 35 36 36 37 39 40 42 42 44 46 47 51
35 33 27 27 26 26 28 28 25 24 21 20 18 18 18 18 17 18 21 24 27 31 34 34 32 28 26 24 25 26 27 29 30 32 34 35 37 39 41 43 44 46 47 49 50 51 52 53 55
36 33 29 27 25 26 31 26 22 21 21 16 16 18 17 17 18 20 24 29 33 35 36 34 29 27 26 27 26 27 28 31 34 37 40 42 44 46 49 50 52 54 55 55 56 57 58 60 59
33 30 31 29 26 29 30 25 22 22 18 15 17 19 18 19 21 25 29 32 34 34 31 28 28 29 29 30 31 34 36 38 39 41 44 46 48 49 51 52 54 56 58 59 60 62 62 63 64
27 29 31 29 25 28 28 24 21 20 18 17 19 21 22 23 25 28 30 30 28 26 26 26 28 30 32 34 36 38 39 40 41 43 45 47 50 52 54 56 58 61 63 65 67 68 70 71 72
29 30 31 29 27 30 29 26 18 19 20 20 23 24 25 27 29 27 24 23 24 25 27 29 29 30 32 34 36 38 40 42 45 47 50 53 55 57 60 61 62 64 66 67 69 70 70 70 72
31 33 34 32 31 29 30 29 22 22 22 23 26 28 28 27 25 24 24 24 24 26 27 27 29 32 33 36 39 41 44 47 49 51 53 54 55 56 57 59 61 63 64 65 66 67 67 68 69
30 33 32 29 29 30 30 30 24 23 24 26 28 28 26 24 24 22 22 23 23 25 29 31 33 36 38 40 43 45 48 49 50 52 55 57 59 61 63 65 67 69 70 72 73 73 74 75 75
33 31 30 28 29 28 29 28 25 23 25 25 23 22 22 24 22 22 23 25 27 30 33 34 36 39 41 43 44 45 48 52 55 58 61 62 63 65 67 69 71 72 74 75 76 77 78 79 79
30 28 27 26 27 27 27 23 19 19 20 20 20 20 22 23 24 26 27 29 32 34 36 37 39 40 41 45 49 51 55 58 59 60 61 65 69 73 75 77 79 81 82 83 84 83 83 84 85
28 26 24 24 23 20 19 16 15 16 18 20 20 22 23 25 26 28 30 33 35 38 39 39 40 44 50 53 56 59 61 63 65 66 69 73 76 78 81 83 85 87 88 88 89 88 88 88 86
26 25 24 21 17 15 13 14 18 20 23 24 23 22 22 23 27 30 33 34 34 37 40 44 49 52 55 59 62 64 66 68 70 74 78 81 83 86 90 92 94 93 92 90 88 88 87 87 86

GFSSGP_500_spd_003.txt.gz
Wind_Speed
23 21 19 16 14 9 12 21 27 28 21 21 18 13 17 15 11 10 13 14 16 14 12 11 10 9 10 10 10 11 12 11 10 8 9 9 10 9 11 12 12 12 13 14 14 16 17 18 19
24 23 20 17 13 11 16 22 25 29 23 21 17 20 16 18 11 11 14 13 13 13 12 12 11 10 11 10 10 9 11 12 12 10 9 10 13 12 12 14 14 15 15 13 13 13 16 19 21
25 25 22 18 13 13 17 21 23 27 25 25 22 17 17 17 13 13 14 12 12 13 12 13 12 11 10 11 10 9 11 11 13 11 11 12 16 15 14 15 16 16 16 12 13 15 19 20 21
25 24 23 19 15 18 18 21 26 26 27 26 21 20 20 18 16 12 11 12 13 13 12 13 13 12 11 10 10 11 13 13 14 14 14 14 15 15 16 17 18 17 15 14 14 16 19 19 20
26 21 23 20 18 21 19 24 21 23 21 24 20 17 19 20 17 12 9 11 13 13 12 14 14 12 12 12 10 9 13 15 16 16 16 16 16 15 15 16 18 18 15 15 14 15 16 15 16
27 22 21 20 21 23 24 20 17 22 20 22 24 20 20 21 18 13 10 11 14 13 13 14 14 14 13 13 13 12 11 14 16 18 18 17 15 15 16 17 18 17 16 17 16 16 15 14 15
28 26 21 20 24 25 24 21 20 24 24 22 23 22 23 23 17 15 13 12 13 13 12 14 14 14 15 15 15 15 13 13 15 18 18 17 16 17 18 17 17 17 19 20 19 19 18 16 16
29 29 21 20 25 24 22 21 22 27 25 21 22 23 25 20 17 15 13 12 13 13 13 14 15 15 17 18 18 18 16 15 14 17 17 18 18 19 19 19 19 20 21 23 24 24 23 23 21
26 27 23 22 25 24 23 22 23 33 18 21 23 23 25 18 15 12 13 11 11 13 13 15 15 16 18 20 20 21 19 19 18 20 20 21 23 24 25 25 25 25 24 26 27 29 29 30 29
27 26 25 24 24 24 23 22 24 25 14 17 23 24 25 16 13 12 13 11 12 15 15 15 16 17 18 21 21 22 23 22 21 23 24 26 27 28 29 30 31 29 28 29 30 32 33 36 36
29 24 27 25 25 24 23 23 22 23 19 19 22 24 23 19 14 16 15 13 13 15 16 17 17 19 19 20 22 22 23 23 24 26 27 29 30 31 32 32 34 33 32 36 37 39 38 40 41
28 26 27 28 26 25 22 22 22 20 25 22 20 21 25 23 17 18 16 16 14 16 16 17 16 20 20 20 21 23 23 24 26 28 29 31 32 35 36 38 39 40 42 44 45 45 43 43 43
30 28 27 30 26 24 23 22 24 21 24 22 19 19 23 22 18 19 19 18 18 19 18 18 19 19 20 20 21 23 25 27 29 31 33 34 36 39 42 43 44 45 46 47 48 45 44 44 44
31 30 27 26 27 24 23 22 25 20 28 21 20 16 17 19 21 22 22 21 23 23 23 23 19 18 19 21 22 24 26 29 32 34 37 40 44 44 43 42 43 44 46 46 45 45 45 46 47
29 29 26 21 29 24 24 21 25 29 23 21 19 18 19 22 24 27 28 26 24 23 24 22 19 20 20 22 24 26 28 32 36 40 42 44 44 43 41 39 39 41 42 43 45 46 47 48 48
30 29 26 25 26 25 24 19 28 29 27 24 22 21 23 25 27 31 32 30 27 21 22 19 20 21 22 25 28 31 34 38 41 41 41 40 40 38 37 36 37 39 40 41 43 44 46 48 49
34 28 24 27 24 27 25 23 24 27 25 25 23 25 25 25 28 30 31 30 24 18 19 20 22 26 28 31 33 35 37 35 33 32 33 33 33 33 33 34 36 37 38 39 40 41 43 44 45
30 23 28 26 25 26 23 21 19 21 20 17 16 20 25 25 24 28 30 24 18 17 19 22 25 29 33 35 36 36 34 31 29 29 30 31 31 32 32 32 33 35 36 38 40 42 44 46 48
29 30 28 27 24 23 23 21 19 15 16 18 19 26 25 21 24 20 20 19 19 20 22 25 30 33 36 37 37 34 31 30 30 29 29 30 31 33 34 36 38 40 42 44 46 48 50 51 53
32 30 27 27 26 24 23 23 23 21 22 20 25 25 20 20 19 18 19 21 22 24 27 30 33 34 35 34 32 30 29 28 29 31 33 34 35 38 39 41 43 45 47 49 51 54 55 56 58
32 28 27 25 24 23 23 23 22 22 20 19 21 22 21 20 20 21 21 23 26 29 32 33 33 33 29 27 26 26 28 29 31 33 34 36 39 40 43 45 47 49 52 54 57 59 61 63 65
34 28 28 30 25 23 24 23 21 20 20 21 19 20 19 20 18 21 24 27 31 33 33 33 30 27 25 25 27 29 30 31 33 35 38 40 43 46 49 52 54 56 58 59 60 61 62 63 64
21 27 30 30 29 28 23 24 19 20 21 22 20 20 20 21 20 24 29 31 33 34 31 26 25 26 27 28 30 31 33 35 37 40 43 46 48 50 52 53 53 54 56 58 60 62 64 67 68
29 29 33 31 32 30 21 24 18 17 22 22 21 21 23 25 23 28 32 33 33 29 27 26 27 29 30 32 33 35 38 40 42 45 47 49 49 50 53 55 57 58 59 61 63 65 68 69 70
36 34 32 31 32 25 23 25 17 20 23 24 24 24 28 28 28 31 33 31 27 27 28 30 31 32 34 36 39 41 42 44 46 46 47 50 54 56 57 59 60 62 65 69 72 74 76 77 78
33 33 30 30 30 27 26 24 21 23 24 26 26 28 31 31 31 32 31 26 28 30 32 32 34 36 38 40 42 44 42 45 48 51 54 57 59 61 62 64 68 71 74 77 79 81 83 85 87
34 33 30 31 31 30 28 22 22 24 26 28 29 31 31 30 30 29 27 29 31 33 34 35 37 39 41 43 42 44 49 53 56 59 62 65 67 68 70 73 75 79 82 85 87 90 92 93 95
37 31 33 32 30 29 28 22 22 23 26 28 28 29 29 28 27 28 28 30 34 35 36 37 39 39 40 42 47 51 54 58 62 66 69 70 71 73 76 79 81 84 88 92 95 98 101 102 102
30 32 32 29 29 25 23 20 18 20 22 22 23 24 25 28 29 28 29 32 35 35 35 36 37 40 44 49 53 56 60 64 67 69 69 72 76 78 81 83 86 91 96 100 103 106 106 104 103
31 30 29 28 23 21 17 15 15 18 21 23 24 25 27 27 26 26 29 32 34 34 36 39 42 47 51 55 59 63 65 67 69 72 75 79 81 83 85 89 94 97 101 103 105 105 104 101 95

GFSSGP_500_spd_006.txt.gz
Wind_Speed
24 21 20 20 18 13 15 19 23 25 25 24 21 16 14 16 12 12 12 11 13 15 14 12 13 12 12 13 13 13 14 15 14 13 11 13 11 11 12 14 13 14 16 16 15 13 14 15 18
25 22 22 20 15 13 16 18 17 23 27 23 23 17 14 12 15 14 11 11 12 12 11 11 12 13 13 14 14 13 12 15 16 14 12 13 13 13 12 14 14 16 17 18 16 15 15 17 21
26 22 22 21 18 15 17 18 21 20 25 24 22 18 13 14 15 15 12 9 11 11 11 11 12 13 14 14 14 13 12 13 15 15 13 15 15 12 14 17 17 18 18 18 16 15 15 17 20
27 25 21 22 20 19 19 23 18 19 23 24 21 19 14 15 17 17 13 9 10 12 11 11 13 13 14 14 13 12 13 14 16 16 14 16 16 15 14 17 20 19 19 19 17 17 16 16 17
28 26 20 21 23 24 24 22 20 19 20 21 19 23 17 17 20 19 13 10 10 12 12 11 13 13 14 14 14 13 11 16 18 19 18 18 18 17 16 17 19 20 20 19 18 19 19 17 17
29 29 23 21 24 27 25 22 21 19 20 20 19 24 18 19 20 20 14 11 12 12 13 12 14 13 14 16 15 15 14 14 17 21 22 21 19 19 17 17 19 19 18 18 19 21 21 21 21
28 29 26 23 25 26 23 20 19 18 20 22 18 18 20 20 19 21 13 12 13 13 13 13 13 14 14 16 17 17 17 18 17 19 21 20 20 20 19 19 20 20 19 19 21 23 24 25 26
28 29 28 26 25 24 23 19 16 17 21 20 15 15 18 18 19 20 15 12 13 13 13 13 14 15 15 16 18 19 20 20 20 19 19 20 20 20 20 22 23 24 25 24 25 27 27 28 29
31 28 27 27 24 23 23 20 16 15 19 13 16 16 17 19 19 19 15 14 12 12 14 13 15 15 16 18 19 22 23 24 23 23 22 22 22 24 25 26 29 31 31 31 29 31 32 31 32
33 27 27 31 26 24 22 20 16 13 18 19 13 14 18 18 18 14 13 14 13 15 15 14 15 16 16 19 20 23 25 26 27 25 26 25 26 27 28 30 32 34 34 34 34 35 36 39 41
31 26 30 32 30 25 21 21 15 13 13 20 14 15 14 18 15 15 16 15 16 16 17 16 16 17 18 19 20 22 25 26 26 27 28 28 29 31 32 34 35 36 37 38 40 42 44 45 46
31 30 29 30 32 24 23 21 17 12 15 22 21 17 14 14 15 17 19 18 17 19 17 17 18 18 19 20 21 21 23 25 26 27 28 29 31 33 35 36 38 41 43 45 46 47 48 49 50
31 30 32 32 30 25 22 22 21 13 16 21 25 19 15 13 15 18 18 20 20 21 21 21 21 19 18 20 20 20 22 23 25 28 29 31 34 36 39 41 44 47 46 45 44 44 44 45 45
32 35 36 30 28 26 24 22 18 14 20 21 20 17 11 13 13 15 17 20 21 23 23 21 22 21 20 19 19 21 23 25 27 29 31 34 38 42 45 46 45 44 42 40 40 41 41 42 43
37 36 33 28 27 30 27 18 21 23 21 17 16 17 16 15 16 18 20 24 25 27 25 22 23 22 20 19 20 22 25 28 31 33 36 39 44 46 45 43 41 41 40 39 39 39 41 42 43
37 33 30 28 33 30 25 14 26 21 19 20 18 20 19 17 19 21 23 28 29 29 28 26 23 23 22 22 23 27 30 32 34 36 38 38 38 37 34 34 35 36 37 38 38 39 39 39 41
38 31 30 31 33 27 25 16 20 20 21 22 22 22 20 20 20 19 23 25 29 30 28 25 21 22 22 24 28 31 34 36 36 36 34 33 33 32 31 31 32 32 33 35 37 38 41 42 43
31 30 29 32 30 27 23 18 20 17 18 21 21 23 20 19 21 25 27 26 26 26 30 20 21 24 25 28 31 34 36 36 35 33 31 30 30 30 29 31 34 36 37 39 41 43 45 46 48
33 37 31 33 33 25 24 21 20 18 15 18 18 19 18 22 26 28 25 23 22 21 22 21 24 28 31 34 35 36 36 34 32 31 29 29 31 33 35 36 38 40 41 44 46 48 50 52 56
36 34 30 31 30 25 23 19 20 18 17 17 18 19 22 24 22 22 22 22 20 21 23 25 29 33 36 38 36 33 29 27 28 30 32 33 35 37 38 41 43 45 48 50 52 55 55 56 56
32 30 27 29 29 23 24 21 21 21 21 20 18 19 19 18 18 22 23 22 21 23 26 28 32 36 37 34 29 26 26 28 30 33 35 37 39 41 44 47 49 50 50 51 53 55 58 58 59
30 25 29 29 27 23 24 22 19 21 23 22 20 19 17 16 17 23 24 24 24 24 29 33 34 34 30 28 28 29 30 32 35 36 39 42 45 46 46 46 47 50 53 55 57 58 60 61 61
22 27 27 29 26 25 20 22 14 22 24 24 23 19 17 17 19 22 25 27 29 29 31 34 34 30 29 29 31 33 35 36 38 41 43 44 43 44 46 49 52 55 58 59 61 62 64 68 71
30 30 28 30 29 29 20 23 13 21 23 23 22 21 20 20 22 24 26 30 33 32 32 33 31 31 32 35 36 37 39 41 42 42 41 43 47 50 53 56 60 64 67 69 70 72 74 76 78
33 32 28 28 27 21 23 26 14 20 22 21 21 21 21 22 25 26 29 32 35 34 33 31 32 35 37 39 40 41 41 41 40 41 45 49 52 56 60 64 68 71 72 73 75 77 80 81 82
32 29 23 25 24 23 23 23 19 21 23 23 23 22 25 26 27 29 30 32 35 35 32 34 38 40 41 42 42 41 39 40 44 48 52 55 60 64 67 70 71 73 75 77 78 80 82 84 89
31 34 28 25 26 24 24 22 21 22 25 26 26 27 30 28 28 26 29 32 34 34 37 39 41 41 41 40 39 40 43 47 52 56 61 65 69 72 73 74 75 77 79 82 85 88 92 96 100
37 30 31 30 28 25 23 22 22 24 25 25 27 30 29 28 26 28 31 34 36 37 39 40 39 38 39 40 41 45 49 53 57 61 65 69 72 75 77 79 81 85 88 90 93 96 98 101 105
35 32 30 29 29 26 24 24 21 22 24 26 26 27 27 26 26 29 32 34 37 39 36 35 37 38 39 41 45 48 51 55 60 64 68 72 75 78 80 82 84 86 90 94 98 103 105 107 108
37 33 30 32 30 26 25 21 19 21 23 24 23 23 24 25 28 31 32 34 37 36 34 36 37 39 42 45 50 53 57 61 64 69 72 74 76 78 79 83 87 91 97 101 105 107 108 107 102

GFSSGP_500_spd_009.txt.gz
Wind_Speed
25 21 21 20 21 20 20 19 23 24 23 23 20 18 15 14 12 12 14 13 13 13 15 14 12 13 13 12 13 14 14 15 16 17 15 14 11 10 11 11 11 13 16 16 16 17 17 17 16
26 23 21 21 19 18 19 20 22 19 19 20 21 16 15 13 16 15 14 13 12 10 10 10 11 12 13 13 14 15 14 14 16 18 17 15 13 12 15 15 12 12 17 17 16 17 18 18 17
26 26 20 22 20 20 22 24 18 17 17 19 19 17 13 17 16 16 16 14 10 11 10 9 11 11 13 13 14 14 13 13 15 18 18 16 14 12 14 18 15 16 18 19 18 19 19 18 18
27 27 22 21 24 24 25 24 16 17 18 19 18 17 15 15 16 16 16 14 10 12 12 9 11 13 13 14 14 14 12 13 15 17 18 18 17 15 17 17 17 18 19 20 20 20 19 19 19
27 28 25 20 24 26 26 23 18 16 15 19 18 16 19 19 18 19 17 15 13 12 12 11 11 13 13 14 15 14 14 12 14 18 19 20 20 20 20 19 19 19 18 20 20 19 20 20 21
28 28 27 23 23 26 26 23 19 17 16 18 17 15 20 23 18 19 18 15 11 11 14 13 11 13 15 14 16 16 15 15 14 15 19 23 24 24 22 21 20 19 19 20 19 20 21 23 22
31 28 28 26 25 24 24 22 19 18 17 17 13 14 16 22 18 18 15 14 12 12 14 14 13 13 15 15 17 18 18 17 17 18 18 19 22 23 24 21 21 21 21 22 22 24 25 25 27
34 30 28 29 26 25 22 20 19 17 17 15 13 13 11 14 17 17 12 15 13 13 15 14 14 14 15 16 17 18 20 21 20 21 21 21 21 22 23 21 22 23 24 27 29 29 29 31 31
38 31 26 30 30 26 20 18 19 16 16 11 12 12 8 10 12 13 15 16 13 13 13 13 15 15 15 16 18 20 21 23 24 24 24 25 24 24 25 25 26 28 29 31 32 32 33 32 33
39 32 27 30 33 28 21 19 19 16 14 11 11 10 11 9 11 15 18 17 12 14 14 15 16 15 15 17 18 21 22 23 26 27 26 26 28 28 28 28 29 31 33 34 35 36 37 39 40
38 30 30 30 32 30 24 21 18 15 12 14 18 13 11 14 14 17 18 15 15 16 16 15 16 17 16 17 18 20 21 22 24 26 27 27 28 28 30 31 32 34 36 38 39 41 44 45 47
36 31 33 30 30 28 28 22 19 11 15 15 20 19 15 16 18 17 19 17 17 18 18 17 17 20 19 19 19 20 19 19 21 23 24 26 27 29 31 32 34 37 39 42 44 45 43 42 41
36 33 36 33 28 28 28 23 19 13 16 17 22 22 17 16 17 17 17 17 19 21 21 19 18 19 20 21 20 21 20 19 20 21 23 25 27 30 32 35 38 41 44 45 44 42 40 40 40
35 38 38 35 31 30 27 25 17 18 21 21 19 23 18 16 16 16 16 18 19 19 20 21 20 21 23 22 21 20 19 20 22 24 26 29 31 34 36 38 40 43 42 40 39 39 38 38 39
41 41 39 32 33 30 28 22 25 25 17 17 15 18 20 18 18 17 16 17 18 20 20 21 23 23 25 24 21 21 22 23 25 27 29 30 32 33 34 35 34 34 33 32 33 34 34 34 35
43 40 36 31 34 34 26 21 34 21 20 16 19 18 21 19 18 17 19 20 21 21 21 20 21 22 25 24 23 24 26 27 29 31 32 32 32 32 31 30 31 31 31 32 33 35 36 37 39
44 37 34 36 35 34 29 23 31 22 20 18 21 21 20 19 19 20 21 19 20 23 23 23 26 26 27 23 24 27 30 33 36 36 35 32 30 29 28 28 30 31 34 36 38 39 41 42 44
44 32 33 32 36 35 32 25 30 22 18 16 17 20 20 21 22 23 21 22 26 28 27 26 24 25 25 24 27 31 35 39 39 36 33 31 30 29 30 32 34 36 38 40 42 43 46 48 49
35 35 34 34 37 33 32 25 30 22 18 18 17 19 20 22 23 25 25 26 26 23 24 25 23 23 24 27 31 35 39 40 37 33 31 31 32 33 35 36 39 40 42 45 46 47 48 49 52
37 37 35 34 32 31 30 24 29 23 20 20 18 17 20 22 25 27 28 21 20 22 24 25 24 26 27 31 34 36 37 35 32 32 33 34 35 37 39 41 43 44 45 46 47 49 51 54 57
38 35 33 34 34 31 28 25 29 23 22 21 19 18 19 22 25 25 22 22 17 20 24 26 27 28 30 32 34 34 31 31 32 35 37 38 39 41 42 42 42 43 45 48 51 54 58 60 62
35 30 34 35 33 30 28 26 26 22 23 25 23 22 22 21 20 19 21 21 21 21 23 26 29 32 33 34 33 33 33 34 37 39 40 41 42 42 41 42 46 48 51 54 58 62 66 70 72
31 33 36 34 30 28 26 25 24 24 23 25 26 25 24 22 20 19 20 22 23 23 25 27 30 32 34 33 33 33 36 39 41 41 42 40 40 41 43 47 50 54 59 64 68 71 73 75 76
35 36 34 29 29 26 22 23 26 21 19 24 25 24 25 24 22 21 22 24 27 28 28 28 29 32 34 33 34 37 39 40 41 42 40 40 42 46 49 53 56 60 64 68 71 73 76 77 79
38 36 33 30 29 23 23 25 18 19 19 22 24 24 22 22 23 24 25 27 30 30 29 30 32 33 34 36 38 39 41 40 39 38 40 44 47 49 51 55 59 65 69 72 74 76 78 81 83
39 34 31 28 25 26 21 22 20 21 22 22 24 22 20 23 25 25 27 28 29 30 30 31 33 35 36 39 38 38 38 38 39 41 45 47 50 53 56 61 67 71 73 74 76 78 80 83 87
34 34 31 28 25 25 21 18 22 20 22 23 24 25 26 28 28 27 28 29 29 31 32 33 35 37 38 36 36 37 38 40 43 45 49 53 57 61 66 71 74 75 78 79 81 83 86 90 95
38 31 32 31 27 21 20 16 21 23 23 25 25 27 30 30 27 26 28 30 32 32 33 35 36 36 36 36 37 39 41 44 47 52 56 61 65 69 73 76 78 79 80 82 85 87 91 96 99
32 33 30 28 28 24 23 19 20 22 24 25 26 28 29 27 25 28 29 31 31 33 35 36 35 36 36 37 39 42 46 50 55 59 63 66 70 73 76 76 77 80 83 86 89 93 97 99 101
35 32 32 31 28 25 24 20 19 22 25 25 27 27 24 24 25 27 29 30 33 35 36 36 34 35 37 40 44 49 53 56 60 64 67 70 72 73 75 77 81 84 87 91 95 98 99 102 104

GFSSGP_500_spd_012.txt.gz
Wind_Speed
22 22 24 22 21 18 20 24 26 25 25 22 21 18 16 16 17 18 18 17 17 16 16 16 17 14 14 14 15 15 16 16 16 18 18 18 15 14 14 13 13 15 15 16 16 18 17 18 18
25 23 24 23 20 19 22 25 25 21 20 20 20 16 16 18 20 20 19 17 16 15 13 12 12 13 13 14 15 15 15 14 15 16 19 18 17 15 16 16 16 17 17 16 16 17 18 19 18
27 25 24 23 21 22 25 26 21 18 17 19 18 16 15 18 19 19 19 18 16 13 10 10 12 12 13 14 14 14 13 13 14 15 19 19 19 18 17 17 16 20 21 20 18 18 19 21 21
28 27 25 24 23 25 26 25 21 18 19 18 16 15 15 18 21 22 18 16 14 12 11 11 12 13 15 15 15 15 14 13 13 16 18 19 20 20 20 20 20 20 22 22 20 20 19 21 21
30 28 27 26 24 26 28 24 20 20 19 17 14 14 18 21 20 17 17 17 14 12 10 11 12 14 15 16 16 16 16 15 14 14 17 20 21 22 23 23 23 23 20 20 20 19 18 20 21
33 29 29 28 28 27 30 26 22 21 19 15 15 13 19 24 22 21 18 18 15 11 11 11 11 12 14 16 16 17 18 17 17 17 15 16 19 23 26 27 25 24 20 20 20 20 20 22 24
34 34 31 29 31 29 29 27 23 20 20 17 15 17 19 22 25 22 17 17 14 11 12 10 11 13 14 16 17 17 18 20 21 20 20 20 20 20 22 24 24 24 23 22 22 24 26 27 29
37 36 33 30 33 34 28 24 24 22 21 17 16 18 17 16 21 21 18 17 14 12 12 10 12 13 14 15 17 18 19 20 22 24 24 23 23 23 22 22 23 24 25 26 27 30 32 33 33
39 37 34 30 34 36 29 23 23 22 20 18 16 17 16 13 16 20 20 18 14 13 14 12 11 11 13 14 16 19 21 22 23 25 28 28 27 26 25 25 26 26 28 29 31 33 36 37 37
42 38 33 32 36 35 32 24 22 23 20 17 15 17 17 15 16 17 17 15 15 15 16 15 12 12 12 13 15 17 20 22 24 24 26 28 28 28 28 28 28 29 30 33 34 36 38 40 42
45 36 33 35 39 33 33 28 21 23 20 18 16 19 19 19 18 18 15 15 17 18 18 17 15 14 14 15 15 17 19 20 22 23 24 25 26 27 28 29 29 31 33 36 38 39 41 44 46
47 37 37 37 38 34 33 29 23 20 20 18 19 23 24 21 19 18 16 16 19 20 19 19 18 17 17 17 18 19 21 21 20 19 20 21 22 24 26 28 31 33 35 38 40 43 45 46 45
45 39 38 39 40 35 33 28 26 17 25 22 21 24 27 19 17 18 19 19 22 22 21 22 23 21 19 18 19 22 22 21 20 20 21 22 24 25 29 32 34 36 39 41 42 42 40 39 38
44 42 41 44 41 36 31 29 20 29 29 20 20 22 25 20 17 17 20 22 23 23 22 22 25 24 23 21 22 23 24 23 22 22 24 26 28 30 33 35 37 38 36 35 35 34 33 33 34
48 46 46 46 41 36 33 27 24 34 23 23 18 21 26 24 20 19 20 21 21 20 21 22 23 23 24 23 23 25 25 26 25 27 28 31 34 34 34 34 34 33 32 32 32 32 32 33 35
52 50 51 43 39 34 37 27 33 31 27 21 20 20 23 26 24 23 22 21 21 21 22 22 22 23 24 24 24 26 28 27 27 30 33 36 37 35 34 32 32 32 32 33 33 35 37 38 39
56 52 48 43 37 39 34 29 35 31 27 23 20 19 24 27 27 24 23 23 23 23 22 22 25 27 27 26 26 27 28 28 31 35 37 38 37 34 32 32 32 33 35 36 38 39 41 42 44
59 53 44 40 39 38 37 31 32 29 27 23 21 21 25 27 26 24 25 25 24 25 26 28 29 28 27 27 26 27 29 31 35 37 38 37 34 33 33 34 35 36 38 40 41 43 44 44 44
55 43 41 38 41 39 38 32 30 29 26 22 21 22 27 29 27 26 25 27 28 29 31 30 26 25 25 25 25 29 32 35 37 38 36 34 34 35 36 38 39 40 41 42 42 41 42 45 48
50 46 42 42 39 37 38 30 32 31 25 25 24 24 27 27 26 25 25 28 30 32 31 25 24 25 25 25 27 31 34 37 36 35 34 35 36 38 40 40 41 42 42 41 44 45 47 50 54
53 47 43 37 35 36 34 29 34 32 28 28 25 26 25 24 24 24 26 29 33 31 27 23 22 22 25 27 30 31 34 34 34 34 35 37 39 40 40 41 41 41 42 45 47 49 52 55 59
48 45 41 36 35 37 33 30 31 30 28 29 27 27 25 24 23 23 26 28 27 26 27 27 26 27 28 30 31 32 33 34 34 36 38 39 40 41 41 41 42 44 47 49 51 54 57 62 67
43 44 40 37 37 33 30 29 31 32 29 28 29 29 27 26 25 26 25 24 25 26 26 27 28 29 30 31 34 34 34 34 37 38 39 39 40 41 42 44 47 49 51 54 57 62 66 70 74
47 43 39 35 34 32 28 27 30 32 30 29 29 30 30 28 29 29 27 26 26 26 26 28 29 30 31 33 35 35 36 37 38 38 38 40 41 42 46 48 50 53 56 60 63 68 72 74 77
45 41 37 35 35 29 28 29 24 33 30 28 27 28 28 29 28 29 29 28 27 27 29 29 30 31 33 35 34 35 37 37 37 38 40 42 44 46 48 52 55 58 62 66 70 73 75 77 79
46 41 38 35 29 29 29 28 27 27 30 28 26 24 25 27 28 29 28 28 28 29 30 30 32 33 34 34 35 36 36 36 38 39 41 43 45 50 53 58 62 65 68 70 73 75 77 80 82
42 42 38 33 29 29 25 26 25 26 28 28 24 23 25 27 28 28 29 29 29 30 31 32 33 34 35 36 35 36 36 37 38 40 44 49 52 56 60 63 66 68 70 73 75 77 80 83 87
38 36 34 32 30 28 22 25 25 24 25 26 24 25 25 27 29 29 29 30 31 31 31 31 32 34 35 34 35 36 37 38 42 46 50 54 58 61 64 67 69 70 72 76 79 82 85 89 93
44 40 35 32 31 30 23 22 24 23 22 22 24 26 28 30 30 29 29 30 31 30 30 31 33 32 33 34 36 37 40 45 49 52 56 59 63 66 68 69 71 73 76 79 82 85 90 93 96
34 36 30 33 31 28 25 23 24 24 22 22 23 26 28 29 30 29 27 28 28 29 30 31 31 32 33 36 38 41 46 50 54 57 61 64 66 69 70 71 73 77 80 83 86 90 93 96 99

GFSSGP_500_spd_015.txt.gz
Wind_Speed
25 24 24 23 23 18 18 25 28 26 28 23 24 19 18 20 23 26 21 21 20 19 19 20 18 16 15 14 15 15 15 16 16 17 19 19 20 19 16 16 16 18 17 18 17 17 18 16 17
27 27 24 24 22 19 19 27 24 28 23 21 21 20 21 25 24 25 23 21 21 19 17 18 15 14 13 13 15 15 15 15 15 15 16 18 20 19 18 18 18 19 20 19 19 19 18 17 18
28 28 27 25 22 21 23 26 30 21 20 19 19 21 21 28 24 26 25 24 22 20 17 14 12 13 13 13 14 14 13 13 13 15 15 18 20 20 19 19 19 19 19 21 22 23 20 19 20
30 28 30 27 25 25 26 24 22 21 19 19 19 18 21 24 25 25 23 20 19 17 15 12 11 13 14 14 14 15 14 14 14 14 16 17 19 21 21 21 22 21 21 21 22 22 22 21 20
32 30 30 29 27 26 28 26 23 21 20 20 17 19 23 23 26 25 24 23 20 16 13 10 11 13 14 14 16 16 17 16 15 16 15 16 19 21 23 23 24 24 24 23 22 21 21 20 21
36 33 31 30 29 30 28 28 25 23 22 20 19 15 23 24 25 26 22 21 18 17 12 11 12 12 13 14 16 16 17 17 18 17 17 18 18 18 21 23 24 25 25 25 23 22 22 22 23
39 36 33 33 33 31 31 28 28 26 24 24 17 20 25 22 25 25 25 22 17 15 11 11 12 12 12 13 15 16 17 18 19 20 21 21 22 22 22 21 20 21 22 23 23 24 25 26 28
42 40 36 35 32 33 35 30 28 29 29 20 21 25 29 17 23 24 26 23 17 13 12 13 14 13 12 13 15 16 18 19 20 22 23 24 25 25 25 25 24 24 24 25 26 27 29 31 31
44 44 39 35 34 33 37 32 26 27 29 28 23 24 23 21 20 21 24 22 17 16 13 15 16 14 12 12 14 16 18 20 20 22 23 25 26 26 27 27 26 27 27 27 29 30 32 34 35
47 46 39 34 37 37 39 32 28 27 30 29 26 24 22 23 22 20 21 23 19 18 17 17 19 17 14 13 12 14 16 18 19 21 23 23 24 24 25 26 27 28 29 30 32 34 36 37 40
51 48 39 38 39 41 41 31 32 26 28 30 30 24 20 23 24 22 22 21 20 19 19 20 21 19 17 17 17 16 17 18 20 20 21 21 21 21 22 24 26 29 31 33 35 37 39 41 43
49 49 42 41 40 43 39 34 29 29 26 30 27 25 22 27 26 23 22 20 20 20 20 21 22 22 20 20 19 19 18 20 21 21 20 20 21 22 24 26 28 30 32 35 37 40 43 45 45
52 47 43 43 43 43 41 35 29 27 26 32 30 26 26 26 26 22 22 21 21 21 21 22 23 24 25 26 23 21 20 22 25 23 22 22 24 26 28 31 33 35 37 39 41 41 41 39 37
54 46 46 47 47 46 42 35 34 25 38 32 28 26 26 28 26 23 20 21 22 22 23 24 24 25 28 29 28 26 24 26 29 27 26 26 28 30 32 35 35 36 37 38 37 35 35 34 34
57 51 49 50 49 47 42 38 30 30 41 31 28 26 25 25 29 24 21 21 22 23 25 24 25 28 28 28 26 26 26 27 29 29 29 28 31 33 35 37 37 36 35 34 34 33 33 34 35
59 57 53 51 49 46 44 34 35 38 35 30 27 26 24 23 28 27 24 22 22 23 23 23 26 27 28 28 29 29 28 28 29 30 30 31 34 36 37 36 34 34 34 33 34 34 36 37 38
59 60 53 54 51 46 48 35 37 38 33 30 28 25 23 24 28 31 29 24 23 24 25 26 28 27 28 29 31 31 31 29 28 29 32 36 37 37 36 32 32 33 34 35 36 37 37 38 39
58 59 57 54 54 47 44 38 39 38 35 30 29 27 24 25 28 34 31 27 27 27 27 27 28 30 32 36 34 30 28 27 28 31 35 38 37 35 33 32 33 34 36 37 38 38 39 40 40
52 57 57 52 50 48 42 41 39 40 35 29 30 28 27 26 30 33 31 30 28 29 30 31 31 34 36 34 29 29 29 30 32 34 37 36 35 34 34 35 35 36 37 38 39 39 40 42 45
59 49 53 50 52 47 42 43 38 38 35 28 26 27 27 27 31 33 31 30 30 30 31 32 33 35 32 29 29 29 30 33 36 38 38 37 35 34 35 36 37 38 39 40 41 42 45 48 51
59 56 50 51 55 43 44 41 36 32 39 29 29 29 27 27 29 33 32 31 30 31 32 33 34 34 29 27 23 31 34 36 38 38 38 36 36 37 38 39 40 40 41 43 46 49 51 51 53
53 52 50 54 50 43 45 39 38 37 37 31 30 29 28 27 28 29 30 30 29 30 32 31 29 29 30 32 32 34 36 37 39 38 38 38 38 40 40 41 42 43 45 47 48 50 53 57 60
47 53 52 54 48 44 42 39 30 35 35 31 29 31 29 28 29 30 30 29 28 29 28 27 28 29 30 31 34 36 37 37 38 37 37 39 40 41 42 43 44 45 46 49 53 56 60 64 69
49 44 46 52 49 42 37 34 32 32 36 33 29 29 29 29 30 31 32 31 30 30 28 28 28 29 31 33 35 36 38 38 38 38 39 40 41 42 42 42 44 48 52 56 59 63 66 68 70
38 55 55 46 48 40 38 33 27 36 34 32 29 29 29 31 32 33 33 32 33 31 28 28 29 31 33 35 36 38 38 38 38 39 39 40 41 41 43 47 51 55 57 61 65 67 69 71 73
42 47 44 49 46 37 31 32 33 30 32 31 28 28 28 30 32 33 34 34 33 32 31 31 31 32 34 36 37 38 38 37 38 39 40 41 42 45 49 53 56 60 63 66 68 71 73 74 76
49 41 42 44 41 32 31 29 28 29 29 29 29 26 29 29 29 31 33 32 32 32 32 33 34 34 35 36 36 37 37 37 37 38 41 44 47 51 54 57 61 64 67 69 72 74 75 76 79
44 47 42 39 35 30 27 28 30 27 27 28 27 30 32 31 30 29 30 31 32 34 35 34 34 34 34 35 36 36 36 37 39 41 45 49 52 55 59 62 66 68 70 72 74 75 76 80 84
43 42 39 39 35 28 21 25 27 24 25 26 27 29 29 30 28 30 30 32 34 34 34 34 32 31 33 34 34 35 37 39 42 47 50 53 57 60 64 67 70 72 73 74 75 77 81 84 87
38 37 39 34 33 31 27 28 25 22 22 22 26 28 29 29 29 30 33 34 33 33 33 31 31 32 33 34 35 37 40 43 48 51 54 58 62 66 69 71 73 74 74 74 77 80 83 86 89

GFSSGP_500_spd_018.txt.gz
Wind_Speed
25 25 22 22 21 21 19 19 25 27 28 24 21 19 17 22 27 25 25 23 23 22 20 19 19 21 19 17 14 13 13 13 13 14 16 17 17 18 18 16 17 15 16 17 17 19 18 20 18
28 26 26 22 22 20 19 18 29 25 25 20 21 19 20 28 25 26 26 25 24 23 20 19 19 17 16 14 14 14 14 14 13 13 13 14 16 17 17 17 17 17 18 18 19 20 20 21 20
31 29 27 24 24 20 22 29 33 24 18 22 21 21 24 29 25 25 27 28 26 23 19 19 18 15 13 13 13 13 14 14 12 10 11 13 14 16 17 18 18 18 19 19 19 19 21 23 23
34 33 30 27 24 23 25 29 19 16 22 20 20 22 27 29 25 26 27 29 26 22 19 17 14 12 12 13 13 13 14 14 14 12 12 12 13 16 18 20 20 21 21 22 22 21 22 22 23
36 35 33 28 25 25 25 27 21 21 20 20 19 26 26 22 23 25 27 28 26 18 17 15 11 12 13 14 14 13 14 15 15 15 14 13 13 15 18 20 22 23 24 25 25 24 22 22 21
38 37 35 31 26 26 29 28 24 22 23 22 23 19 26 22 22 24 27 27 22 21 18 14 11 13 13 13 14 14 15 15 15 16 17 16 16 17 17 18 19 19 21 22 22 22 22 22 22
38 39 38 34 30 30 34 29 24 29 23 26 21 20 31 20 21 23 25 24 22 20 15 14 13 13 14 14 14 15 15 16 17 17 17 18 20 21 21 22 21 20 21 21 22 22 23 25 26
41 41 41 37 34 30 30 31 28 27 26 27 20 26 34 13 22 24 23 22 24 20 15 16 14 14 14 14 14 15 16 17 16 17 19 20 21 22 23 24 25 24 24 24 25 26 27 29 30
43 44 43 40 35 33 32 34 31 29 25 28 27 28 32 24 23 24 23 24 24 21 17 18 17 16 16 14 13 14 15 17 17 17 18 19 20 22 22 24 25 26 27 28 28 30 31 32 33
48 44 42 39 37 37 37 38 31 28 27 30 31 33 36 29 23 24 24 24 23 22 19 21 18 18 17 15 14 15 16 16 16 17 19 20 20 20 20 22 23 25 27 28 29 30 32 34 35
47 47 38 42 39 41 43 37 30 29 29 29 33 37 35 26 22 26 26 25 23 23 22 23 21 19 19 19 17 17 19 19 20 19 19 20 21 20 21 21 23 24 27 29 30 32 34 35 38
46 47 44 39 43 46 44 36 36 31 26 32 34 32 29 25 26 28 28 25 23 23 23 23 22 21 22 21 21 20 21 21 20 22 23 22 21 21 22 24 25 27 29 32 34 36 38 39 41
48 46 47 41 46 47 47 41 35 32 28 35 34 32 30 28 28 26 27 25 25 23 23 23 23 23 24 24 24 25 26 26 26 28 29 29 26 25 26 28 30 32 34 35 35 36 38 39 38
49 48 47 46 44 50 49 43 39 29 30 36 37 30 28 28 25 24 29 27 25 24 22 23 23 24 24 26 26 26 28 32 31 31 32 32 30 29 30 32 34 35 35 36 35 35 35 35 34
53 53 51 49 48 49 51 46 41 27 34 39 37 29 28 26 25 28 27 28 25 22 24 23 24 25 25 26 28 28 28 29 29 31 32 33 31 32 32 35 37 38 36 33 32 31 31 30 31
57 57 52 44 52 47 53 49 36 34 42 39 34 33 27 27 27 26 29 29 27 23 21 23 24 23 25 26 29 29 29 31 34 35 35 32 31 32 35 38 39 36 33 30 29 29 30 32 33
56 59 53 49 50 51 50 52 37 37 42 37 31 33 31 28 29 26 28 32 30 23 21 22 23 24 26 28 29 30 34 36 34 32 31 30 32 35 37 40 37 33 31 31 32 33 33 34 35
52 57 56 54 49 51 48 50 42 41 40 35 33 32 32 28 28 28 28 34 33 26 23 23 25 27 28 29 32 35 38 35 30 30 30 32 35 38 40 40 37 35 34 34 34 34 36 37 37
50 52 53 53 54 53 52 46 44 41 40 39 34 31 33 29 27 28 28 32 34 29 26 26 27 29 31 33 35 36 36 31 30 31 32 34 38 39 40 39 37 38 37 36 37 37 38 40 42
57 56 52 50 51 51 52 47 47 41 40 39 36 33 34 29 29 27 28 31 31 29 28 28 29 31 33 36 36 37 33 30 30 31 33 38 40 40 40 38 37 38 39 39 40 40 41 43 46
58 57 52 42 44 50 53 50 48 41 38 39 36 34 33 29 29 29 29 30 30 29 29 30 30 32 36 38 37 31 30 31 35 36 38 39 40 41 40 39 40 41 41 42 43 43 45 47 51
62 57 54 42 34 51 51 51 46 42 42 41 38 32 33 29 28 27 28 29 31 30 30 28 30 33 36 32 30 31 33 34 35 38 40 41 42 41 40 40 41 41 42 42 44 47 51 55 57
63 55 49 42 40 48 53 49 43 47 41 39 35 34 33 30 29 27 28 28 27 27 27 28 30 32 31 30 32 34 36 37 38 40 41 41 41 40 41 41 41 41 43 47 50 53 57 61 65
53 53 53 50 34 45 47 40 40 44 35 35 36 35 32 29 29 28 28 28 26 26 28 29 31 32 33 34 36 37 38 38 39 41 41 41 40 40 40 41 42 45 48 51 55 59 62 65 67
57 53 36 53 49 48 41 43 36 37 36 34 33 33 29 26 30 29 29 28 27 29 30 32 33 34 35 37 38 37 38 39 40 41 40 40 40 40 40 43 47 50 53 56 59 63 66 69 71
58 58 41 42 53 44 45 45 39 37 30 32 31 30 27 26 28 28 26 27 28 31 32 33 34 35 36 38 38 38 40 40 39 39 39 39 40 41 45 48 51 55 58 61 65 68 71 73 74
65 45 29 34 51 44 40 37 35 32 29 28 29 24 25 27 27 25 24 27 28 30 32 33 33 35 36 38 39 39 39 37 38 38 39 40 42 45 49 52 55 58 62 65 68 71 73 75 76
38 35 34 35 34 42 37 35 35 29 27 26 22 20 25 25 26 25 25 26 27 30 31 33 35 36 37 37 38 37 37 37 38 39 40 43 46 50 53 56 59 63 67 70 72 74 75 76 76
40 39 42 26 35 30 36 33 32 24 21 21 20 22 23 24 28 29 27 27 30 32 33 33 34 37 37 37 35 36 37 37 38 40 43 47 50 53 56 61 65 68 71 73 75 75 74 76 78
36 38 34 37 30 30 26 26 24 21 20 21 21 23 26 27 28 27 27 30 33 33 33 34 35 36 36 35 36 37 38 38 41 44 47 50 54 57 62 66 69 73 74 74 73 73 75 78 81

GFSSGP_500_spd_021.txt.gz
Wind_Speed
27 24 22 22 19 16 17 15 24 26 27 23 18 21 24 26 24 24 24 23 21 21 20 19 18 19 20 19 15 12 10 9 12 12 13 14 15 16 16 16 15 15 14 15 15 16 17 19 19
30 28 25 24 21 17 19 24 29 27 20 19 21 22 26 28 25 23 24 22 21 22 21 19 18 19 19 16 14 12 8 9 10 13 12 12 13 14 16 16 15 16 15 17 17 18 20 22 22
33 32 30 26 23 19 20 22 28 24 20 18 23 22 27 29 22 24 25 23 21 23 23 19 19 19 17 14 13 13 11 10 9 10 11 11 12 14 14 17 17 17 17 18 19 19 19 20 21
34 36 34 29 25 24 22 23 27 22 18 20 18 25 28 28 23 25 26 25 23 24 23 19 18 17 15 12 12 12 12 11 11 10 11 12 12 11 14 16 19 20 19 21 21 21 22 22 22
34 37 37 33 27 26 21 23 24 20 20 20 20 26 26 26 21 23 25 24 24 23 19 18 17 16 13 12 12 13 12 12 13 12 13 14 13 14 14 14 17 20 21 23 24 25 25 25 24
34 35 37 34 29 30 31 27 25 19 25 21 23 25 26 26 23 23 26 24 23 22 20 20 18 17 14 13 12 13 15 14 15 14 15 15 17 17 18 18 18 18 18 19 21 22 23 24 25
36 34 36 36 33 35 33 30 24 23 24 24 22 25 27 27 22 23 23 24 21 20 20 20 19 18 16 15 13 13 14 15 15 16 17 17 18 18 20 22 22 23 23 23 24 24 24 24 26
36 40 34 38 34 32 34 32 21 23 24 23 23 27 29 24 24 22 21 24 21 20 22 19 19 20 19 16 14 12 14 14 16 16 17 17 18 19 21 21 22 24 26 27 27 27 27 28 29
38 40 36 28 37 28 34 34 30 25 23 24 26 30 33 29 30 22 22 22 23 23 23 21 20 22 19 18 15 13 14 13 15 17 17 18 19 19 20 21 21 22 24 26 27 28 29 30 31
37 34 32 32 32 35 36 39 36 27 22 25 27 32 38 33 28 23 26 25 24 24 22 22 22 23 20 19 17 16 16 16 16 17 17 17 17 19 20 19 19 20 21 23 24 26 28 30 32
37 32 33 32 35 37 40 43 39 29 23 27 28 33 41 32 28 25 25 27 26 25 23 23 25 26 22 21 20 19 18 19 18 20 20 20 20 20 21 21 21 22 23 25 26 27 29 31 34
39 37 36 33 38 38 42 47 40 35 27 27 30 34 36 30 27 25 28 26 26 26 23 24 24 27 25 21 24 23 21 22 23 24 25 26 27 26 25 23 24 26 27 30 32 34 35 35 36
40 39 38 35 37 40 41 48 40 38 31 30 32 35 35 31 27 30 28 27 25 25 23 24 25 26 25 24 25 24 23 24 27 29 30 32 32 32 30 27 27 28 30 33 34 36 36 36 36
42 40 40 39 37 39 45 42 45 37 34 34 32 33 36 32 26 26 29 26 28 22 23 23 26 25 26 26 25 24 24 25 26 27 29 33 36 35 35 31 30 31 34 36 38 38 35 32 31
44 44 42 42 42 40 46 46 41 34 37 37 35 35 34 34 26 27 28 28 26 25 23 24 25 25 25 26 24 23 23 25 28 29 31 35 37 36 34 32 31 35 37 39 39 36 33 31 29
47 48 46 47 45 44 49 38 38 36 39 41 36 34 31 32 29 27 28 28 25 26 24 23 24 26 25 23 23 21 24 28 28 31 33 34 34 34 32 32 34 36 38 39 37 35 33 33 32
50 51 50 47 46 47 50 44 38 34 42 43 39 34 31 31 30 27 29 26 26 25 25 22 23 23 22 21 24 24 26 28 33 36 33 31 30 29 30 33 35 36 38 38 36 36 36 36 36
44 42 46 49 43 50 49 48 39 34 43 46 39 35 34 29 30 30 29 27 26 27 28 24 23 23 22 24 27 27 29 32 33 35 30 28 29 30 32 36 37 39 39 37 35 36 37 37 37
44 45 49 48 50 48 51 49 39 40 45 45 39 34 37 28 26 32 29 28 27 28 29 28 25 25 25 28 29 30 32 34 34 32 29 29 32 33 36 39 41 41 39 38 37 38 39 41 41
47 48 47 46 45 44 49 52 40 45 43 43 38 36 38 29 25 32 28 28 27 27 28 29 28 27 28 29 29 33 35 36 29 30 26 32 37 38 39 40 41 41 40 40 40 40 40 41 43
51 50 47 47 43 42 42 53 45 47 45 39 40 36 40 29 27 32 30 28 28 27 26 27 28 28 30 30 32 35 34 28 27 29 33 36 38 40 41 42 42 41 41 41 41 42 43 44 48
51 48 50 50 46 42 41 50 48 46 43 40 41 40 37 29 28 30 30 30 30 27 27 28 28 29 29 31 33 31 29 29 30 33 36 39 41 42 43 43 41 41 41 41 42 45 48 50 53
46 47 50 51 47 46 44 44 43 44 46 47 41 39 35 29 29 28 28 29 27 26 26 27 28 28 29 31 31 30 31 33 35 36 39 40 42 44 43 41 41 42 42 44 46 50 53 56 59
48 52 51 48 48 55 48 37 40 44 45 43 39 40 34 29 28 29 30 29 26 26 26 26 26 28 30 31 33 33 35 36 36 38 39 40 41 42 41 42 42 43 45 48 51 54 57 60 63
49 50 56 53 53 57 48 39 38 37 42 37 39 37 30 28 28 29 32 29 25 26 27 28 28 30 31 33 35 36 37 37 38 40 41 40 39 40 41 41 43 46 49 52 55 58 61 64 67
39 41 55 59 57 56 54 49 43 36 40 37 35 34 29 28 28 30 31 27 25 26 27 29 31 32 34 34 35 36 37 38 39 40 39 39 40 41 41 44 47 50 53 56 59 62 65 68 71
31 47 45 55 50 46 46 46 31 40 33 31 30 30 24 27 27 26 25 26 24 25 28 29 31 32 33 33 33 36 38 39 39 38 39 40 41 42 44 47 51 54 56 59 63 66 69 72 73
34 45 56 68 24 47 45 32 29 29 27 23 24 21 26 24 25 23 24 23 21 23 26 28 29 30 32 32 35 37 38 38 37 38 40 41 42 44 48 51 54 57 61 64 68 71 72 72 71
42 53 54 32 17 31 38 33 30 27 21 20 20 22 21 21 23 22 21 21 22 25 26 28 29 30 32 34 36 37 37 36 39 40 41 43 45 47 51 54 58 61 65 69 71 72 71 69 69
26 34 33 28 12 32 39 33 31 25 21 18 20 21 20 19 18 19 20 22 25 27 28 29 31 32 33 35 36 35 36 39 41 41 43 46 47 50 54 58 62 66 69 72 71 68 67 70 73

GFSSGP_500_spd_024.txt.gz
Wind_Speed
30 30 25 23 20 16 16 19 27 26 25 21 20 23 25 25 25 25 24 25 21 20 19 18 17 16 16 17 17 13 12 12 10 9 9 10 11 14 16 19 18 18 17 17 16 15 15 17 20
34 33 31 27 23 18 20 20 23 26 21 20 23 24 26 26 26 27 24 25 22 20 19 20 19 18 17 17 17 14 13 12 10 10 10 10 11 14 17 20 21 20 19 18 18 17 18 19 20
35 35 34 30 27 22 22 23 23 24 19 18 24 25 27 24 23 27 27 25 25 22 21 20 19 19 18 17 15 13 13 12 12 10 11 11 11 14 16 18 21 20 20 19 20 20 21 21 22
28 35 37 35 30 27 25 25 25 22 21 19 25 27 27 24 23 25 26 25 24 23 23 22 20 19 18 17 15 12 12 13 14 13 12 13 13 14 13 15 18 20 23 23 23 24 24 26 26
32 30 36 36 31 31 29 27 27 24 21 23 25 28 29 27 24 22 21 22 23 23 21 21 20 19 19 18 13 12 13 12 14 13 14 15 15 17 16 16 16 18 21 23 25 26 27 29 30
35 34 32 31 32 33 34 35 30 25 25 25 26 27 27 28 26 23 23 22 23 21 20 21 21 21 20 18 14 13 13 14 14 16 16 17 17 18 19 20 21 21 21 21 22 22 24 24 27
29 32 33 29 34 37 35 33 30 26 26 26 24 27 27 28 26 22 21 21 21 20 20 21 23 24 22 19 17 14 14 14 14 16 16 17 18 19 20 21 22 24 25 26 27 27 28 28 29
31 34 32 31 28 34 37 36 32 27 26 27 23 27 26 28 27 25 21 19 19 21 20 21 22 23 22 21 19 17 15 13 13 15 16 18 19 19 19 20 21 23 25 25 27 28 29 30 31
35 35 29 29 30 26 37 38 39 33 29 26 24 28 29 31 31 28 22 22 22 20 21 22 24 23 22 23 21 19 17 15 13 13 15 16 17 18 18 19 19 20 21 22 23 24 26 28 30
36 32 28 24 27 31 36 44 40 37 30 27 27 29 31 33 33 28 23 24 24 22 22 23 25 26 24 25 23 22 19 17 16 15 15 15 16 17 17 17 19 20 21 22 23 23 25 27 28
34 31 29 27 29 34 38 44 44 40 34 26 28 32 32 31 29 29 27 26 23 24 25 22 25 28 25 26 24 23 22 20 20 21 21 21 22 22 24 24 23 25 25 26 26 27 30 32 34
39 35 34 30 32 35 40 42 45 44 33 29 29 33 34 32 30 29 31 28 25 28 26 23 25 29 27 27 26 24 24 23 23 24 24 26 28 28 29 29 27 26 27 28 30 32 34 35 37
40 39 37 34 34 36 39 44 44 42 40 33 33 34 37 32 31 30 29 26 29 27 27 24 22 28 28 29 28 26 26 26 25 24 26 27 28 29 33 36 33 31 30 30 31 34 37 38 38
42 41 40 39 37 38 39 40 43 40 36 40 35 33 37 38 30 30 27 28 29 26 26 26 24 24 24 27 28 28 29 25 25 25 27 28 30 32 36 38 37 33 32 33 34 36 38 38 36
42 41 41 41 40 39 41 40 40 38 35 41 40 35 38 38 29 28 28 27 30 26 25 26 27 26 25 24 25 25 26 27 26 26 28 30 30 31 32 34 35 34 36 35 36 37 37 36 35
43 43 42 41 42 43 43 34 40 41 40 36 42 38 38 34 29 28 30 28 30 26 26 25 26 28 27 25 23 24 24 24 24 26 27 31 33 29 29 28 27 29 32 35 36 37 38 37 35
45 45 44 43 43 45 45 41 41 44 36 40 40 41 39 34 30 28 32 29 29 26 26 25 26 26 24 21 23 23 24 24 25 26 29 30 30 28 26 27 27 30 33 37 39 40 40 38 38
44 46 44 46 43 49 48 44 43 42 42 40 40 44 40 35 30 30 31 30 28 28 28 27 26 25 23 22 24 24 25 27 28 29 32 33 30 27 28 29 31 34 38 40 41 42 42 40 40
49 49 50 49 50 52 53 51 48 45 42 43 44 39 42 36 33 30 29 31 30 30 30 28 25 28 26 25 25 25 27 29 30 33 35 29 27 25 29 34 36 38 40 41 43 44 44 44 42
50 50 48 49 50 52 53 55 55 48 44 45 46 39 42 37 33 31 29 29 31 30 30 28 25 29 30 27 27 27 29 29 32 34 29 27 28 31 33 36 39 41 43 44 45 44 44 45 45
51 50 47 49 46 50 52 54 56 50 47 46 48 42 44 39 35 31 28 29 30 28 29 27 26 26 28 30 29 30 30 31 33 28 28 31 33 36 38 40 42 44 45 45 43 43 43 45 47
52 46 48 48 49 51 50 56 55 52 51 50 45 43 43 39 34 29 28 29 32 31 30 28 26 27 28 29 30 30 30 31 29 29 31 35 37 39 41 43 43 45 44 43 44 45 46 47 50
45 46 48 50 50 53 47 55 51 48 52 52 41 40 41 36 34 30 30 31 30 31 29 28 28 28 30 31 31 30 30 30 31 33 36 38 39 41 43 44 45 43 43 44 46 48 50 52 55
46 46 49 51 50 57 49 51 54 40 47 48 44 44 41 35 32 30 31 30 27 29 27 27 27 29 30 32 32 30 31 32 33 36 38 39 41 44 45 44 43 43 45 46 48 50 53 58 61
44 46 48 51 56 59 51 51 49 43 35 37 46 41 36 33 30 30 29 31 29 28 28 26 27 29 29 31 31 32 33 34 36 37 38 40 43 44 43 42 44 45 47 48 51 54 58 61 64
35 38 46 48 51 52 51 52 43 40 29 37 44 39 37 32 31 28 31 32 30 28 29 27 27 28 29 32 33 34 35 36 36 38 40 41 42 42 42 44 46 47 48 52 55 59 62 65 69
34 41 31 43 47 49 48 50 49 44 37 33 39 37 32 28 29 30 31 30 29 28 28 28 27 28 31 32 34 34 35 36 37 40 41 42 41 42 44 46 47 49 53 55 59 62 66 70 73
32 30 35 41 43 48 50 54 53 45 37 35 30 26 27 29 29 30 28 28 27 26 25 26 26 27 29 31 32 34 35 37 39 41 41 40 42 45 46 47 50 53 56 59 63 66 71 73 74
34 34 37 37 38 43 50 43 42 43 33 31 24 23 24 29 28 27 27 26 24 24 24 23 24 26 27 31 32 35 37 38 40 40 40 42 45 47 48 50 53 56 59 63 67 71 73 71 69
21 23 33 40 43 42 34 23 29 38 24 27 22 26 24 27 27 28 26 24 23 23 23 24 26 28 29 31 34 36 37 37 37 39 42 45 47 48 50 54 57 57 62 67 71 71 69 68 69

GFSSGP_500_spd_027.txt.gz
Wind_Speed
34 32 31 28 24 20 20 20 23 23 23 22 22 23 25 23 23 28 25 25 22 19 20 18 16 16 18 18 19 18 15 13 11 10 11 12 12 13 15 17 19 20 20 21 20 21 21 21 22
35 35 34 32 29 25 23 23 25 24 21 21 25 24 24 23 23 27 28 25 24 22 20 20 19 18 18 18 18 18 15 13 11 11 11 12 12 13 17 18 19 21 22 22 21 21 21 21 21
25 35 38 36 32 26 27 26 26 25 21 21 25 24 23 23 24 25 27 26 24 23 22 21 21 21 20 19 18 17 15 14 12 12 12 13 14 13 17 17 19 19 23 23 22 22 23 23 23
29 28 33 39 33 31 30 31 28 27 22 20 25 27 27 24 25 25 25 25 24 24 23 23 23 23 21 19 17 16 16 14 13 13 14 14 16 15 16 15 16 19 20 22 24 24 25 25 26
34 33 32 31 36 32 33 34 33 30 24 20 26 29 27 26 25 25 24 23 25 25 24 24 24 22 20 19 17 16 16 15 12 14 14 14 16 16 17 19 18 19 19 20 21 24 26 27 29
39 38 36 28 26 38 37 37 34 32 27 24 25 29 29 25 25 25 25 25 26 24 22 22 22 22 21 19 18 16 17 15 14 14 14 15 16 18 18 19 20 22 23 24 25 25 25 26 27
31 33 33 31 28 32 38 39 34 31 29 29 27 28 29 29 27 24 23 23 24 21 19 19 20 21 22 21 19 19 17 15 15 15 16 16 15 17 18 19 21 22 23 25 27 28 29 30 31
31 34 30 26 25 30 33 41 40 35 35 33 30 28 29 30 29 25 23 23 21 19 20 20 21 22 23 23 21 21 18 17 15 14 15 16 16 17 19 19 21 22 22 24 27 28 29 29 30
35 38 29 22 24 24 34 36 40 40 36 34 32 31 29 30 32 29 23 20 21 21 21 20 21 23 24 22 21 22 20 19 18 16 15 14 15 15 15 16 17 18 20 22 23 24 24 24 26
39 36 28 25 25 26 36 41 40 42 40 36 34 32 30 32 32 30 23 21 22 23 22 21 22 23 24 25 23 24 22 22 20 19 17 17 18 17 17 18 19 21 22 22 23 24 25 26 28
40 36 32 28 27 30 36 43 43 41 42 35 34 36 33 34 33 29 26 25 24 24 22 24 25 23 24 28 25 25 25 23 23 21 20 21 23 24 25 28 29 29 29 28 28 28 29 30 32
46 40 36 32 31 32 35 42 42 42 39 40 37 38 36 34 32 30 28 29 27 26 24 27 27 26 24 25 27 27 26 24 24 24 24 25 27 27 29 32 33 35 35 34 33 29 30 32 34
52 45 43 41 37 35 36 40 42 37 40 39 42 38 37 36 31 30 30 30 25 24 30 30 27 25 25 25 28 27 26 25 26 24 25 27 25 26 30 33 35 36 37 38 33 31 32 35 36
51 51 47 43 41 39 39 37 42 37 39 39 39 41 39 39 33 33 31 28 22 27 30 28 28 26 25 25 27 26 26 27 26 26 26 26 26 27 30 31 33 34 36 38 34 31 33 34 36
40 48 50 48 44 42 41 40 37 36 41 39 40 40 40 41 39 33 29 27 26 27 29 29 29 28 26 25 24 23 25 26 27 28 25 25 26 27 30 34 34 34 33 30 31 33 34 35 37
41 44 46 45 44 44 43 37 37 38 40 41 39 39 42 41 40 34 29 30 29 25 27 30 28 28 28 26 23 24 26 27 26 26 24 26 27 29 32 32 31 29 27 29 30 32 35 39 40
44 42 44 46 46 47 46 40 36 39 41 39 39 40 40 46 42 34 30 32 30 28 28 29 29 26 28 25 25 26 27 27 26 24 26 27 29 32 34 32 29 30 30 32 34 37 40 40 42
43 45 46 48 48 48 47 46 45 42 44 43 36 37 43 46 42 35 34 34 31 29 29 29 27 24 26 26 27 27 26 26 25 26 27 30 31 34 33 28 27 30 33 36 37 38 41 42 44
50 52 52 52 51 50 52 52 50 48 46 45 42 41 41 44 43 39 35 33 31 30 31 29 28 24 25 28 29 28 25 26 27 28 29 32 34 33 29 29 31 33 36 39 41 44 47 47 46
49 52 55 55 52 55 53 54 52 50 47 46 43 41 44 44 41 41 36 31 33 31 32 30 27 26 26 28 33 30 27 28 29 28 30 32 33 30 30 32 36 38 40 42 44 47 48 48 44
48 50 52 54 52 56 58 56 55 52 51 50 47 42 44 44 41 44 37 32 34 31 32 31 29 27 26 26 31 32 32 30 30 30 32 33 31 30 32 36 39 41 43 46 48 49 47 44 44
47 50 54 55 56 57 57 59 53 53 50 48 49 47 45 44 41 40 40 32 34 32 30 31 29 26 26 26 27 29 31 31 31 33 33 34 32 33 37 39 41 43 46 48 49 47 44 45 47
52 51 55 56 57 58 55 62 54 51 48 45 46 47 48 47 41 37 38 33 35 33 30 31 30 27 27 27 27 28 30 32 33 35 36 36 35 38 40 41 43 46 48 50 48 47 47 49 50
50 51 52 53 57 66 60 62 58 49 45 45 46 45 46 47 40 38 39 36 33 33 30 30 30 28 26 28 29 30 33 34 35 35 38 38 40 41 41 43 46 47 48 47 47 49 51 52 55
48 47 50 52 56 65 61 60 59 51 43 47 43 47 46 46 41 37 37 34 30 33 30 30 30 27 26 29 29 29 31 33 34 37 39 41 41 41 43 46 47 47 47 47 49 50 53 57 61
42 41 48 52 56 58 53 57 51 43 41 45 41 42 44 47 41 36 37 33 34 34 32 30 29 27 26 28 28 29 31 33 36 39 41 41 42 44 46 47 46 47 48 50 51 53 57 61 66
38 39 32 41 44 49 51 52 50 44 40 40 42 36 39 41 39 38 36 33 34 33 33 31 29 28 27 28 30 31 33 34 37 38 39 41 44 46 46 46 47 48 49 51 54 57 62 66 67
36 35 36 37 38 42 41 47 46 39 37 33 32 34 35 37 37 37 38 35 33 32 33 31 29 28 28 29 31 32 33 34 35 37 40 43 45 45 46 47 48 50 52 55 58 62 64 66 70
36 45 44 40 41 44 40 46 36 41 35 30 33 24 30 30 35 38 37 34 33 32 31 30 28 27 28 29 29 31 33 34 36 39 41 43 44 46 47 48 50 52 55 58 61 61 66 69 72
31 31 35 34 33 34 36 46 38 40 32 32 33 27 32 35 39 39 35 33 30 29 30 28 27 27 26 28 30 31 34 35 37 39 41 43 45 45 48 50 52 55 58 58 62 65 69 72 68

GFSSGP_500_spd_030.txt.gz
Wind_Speed
33 35 32 30 28 26 24 22 23 21 21 22 23 24 25 24 23 24 21 22 20 19 18 18 17 17 16 16 16 16 17 17 16 14 12 11 11 11 11 12 14 16 17 20 21 21 20 21 22
25 33 35 33 31 28 26 25 25 22 19 20 22 24 24 26 23 22 23 23 22 20 18 18 19 19 18 17 17 17 17 16 15 14 12 11 11 10 11 12 14 17 18 21 22 22 21 21 21
24 26 33 37 34 27 28 27 27 26 22 19 20 23 24 24 24 24 23 23 24 23 21 19 19 21 21 20 19 18 17 15 14 13 13 12 12 11 11 13 14 17 18 19 22 23 23 22 23
28 27 27 31 33 30 29 31 29 30 27 21 21 22 23 23 24 26 27 27 26 23 22 20 22 22 22 21 20 18 17 14 13 14 14 13 13 12 13 15 14 15 16 15 17 20 22 24 25
35 32 32 25 21 28 33 34 32 31 29 25 23 23 23 24 25 27 27 28 26 23 23 23 23 24 23 21 19 18 17 15 14 15 14 13 15 13 14 15 16 18 21 20 20 21 21 21 23
40 36 36 29 23 26 32 38 35 32 32 29 28 27 25 24 26 27 27 27 26 25 24 23 23 23 22 20 19 19 17 16 16 16 14 13 14 14 14 14 16 18 20 22 24 26 26 26 28
40 39 37 33 29 32 30 35 38 36 34 33 33 29 25 26 26 26 26 24 24 25 23 22 21 21 22 21 20 20 19 19 17 16 14 14 14 15 16 15 16 17 20 21 23 24 26 27 29
39 39 35 25 22 29 34 35 35 38 38 37 36 33 27 27 28 28 26 25 22 21 22 22 21 21 22 22 22 22 21 21 19 16 14 13 13 14 16 15 17 16 18 19 20 22 24 24 25
36 38 28 21 21 20 32 37 40 36 38 42 38 35 32 30 30 30 27 24 23 20 21 22 23 21 20 22 21 22 22 23 21 18 17 15 13 11 13 15 15 14 16 17 19 21 23 24 24
35 35 27 23 24 26 31 36 40 41 38 41 41 37 37 36 33 31 28 24 23 23 22 22 23 21 21 22 22 23 23 23 22 21 21 18 17 15 18 19 19 21 23 26 26 26 27 27 28
36 37 33 28 28 32 34 37 41 41 38 38 42 42 40 39 35 31 29 27 26 26 23 25 25 24 25 24 22 23 24 24 25 24 23 22 19 20 22 24 26 27 30 33 35 36 36 35 34
41 41 38 34 33 35 36 37 41 39 34 40 40 42 42 40 37 32 30 28 30 29 26 25 24 27 26 24 22 21 25 24 25 25 25 23 23 23 25 26 28 30 33 36 38 38 36 34 33
35 42 45 43 40 38 38 35 36 37 34 37 40 40 41 41 39 34 31 30 30 28 29 29 29 31 29 26 23 22 23 24 24 27 27 24 24 25 26 27 29 31 33 33 33 32 33 32 32
33 35 38 47 47 44 44 41 42 32 35 38 37 38 38 42 40 39 34 31 30 26 27 31 33 33 31 28 26 22 21 21 23 26 27 26 25 25 25 28 28 29 33 34 33 31 29 29 31
31 36 38 37 40 49 50 48 42 35 38 38 39 36 38 37 41 40 39 33 28 27 31 30 33 33 31 29 26 23 20 21 23 24 26 28 25 24 26 28 29 31 33 31 30 29 29 31 33
35 36 37 37 38 44 53 49 43 40 41 41 41 39 36 37 37 42 42 36 30 27 32 31 30 31 31 30 27 23 22 22 22 25 26 27 26 25 27 28 31 33 33 30 30 31 31 33 36
36 36 37 41 41 43 50 55 49 46 44 43 41 40 35 33 36 40 44 41 34 30 30 32 30 31 30 29 27 24 24 24 24 26 27 27 27 27 29 31 34 34 30 28 30 32 35 35 38
39 41 42 44 46 48 49 52 52 49 46 44 43 40 35 34 33 38 44 42 37 35 31 29 33 29 29 28 28 26 26 26 26 27 26 28 28 30 32 34 36 33 31 32 33 35 37 38 41
43 44 45 45 49 52 52 52 51 51 51 46 42 40 38 33 35 40 42 41 40 37 32 31 33 31 27 27 28 28 30 29 27 26 28 29 30 32 33 35 34 32 33 36 37 39 40 41 43
45 47 48 46 46 53 54 55 53 52 52 49 46 44 39 36 37 38 38 38 42 38 35 32 33 33 27 27 28 28 31 30 28 28 29 30 32 32 33 34 33 34 36 38 40 41 43 45 46
48 49 50 50 49 50 54 54 56 51 52 51 48 45 43 39 41 42 38 36 39 40 35 35 33 33 30 28 28 27 28 30 33 31 31 32 33 33 34 35 36 37 39 41 43 44 46 48 49
52 51 52 53 52 50 51 55 54 56 53 51 49 48 46 42 41 42 40 36 36 40 38 35 33 33 33 29 27 27 28 29 32 33 34 34 34 35 37 39 40 40 43 44 45 47 49 48 47
52 52 54 55 56 55 53 58 51 50 52 50 49 51 49 46 43 42 39 38 36 41 39 36 34 33 32 29 27 27 27 27 29 31 33 34 35 37 40 42 43 44 45 45 48 49 49 47 48
54 55 57 57 58 62 59 61 53 44 43 46 49 49 49 46 44 41 39 38 37 39 37 36 36 33 31 29 28 29 28 28 30 31 34 35 37 39 42 44 44 45 46 48 50 49 49 49 51
52 53 54 58 61 66 66 65 54 50 43 43 46 48 46 47 45 42 39 37 37 38 36 36 37 34 32 30 30 30 28 28 30 33 34 35 38 42 43 44 44 46 48 49 50 50 51 52 54
51 43 45 51 56 59 60 68 60 51 52 47 43 44 48 45 42 41 39 39 41 39 38 38 36 35 32 31 29 29 28 29 31 33 35 38 41 43 43 43 45 47 49 49 50 51 53 55 58
36 45 41 42 45 48 52 60 63 61 50 44 46 42 47 45 41 40 39 39 41 40 39 38 36 35 30 31 30 30 28 30 34 35 37 40 40 40 42 44 47 48 49 50 51 53 56 59 62
28 30 35 45 45 48 46 43 47 51 43 38 38 45 48 45 40 37 39 39 37 39 39 38 36 35 32 32 32 32 31 32 35 36 36 37 39 41 43 46 47 49 50 51 53 56 60 62 62
35 35 35 37 45 50 48 45 32 36 33 39 36 43 39 45 34 36 40 40 38 41 40 37 36 33 33 32 33 33 33 32 32 33 35 37 40 42 45 47 48 49 51 54 57 59 60 62 65
31 38 40 41 42 45 46 34 32 32 30 36 38 44 33 35 34 35 40 39 41 40 38 37 35 33 33 32 33 33 31 31 32 34 36 38 41 44 46 47 48 51 54 57 57 60 61 66 69

GFSSGP_500_spd_033.txt.gz
Wind_Speed
27 31 32 32 30 28 25 24 23 19 19 17 18 22 24 24 23 21 18 18 17 17 17 17 18 17 16 15 15 14 14 14 14 12 11 11 10 8 7 8 9 10 13 15 16 17 20 21 20
24 27 33 35 33 29 27 26 25 22 19 17 16 19 23 25 23 22 20 20 18 17 18 17 18 18 17 16 16 16 16 14 13 13 11 11 11 10 10 10 10 11 12 14 15 19 20 21 22
25 25 28 32 34 28 28 28 28 26 22 19 17 18 20 23 23 22 21 23 22 20 20 20 19 18 17 17 18 18 17 15 14 12 12 11 11 12 12 12 12 12 13 14 16 17 18 20 22
30 29 27 27 22 29 30 33 30 29 27 23 20 20 19 20 23 24 24 25 24 25 24 22 20 19 19 19 20 19 19 16 15 13 12 12 12 12 14 13 15 15 14 14 13 14 14 15 18
35 33 33 26 17 18 26 36 32 31 30 27 24 23 22 21 22 24 25 23 25 26 25 24 24 22 21 20 20 20 19 17 16 14 13 13 13 14 13 14 15 15 15 18 18 20 21 21 23
35 35 36 29 21 23 26 30 33 35 33 32 30 28 23 21 21 23 26 26 27 26 24 25 26 23 22 21 19 20 19 18 17 16 14 14 15 14 13 14 14 14 14 16 17 18 20 21 23
34 36 37 32 25 28 30 33 30 33 36 34 33 31 28 24 23 24 27 26 25 25 25 25 24 23 23 21 20 20 21 19 19 17 16 15 15 14 15 15 15 16 16 17 17 19 20 22 23
34 35 36 32 26 27 34 37 35 33 32 37 37 34 31 29 28 26 26 26 24 23 23 24 23 23 22 20 20 21 22 22 21 20 18 16 14 13 14 15 16 16 15 15 14 16 18 18 19
33 33 29 25 26 25 33 38 39 38 36 35 37 38 36 33 32 30 29 28 25 23 23 23 23 23 23 22 20 20 22 23 23 22 22 19 16 15 14 14 15 15 15 16 17 19 21 23 24
32 31 23 23 27 28 31 36 38 38 37 38 37 36 38 38 36 34 32 29 27 26 24 24 25 25 23 23 21 19 21 23 23 24 23 22 20 19 19 19 18 19 21 24 25 27 30 32 33
29 27 27 25 28 29 30 35 38 37 34 32 37 37 36 39 38 35 33 31 31 28 28 28 28 26 25 25 23 21 20 23 25 25 25 24 23 22 23 21 21 22 25 28 29 31 33 34 35
25 25 27 28 30 31 30 34 39 39 31 32 34 36 38 37 39 39 34 33 32 29 30 31 30 29 28 27 26 23 21 21 27 26 26 26 24 24 24 23 22 25 27 28 29 31 31 30 31
23 23 25 30 33 33 34 32 36 40 35 34 32 34 35 38 37 38 38 35 31 30 31 33 33 33 31 30 29 26 23 23 25 27 27 27 25 23 23 23 23 25 26 28 28 30 30 31 26
24 24 26 25 27 33 39 38 44 36 37 34 35 34 32 33 36 36 37 36 33 32 32 32 32 33 34 33 34 29 24 23 24 27 27 27 27 25 24 24 25 26 27 28 29 32 30 28 26
26 28 27 26 27 27 33 39 46 40 44 42 38 36 36 31 32 34 36 37 37 32 33 32 32 33 34 36 36 31 26 24 25 26 26 27 26 25 25 26 26 27 28 29 32 32 30 29 29
28 28 27 28 30 30 31 32 38 47 47 45 44 41 40 35 33 32 34 37 40 36 32 33 37 34 34 35 35 31 26 26 27 26 25 26 25 24 25 27 28 29 30 32 34 32 29 30 31
25 28 29 32 33 34 33 35 33 43 50 49 47 46 42 39 35 35 36 38 39 40 34 33 36 35 35 34 33 29 27 28 28 28 28 27 25 24 26 28 29 31 33 34 37 33 31 32 34
28 29 31 33 34 38 37 40 34 40 47 53 53 49 42 40 36 35 36 40 39 35 40 36 34 34 35 36 34 29 29 28 30 30 30 28 26 27 28 29 31 33 35 37 35 32 34 35 38
32 35 39 42 43 42 43 46 44 38 44 49 54 52 47 41 42 37 37 39 39 35 37 39 36 34 35 37 35 31 31 31 30 32 31 28 28 29 30 31 33 34 35 36 34 34 36 37 39
38 42 45 47 47 51 50 53 49 44 40 48 51 53 49 44 43 39 36 39 40 35 32 39 37 36 35 34 36 31 32 31 30 32 31 30 31 31 32 33 34 36 36 35 36 38 40 41 41
44 46 48 50 51 53 55 55 50 46 44 45 51 50 48 48 44 41 38 39 41 34 33 39 40 38 35 34 34 30 32 31 29 30 34 35 34 34 34 35 37 37 37 38 40 42 44 44 44
46 47 49 52 55 56 55 60 51 47 45 46 50 49 46 47 45 42 41 43 42 36 36 39 41 39 35 33 32 32 32 33 30 30 33 36 37 37 37 38 38 38 39 42 44 45 46 46 49
48 50 53 55 57 58 56 60 53 48 41 41 47 50 48 46 46 43 39 42 40 37 38 39 40 40 36 34 31 32 33 33 30 31 32 34 37 38 40 39 39 40 42 45 46 46 46 49 51
50 52 55 57 58 64 58 62 52 50 44 39 42 48 53 50 47 46 43 45 41 38 40 39 38 39 37 34 32 34 34 33 31 32 32 34 36 38 39 39 40 42 45 46 47 47 50 52 52
46 43 48 55 60 65 62 66 53 51 52 45 44 44 53 55 51 49 47 45 42 38 40 39 38 38 37 35 34 34 35 33 32 32 34 35 37 38 39 40 42 44 45 46 47 50 52 52 53
34 34 36 40 47 55 57 66 58 56 58 54 47 47 51 55 53 49 47 47 41 39 40 41 40 38 37 35 34 35 34 33 32 33 33 34 36 38 39 41 42 43 45 47 50 51 53 54 55
30 39 40 48 47 50 46 42 53 55 56 57 51 46 43 51 52 50 46 43 40 39 41 41 40 39 38 35 35 35 33 32 33 34 35 36 36 38 39 39 40 43 46 49 51 53 54 56 57
38 36 40 44 50 54 55 49 36 33 40 38 44 46 48 42 50 48 47 40 39 40 42 43 41 40 40 37 35 34 33 32 34 35 37 38 37 36 37 38 41 45 48 50 53 54 55 57 59
34 36 40 40 42 47 48 35 35 27 31 28 27 35 45 51 48 46 44 41 37 40 43 45 41 40 40 36 34 34 34 34 35 37 37 36 35 35 37 40 43 47 49 51 53 55 58 59 59
34 33 34 41 39 49 42 31 23 19 27 36 28 36 43 48 49 45 44 39 36 40 43 44 41 39 39 36 35 36 36 35 35 37 35 35 35 37 39 42 46 48 50 52 54 57 57 58 62

GFSSGP_500_spd_036.txt.gz
Wind_Speed
24 26 27 29 29 28 27 25 24 22 21 18 17 18 20 22 23 24 19 20 19 19 19 20 19 18 19 20 18 16 15 15 14 13 11 11 12 13 13 13 12 12 13 14 16 16 18 19 20
23 24 26 29 31 29 28 29 29 26 23 21 19 18 19 23 22 23 22 21 19 20 19 19 20 20 20 20 19 17 17 16 16 14 13 12 12 12 12 12 12 13 14 14 16 18 19 21 23
23 23 25 26 28 28 30 32 32 30 27 24 21 20 21 20 20 21 22 22 22 21 21 20 20 20 20 20 19 18 18 18 17 16 14 13 13 13 13 14 14 15 15 17 17 18 19 19 20
25 27 28 27 19 23 30 36 35 33 31 27 23 23 22 21 21 21 21 23 23 20 22 23 22 22 23 22 21 20 19 19 18 16 15 14 13 13 14 15 16 17 17 17 17 16 16 16 16
30 30 31 27 19 20 26 32 36 35 34 31 28 27 25 25 22 22 22 23 23 22 22 24 23 24 24 24 22 20 20 20 19 18 17 16 15 15 15 16 16 17 17 17 19 19 21 22 22
34 32 33 27 23 23 26 29 30 34 36 34 32 30 27 25 23 22 22 24 25 23 24 25 24 24 24 24 22 21 21 20 20 19 19 18 17 16 16 16 16 15 15 16 17 17 18 18 19
35 32 33 30 27 30 29 32 29 31 31 36 35 33 31 28 27 25 24 24 26 26 24 26 26 26 25 23 21 22 22 22 21 22 21 19 18 17 17 17 16 17 17 16 18 18 19 19 19
34 33 34 29 27 29 34 36 35 33 35 33 35 38 37 32 30 29 28 28 28 27 25 24 26 27 25 23 21 21 22 21 22 23 23 21 19 18 18 18 17 17 17 17 17 17 17 17 17
35 34 31 25 27 30 35 39 40 38 37 37 35 33 36 35 34 34 32 31 29 28 27 26 27 27 25 25 23 22 22 22 23 24 24 23 22 20 19 19 16 16 16 17 18 19 20 23 25
34 31 25 23 25 32 37 41 40 39 36 37 37 35 32 34 38 37 36 34 32 31 28 28 27 28 28 28 26 24 22 21 22 24 25 25 25 24 22 21 19 19 19 20 21 24 26 27 30
33 30 28 25 27 30 34 36 38 35 33 31 35 38 36 35 34 37 39 36 36 33 31 31 30 31 31 30 29 26 24 22 21 23 25 26 27 27 25 23 23 22 23 22 24 26 27 29 29
33 30 27 25 27 30 31 33 34 35 29 33 33 32 32 33 35 34 37 40 38 35 32 32 32 34 33 32 32 28 26 24 22 23 27 28 29 28 27 26 26 25 24 24 26 26 28 27 28
32 28 26 25 26 27 30 31 33 37 33 34 34 32 31 31 33 34 35 37 38 36 35 32 33 32 35 36 34 31 29 26 24 25 27 31 30 29 28 27 27 26 25 26 27 28 28 28 31
31 27 25 25 25 27 29 32 36 34 34 37 37 35 34 33 31 32 31 34 36 39 37 35 33 33 33 35 36 35 32 30 27 27 29 32 33 29 29 28 28 27 27 27 29 30 30 31 31
31 28 27 25 25 25 27 27 27 35 41 43 42 38 35 34 33 31 31 32 35 39 41 37 36 36 34 35 36 36 35 34 29 29 31 32 33 30 29 29 29 29 28 30 30 31 31 32 33
33 30 28 27 27 28 29 25 27 31 35 41 49 47 42 40 37 33 33 33 36 37 39 42 38 36 36 36 36 35 35 34 33 31 32 33 33 31 29 29 29 29 30 31 31 32 33 35 37
30 29 28 29 30 29 29 30 26 30 31 34 39 47 50 47 44 40 35 36 38 40 41 43 41 38 38 38 37 36 35 32 34 34 32 34 34 32 30 29 30 30 31 32 32 33 35 38 36
28 27 26 25 27 27 29 33 31 31 32 32 35 39 45 50 48 44 39 37 39 41 42 42 43 40 41 39 36 35 36 33 35 36 33 35 36 35 31 32 32 32 32 33 33 35 36 36 34
25 27 30 31 32 34 36 40 39 38 37 37 38 39 45 49 50 48 44 39 39 40 42 41 42 42 43 40 37 35 34 37 36 37 35 36 37 37 35 34 34 34 33 35 36 37 37 36 35
27 29 32 36 39 43 43 43 45 47 46 45 44 44 45 48 51 53 50 44 40 40 43 41 39 43 45 41 38 36 35 38 38 35 34 34 36 37 37 36 35 35 35 37 39 40 39 39 38
30 33 37 41 45 48 52 51 54 56 54 50 48 46 47 50 50 51 53 50 42 41 42 41 40 41 47 44 40 38 38 36 36 36 34 34 37 39 40 39 37 37 38 40 42 42 42 42 43
35 38 43 47 51 53 54 63 57 56 55 53 51 49 49 50 53 51 52 53 44 41 44 42 37 39 45 44 41 38 38 37 37 36 36 36 36 38 40 40 40 41 43 43 44 44 45 46 47
39 43 45 49 52 56 57 63 57 57 54 51 51 52 50 53 52 52 51 54 48 44 44 44 37 37 44 43 42 40 37 36 37 37 34 35 38 38 39 39 41 42 44 45 46 47 47 48 49
41 43 45 49 52 57 55 61 55 56 57 57 54 52 51 53 53 53 52 53 50 48 46 44 37 40 44 43 43 40 37 37 38 34 33 37 38 38 38 40 41 42 43 45 47 47 48 48 50
39 42 46 47 50 54 47 50 57 51 60 61 63 58 56 53 53 52 53 52 50 47 45 41 39 40 41 41 41 40 39 38 37 35 35 36 38 39 41 42 42 43 44 45 46 47 48 49 52
36 38 37 42 42 43 50 39 34 32 44 40 64 65 58 53 52 51 54 53 51 48 47 40 40 40 40 39 39 39 39 38 36 37 37 38 38 40 41 42 42 42 43 44 45 47 49 52 53
33 34 36 40 45 46 47 43 39 34 38 43 36 44 50 52 50 50 51 55 52 49 46 40 42 42 41 40 38 39 39 36 36 37 37 37 37 38 41 43 43 42 43 43 45 48 52 53 55
32 32 36 39 44 49 50 48 46 40 39 46 34 26 33 50 49 48 48 51 52 49 45 41 42 43 43 42 40 41 39 36 36 37 37 38 37 38 39 41 41 41 42 44 47 50 53 55 56
30 31 36 41 43 47 55 58 53 42 33 33 33 32 29 41 46 47 44 45 51 47 44 41 42 43 43 41 40 40 38 36 35 36 38 38 39 39 40 40 40 41 43 46 49 52 54 55 57
30 33 37 43 44 49 52 49 41 34 26 23 23 31 34 37 46 46 41 44 44 43 41 41 42 43 44 42 41 41 38 36 36 38 38 39 40 41 40 39 40 42 45 49 51 53 54 56 59

GFSSGP_500_spd_039.txt.gz
Wind_Speed
28 28 29 29 30 29 27 27 25 23 23 22 18 19 21 21 25 24 23 21 22 22 21 20 20 21 22 23 23 23 22 21 19 17 17 16 17 16 16 15 15 16 16 16 16 16 17 18 19
26 27 28 29 30 28 25 29 28 28 26 23 22 21 20 24 23 23 23 21 22 23 23 23 21 21 21 22 22 22 22 21 20 18 17 16 16 17 17 17 17 17 16 16 17 18 18 19 20
26 26 27 28 27 25 26 35 32 30 29 27 25 23 25 27 22 22 21 22 22 23 24 23 21 22 22 22 23 23 23 21 20 19 18 18 17 17 17 17 17 17 17 18 18 18 19 20 19
28 28 28 27 22 20 27 34 36 32 32 30 28 26 26 24 24 23 23 23 22 23 23 26 25 22 21 24 24 24 24 23 22 21 20 19 18 18 17 18 18 18 19 18 18 18 19 19 18
32 31 31 27 21 23 25 29 29 33 36 33 31 31 30 27 24 23 23 23 23 23 22 25 25 26 24 23 25 25 25 24 24 23 21 20 19 18 17 18 18 18 19 19 19 19 21 22 22
36 34 33 28 22 25 27 28 28 29 33 35 32 34 32 28 29 25 24 24 25 25 23 23 25 25 26 27 23 24 26 25 24 23 22 21 20 19 19 19 18 18 18 18 18 18 18 19 19
39 37 35 32 26 30 28 33 30 29 30 30 35 33 38 34 30 29 28 27 27 27 27 26 25 25 27 27 26 25 25 24 23 23 23 23 22 21 21 20 20 19 18 18 18 19 19 20 20
39 41 37 35 27 28 32 38 34 34 30 35 27 29 37 39 35 34 31 30 30 29 29 28 27 27 27 27 27 25 24 24 23 22 23 23 24 23 21 21 20 20 19 19 20 19 19 19 19
38 44 39 34 27 29 39 36 39 39 35 33 33 33 34 31 35 36 35 33 33 32 30 29 29 27 28 27 27 27 26 24 24 22 23 24 25 25 24 22 21 20 20 19 19 19 20 21 22
37 41 39 32 31 35 38 37 41 41 37 38 35 37 37 35 33 36 37 36 36 34 33 31 31 30 30 28 29 29 27 26 25 23 23 24 25 27 26 24 23 22 23 21 21 22 23 25 26
35 41 37 36 31 35 37 33 42 40 41 37 35 38 39 37 35 33 34 39 39 38 35 33 33 32 33 32 31 31 30 28 26 24 24 24 26 27 28 27 27 26 26 26 26 25 26 27 27
36 37 40 35 33 35 35 34 40 35 38 37 38 35 27 31 35 35 35 35 35 39 39 36 35 34 33 34 33 34 33 30 29 26 26 26 27 29 30 29 29 29 30 29 30 29 28 28 28
37 38 39 36 33 32 35 34 33 36 37 34 34 32 30 31 31 30 30 33 35 35 37 40 39 37 36 33 34 35 35 32 30 29 29 29 28 30 32 30 31 32 33 31 30 30 30 29 30
39 39 38 35 33 34 34 33 34 34 32 35 36 34 31 32 32 32 32 32 33 34 36 39 41 39 39 36 36 36 35 34 32 31 30 31 30 31 32 32 32 34 34 33 32 31 31 32 32
40 39 39 36 34 33 33 31 31 32 34 34 35 35 36 35 35 35 34 32 32 34 36 38 39 41 39 39 39 37 36 35 33 34 34 33 34 33 33 33 33 34 35 35 34 33 33 33 33
41 40 40 39 35 33 33 29 32 31 33 34 37 37 38 39 38 36 35 34 34 35 36 37 37 38 42 41 40 39 38 37 34 35 35 34 36 36 33 34 34 33 34 35 35 35 34 34 34
42 40 40 40 37 37 35 32 32 30 31 32 35 37 38 33 35 41 40 39 36 36 37 39 39 39 42 43 41 40 39 36 34 34 34 35 36 37 36 35 36 35 35 35 35 35 35 36 36
41 43 41 40 38 35 35 35 33 33 33 34 33 34 35 36 35 37 43 45 44 41 39 40 40 42 42 44 43 42 42 36 35 36 36 36 38 38 37 39 38 37 36 37 37 37 36 37 37
37 36 35 34 34 34 35 35 35 35 34 34 35 37 38 39 40 42 41 44 47 45 42 42 43 43 44 43 45 46 44 39 35 38 39 38 36 38 38 41 39 40 40 39 39 39 38 38 40
30 30 31 31 33 35 35 34 38 38 39 41 42 42 42 43 45 46 47 46 46 48 45 43 44 45 45 44 46 49 48 40 39 39 38 38 38 36 37 39 40 42 42 41 41 40 40 41 42
26 28 30 33 35 37 41 39 43 44 45 45 48 50 51 49 48 49 51 50 49 48 50 44 45 45 45 45 46 50 47 41 42 39 38 39 40 39 38 38 39 42 42 44 44 43 44 44 45
27 30 32 36 40 42 43 48 46 47 51 54 57 55 56 57 56 53 53 53 54 51 51 50 47 47 47 45 45 46 46 46 42 41 41 40 41 41 40 38 38 40 43 44 46 47 47 47 47
30 32 36 40 44 47 47 55 47 54 57 58 61 62 61 61 60 61 57 56 55 54 52 54 49 50 50 42 41 45 46 43 42 41 42 42 42 40 39 38 39 41 42 44 45 46 47 47 47
32 36 39 43 47 51 52 55 51 53 53 56 61 64 64 62 60 61 59 56 57 56 54 52 52 49 51 42 40 45 44 39 40 42 43 42 40 41 39 40 41 42 43 45 46 47 47 47 47
35 35 39 43 46 48 50 55 50 46 42 48 44 49 56 64 64 62 61 56 57 56 54 52 53 49 48 44 42 44 43 41 41 42 43 40 39 40 40 40 42 44 45 46 47 47 47 47 47
32 35 35 43 46 49 53 55 45 34 37 44 46 45 49 47 49 57 62 60 55 55 53 53 53 50 48 44 42 44 42 42 41 42 41 40 40 41 41 41 42 44 45 45 46 47 47 48 48
31 34 37 42 44 49 50 45 45 47 47 52 48 52 53 52 53 43 53 61 54 53 52 52 51 49 46 45 44 41 43 41 41 42 40 39 38 38 40 41 42 43 43 44 45 46 47 47 48
33 32 34 35 42 46 47 51 53 54 55 55 49 47 51 56 51 51 39 58 53 51 52 52 51 48 45 45 42 42 44 42 40 40 39 39 39 39 40 41 41 42 43 44 46 45 46 48 51
30 31 31 37 45 48 52 51 52 57 53 50 48 44 42 40 42 47 44 55 50 51 51 52 49 46 44 44 43 44 44 43 40 40 39 40 39 39 40 41 42 43 45 45 45 46 48 51 54
30 27 34 40 39 46 51 42 44 35 33 37 35 41 37 37 39 36 45 51 48 49 47 52 48 44 43 44 46 45 44 41 39 40 39 40 40 41 40 42 42 44 46 45 46 47 50 53 56

GFSSGP_500_spd_042.txt.gz
Wind_Speed
34 34 33 33 33 31 25 22 25 22 21 20 20 16 16 22 27 25 25 23 23 23 23 23 21 21 22 23 23 24 25 25 24 23 22 21 19 19 19 18 18 18 18 17 17 16 17 16 17
34 33 33 34 32 29 23 24 31 26 28 20 21 20 19 27 22 25 21 20 21 22 24 24 23 22 22 23 24 24 23 25 26 25 24 23 21 19 19 19 19 19 18 18 18 18 18 18 17
33 32 32 32 29 25 22 27 34 31 26 27 24 22 24 31 22 22 22 21 21 22 23 25 24 24 24 24 24 23 23 24 25 25 25 24 22 21 20 20 19 19 19 19 19 19 18 18 18
32 33 32 30 24 20 23 32 34 27 29 28 28 25 29 28 24 21 26 23 22 21 22 24 26 26 25 24 24 25 25 25 24 24 25 25 23 22 21 20 20 20 21 20 20 19 19 19 19
35 33 32 30 21 20 23 30 29 24 30 28 28 28 34 27 24 24 26 25 24 21 23 24 26 27 28 27 25 25 26 26 26 26 26 26 25 24 22 21 21 21 21 20 20 21 20 20 21
37 35 34 30 20 22 25 28 30 24 27 28 27 31 37 27 29 27 27 27 27 24 24 25 25 26 27 27 27 27 26 27 28 27 27 26 25 25 24 22 21 21 21 20 19 19 19 18 19
37 35 35 32 26 26 26 30 30 27 28 24 27 30 36 35 29 29 29 30 29 28 26 28 26 26 27 27 27 28 25 26 27 27 26 26 25 24 24 23 21 21 21 20 19 19 19 19 20
37 38 38 37 31 25 27 33 39 31 27 29 26 19 34 36 28 33 32 30 31 30 28 28 28 27 27 28 27 26 27 26 26 25 25 25 25 24 24 23 22 21 21 21 21 21 21 20 20
40 41 39 35 34 26 30 38 44 29 34 32 28 24 34 33 21 28 33 33 34 32 33 29 29 29 28 28 28 27 26 26 26 26 24 23 24 24 25 25 24 22 21 21 21 22 22 20 20
42 41 38 35 34 34 38 42 42 30 37 35 33 32 34 34 30 28 31 34 35 34 34 34 30 30 30 28 29 29 28 27 26 26 26 25 23 24 26 26 27 26 23 23 23 23 23 23 24
44 42 40 36 35 37 36 40 36 35 41 35 39 37 37 38 33 32 32 33 33 35 37 35 35 31 33 31 32 30 29 29 28 28 27 26 26 25 25 26 27 28 27 27 26 26 27 27 28
43 44 43 38 39 32 35 38 39 38 37 39 42 39 37 30 29 29 31 34 34 34 32 34 36 37 37 34 34 33 31 31 30 29 28 28 28 28 27 27 28 29 31 30 31 31 31 31 31
44 45 43 40 38 30 35 38 37 36 38 37 37 36 34 27 28 32 31 31 33 31 32 32 34 35 37 37 35 35 34 32 32 30 29 29 30 30 30 27 28 30 32 33 33 33 34 33 33
44 44 44 41 35 32 37 37 40 38 35 35 37 34 32 32 31 33 30 28 29 31 31 32 35 35 37 37 37 37 35 34 34 31 31 31 31 31 31 31 29 29 32 33 35 35 34 35 34
41 40 43 44 37 36 37 37 37 37 39 36 34 34 31 33 32 32 31 31 31 33 34 33 34 34 34 36 36 38 38 35 35 34 34 34 34 34 34 32 32 31 31 34 35 36 36 37 37
41 43 44 43 41 38 38 35 35 38 38 34 32 32 32 30 31 32 33 34 33 33 36 37 34 31 32 34 37 38 39 38 34 36 34 36 36 36 35 34 35 33 32 33 35 36 37 37 38
41 42 42 44 43 40 39 38 37 38 35 32 33 33 31 29 28 30 32 34 36 36 37 38 36 29 33 36 36 38 38 39 37 37 34 34 36 36 36 36 36 36 34 34 35 36 37 37 37
37 40 43 43 45 41 42 40 39 37 36 33 34 33 32 31 31 30 30 31 34 37 40 42 41 35 36 37 39 39 39 38 38 38 35 32 37 38 37 36 36 38 37 38 37 38 38 38 38
38 39 38 39 41 41 42 42 41 40 39 35 36 38 37 36 36 35 33 33 33 34 37 42 46 43 40 40 40 40 40 40 37 39 38 33 39 36 38 37 37 36 39 40 41 41 41 41 41
33 32 33 34 37 42 39 41 41 40 39 41 39 40 40 39 39 38 39 39 40 39 40 41 43 49 46 44 42 43 44 39 39 38 39 37 40 37 39 38 37 39 37 41 42 42 42 43 43
28 29 29 31 32 33 38 40 37 38 37 36 38 40 42 44 46 47 47 47 47 46 45 45 45 47 52 46 48 45 43 39 40 40 41 40 39 39 40 38 38 38 36 41 41 42 43 42 45
24 24 24 26 28 30 32 39 34 36 39 41 44 47 51 53 53 53 54 55 55 55 52 50 49 49 52 54 49 47 44 41 41 42 42 40 41 42 41 40 39 39 37 41 42 40 38 43 45
21 20 23 26 29 32 33 39 37 41 43 48 52 56 58 59 60 61 62 63 64 62 60 55 53 52 51 56 50 48 47 40 41 43 42 41 43 44 43 40 40 41 40 41 41 42 45 45 45
20 22 25 28 32 36 38 43 38 45 49 53 56 59 59 60 61 62 61 61 59 60 62 60 57 54 52 53 52 50 48 44 41 44 42 41 43 44 42 40 39 40 41 41 41 42 44 46 46
22 24 29 33 36 37 44 47 44 46 49 50 52 51 52 56 57 54 48 48 54 59 55 59 59 57 53 51 51 50 50 46 43 41 44 42 42 42 43 39 39 42 39 41 41 42 43 45 46
24 27 28 35 39 41 44 46 46 48 50 47 47 46 49 50 51 49 49 43 37 37 54 55 57 59 52 49 50 50 47 48 43 40 44 42 42 41 42 41 40 40 42 41 41 41 43 44 46
24 27 31 35 37 43 45 45 45 42 42 45 49 52 55 53 52 57 57 53 47 40 37 49 55 56 51 51 51 51 48 46 44 42 43 43 42 41 40 40 40 41 41 41 40 41 43 45 46
28 28 31 33 39 42 43 38 43 46 44 42 45 47 50 51 54 55 55 51 51 51 44 45 51 56 51 52 51 50 46 44 44 43 44 41 43 41 39 39 39 40 42 42 42 43 45 47 48
26 26 29 35 33 35 39 44 42 37 38 43 45 48 49 52 50 47 46 42 48 52 46 40 50 55 51 52 50 45 44 44 45 44 42 41 40 41 39 38 39 40 42 43 43 45 49 49 48
24 26 29 30 30 37 37 36 29 37 41 44 46 48 47 49 49 43 41 37 38 39 42 43 49 51 50 47 42 43 44 44 44 42 40 40 40 40 39 36 39 47 38 43 47 48 53 47 49

GFSSGP_500_spd_045.txt.gz
Wind_Speed
32 33 32 32 31 28 24 22 26 23 22 18 17 14 15 18 21 24 20 21 21 20 22 22 21 20 21 21 22 22 22 22 23 23 23 23 24 23 21 20 19 19 19 18 18 17 18 18 19
36 36 35 36 34 32 24 28 31 29 24 20 18 19 21 26 21 21 18 21 20 19 22 23 23 21 21 22 23 23 23 23 23 24 25 25 25 25 25 23 21 21 20 20 19 19 19 19 19
38 38 37 39 35 28 23 33 33 33 27 25 25 22 28 28 17 19 18 19 20 19 20 21 23 24 25 25 25 26 25 25 25 25 24 25 25 26 26 26 24 23 23 21 21 20 19 19 20
41 40 39 38 30 24 25 33 34 32 24 27 26 27 30 28 20 23 25 19 20 19 19 21 23 24 25 26 26 25 26 27 27 26 26 26 26 27 27 26 26 25 24 23 23 22 20 21 22
42 42 39 34 26 25 26 32 33 29 22 24 27 30 33 31 25 27 29 24 19 21 22 22 22 23 25 26 27 27 26 27 29 28 28 28 27 28 28 27 26 25 24 23 23 23 23 23 23
42 41 37 30 24 26 26 30 29 24 24 26 26 33 34 31 28 27 30 26 24 24 26 25 23 22 23 24 26 26 28 28 28 29 29 28 29 29 28 28 27 25 24 23 23 24 24 22 22
40 39 35 31 27 29 26 28 31 27 25 23 22 29 33 31 28 29 31 30 28 26 27 27 26 25 24 24 24 24 24 26 27 27 27 28 27 27 26 27 27 26 26 25 23 23 22 22 22
38 41 37 35 29 26 25 28 34 30 28 27 27 28 30 25 22 28 31 30 28 28 29 30 29 28 26 25 24 23 24 24 25 26 26 25 25 25 26 24 26 25 25 25 24 23 23 23 23
41 42 37 30 28 23 27 32 37 39 28 29 31 27 30 25 22 22 24 27 29 29 30 31 30 29 29 28 28 28 26 25 24 24 25 25 25 24 24 24 24 25 24 25 23 23 24 23 22
43 41 35 31 30 30 33 37 40 40 29 26 34 29 30 32 26 23 25 28 26 26 28 30 31 31 31 30 30 30 29 28 27 25 24 25 25 25 24 23 24 25 26 25 24 23 23 24 25
44 41 38 36 36 36 35 37 41 40 33 28 33 32 35 35 33 28 26 28 28 29 27 26 27 30 31 31 31 31 30 30 30 29 27 24 25 26 26 25 25 25 26 28 27 27 27 27 28
45 43 43 39 40 39 35 35 39 38 34 35 34 40 33 33 34 29 26 27 30 30 30 28 26 27 28 31 32 34 33 33 32 31 30 28 26 26 27 27 27 27 26 28 28 31 31 32 31
48 46 45 43 43 42 36 33 37 36 34 37 35 40 37 32 28 30 30 31 30 29 29 29 29 29 29 30 32 33 35 35 33 31 31 30 29 28 27 28 29 28 28 27 29 31 33 34 34
49 47 46 43 41 43 37 33 38 38 35 33 36 38 36 32 25 29 32 34 31 29 29 28 30 30 29 28 29 31 32 33 33 32 32 32 31 31 30 30 31 29 29 30 30 30 33 35 35
48 46 43 42 39 41 39 37 40 37 36 36 36 36 36 33 30 29 34 36 30 31 30 28 28 32 30 29 27 28 30 30 32 34 33 33 32 32 32 33 33 33 33 33 32 32 32 34 35
46 45 44 38 42 41 41 36 38 38 37 37 36 35 36 33 30 30 32 33 30 31 33 30 28 32 32 31 30 30 31 28 28 32 34 34 31 32 33 34 34 34 34 35 35 34 34 34 35
46 44 42 41 42 43 43 40 38 42 39 36 35 34 34 35 31 29 28 29 31 31 32 33 32 31 33 31 33 33 33 31 27 29 30 33 32 32 33 33 33 33 33 33 34 35 35 35 35
39 44 45 44 45 45 45 42 40 42 42 35 35 36 36 34 31 31 31 32 33 33 34 36 34 32 33 33 36 36 34 33 34 30 30 31 32 36 34 33 34 35 35 35 35 35 37 37 36
41 43 42 42 43 44 42 41 39 40 42 39 39 38 38 37 36 35 33 34 34 35 36 34 35 35 34 38 38 43 41 40 39 35 31 31 30 39 36 36 34 34 35 35 36 39 38 38 38
39 38 37 38 42 44 41 40 40 41 41 42 41 41 39 40 40 40 40 40 39 38 39 38 37 36 36 36 40 45 46 44 43 38 35 34 31 38 38 38 34 36 35 34 36 35 36 38 39
31 34 33 34 35 36 38 38 35 38 39 41 42 42 42 43 44 44 45 44 43 43 43 43 43 43 41 40 41 43 46 47 46 41 37 38 37 36 36 36 36 36 36 36 34 37 38 39 41
27 27 26 25 26 29 33 38 30 34 37 39 39 41 40 41 42 44 45 47 48 48 49 50 49 49 49 47 44 46 47 50 49 45 43 40 38 37 36 35 38 38 38 38 36 36 38 40 44
23 21 19 23 24 25 25 33 29 30 31 34 37 39 43 47 49 52 54 55 56 57 57 55 55 55 54 53 49 47 49 51 52 47 45 40 40 41 39 39 38 39 40 39 36 36 38 40 42
17 17 19 21 22 24 24 29 32 30 34 38 43 47 50 54 56 57 58 60 62 63 63 65 65 61 59 57 55 51 49 46 51 51 47 44 43 43 41 41 39 39 39 38 38 39 40 39 41
16 17 19 22 23 24 27 29 29 35 37 41 46 50 52 54 55 56 57 59 58 59 62 64 64 61 61 61 60 56 50 45 47 54 50 47 45 44 43 41 39 39 41 40 40 40 38 39 40
16 17 20 23 24 26 30 31 31 37 41 41 43 45 47 47 48 49 50 50 51 47 44 41 41 47 58 59 58 54 50 48 48 55 52 48 47 44 43 42 39 40 42 40 40 40 38 39 41
15 19 22 24 27 29 30 31 34 36 35 38 41 46 47 49 49 51 51 52 54 55 53 50 46 44 42 51 58 55 46 52 51 51 49 51 48 44 43 42 40 41 42 41 40 40 41 42 43
20 20 22 23 27 29 31 32 32 28 29 34 38 39 40 42 48 51 47 46 48 44 52 53 51 49 44 40 50 54 48 52 52 49 48 48 48 44 43 40 42 42 43 41 42 42 42 42 41
19 18 21 23 26 31 33 27 31 29 32 36 36 40 39 45 55 57 51 46 45 45 46 46 52 51 49 41 41 52 49 49 48 46 46 47 45 42 40 41 41 41 41 41 43 39 47 43 47
16 18 21 25 27 21 29 26 26 30 34 37 39 44 44 49 49 52 51 45 41 44 46 44 49 53 49 44 41 47 43 45 45 46 47 45 42 40 39 40 39 40 38 42 44 42 45 48 51

GFSSGP_500_spd_048.txt.gz
Wind_Speed
35 35 33 31 29 25 23 24 28 25 26 21 21 24 26 24 23 19 20 22 21 19 20 21 22 21 20 20 20 19 20 20 21 22 23 24 24 23 22 21 22 22 21 21 21 21 21 21 21
38 37 35 34 31 27 24 29 30 30 28 25 26 27 27 24 20 21 21 22 19 17 18 21 23 22 22 22 22 22 22 22 22 23 23 24 24 25 25 25 24 24 23 23 22 22 22 22 21
40 40 39 38 34 24 23 35 35 33 29 28 29 31 32 24 22 21 18 19 19 17 17 18 20 23 23 24 25 24 24 25 24 24 24 24 25 25 25 25 25 25 25 24 24 23 23 22 22
42 42 42 40 32 25 26 39 38 38 34 33 34 35 34 25 23 22 20 20 21 19 18 19 20 21 22 24 25 24 25 25 25 26 26 26 26 26 26 26 27 27 27 26 25 25 25 25 25
45 44 44 41 30 26 30 40 39 36 31 31 34 35 35 30 28 26 25 23 22 21 21 21 21 20 21 21 22 23 25 26 25 26 27 27 27 27 28 28 28 29 29 29 27 27 26 26 26
49 48 46 40 29 30 32 39 38 33 30 25 30 35 35 30 29 28 26 27 27 26 25 23 21 21 22 21 21 21 21 23 24 25 26 28 29 28 28 28 28 28 28 29 28 27 26 26 25
51 49 45 39 31 35 31 38 37 32 31 29 31 33 31 30 28 28 29 30 29 27 25 26 25 24 23 23 21 21 22 21 21 21 21 23 25 26 28 27 27 27 27 27 26 25 25 25 25
51 51 48 41 35 30 32 38 35 32 30 31 29 31 30 26 26 27 28 29 28 29 29 29 28 27 26 26 25 25 25 24 23 21 21 21 23 23 24 25 26 26 26 26 25 24 24 25 25
46 48 46 38 36 28 30 34 35 35 33 29 29 29 28 26 25 26 26 26 28 29 30 30 29 29 29 29 28 29 29 28 27 26 25 24 23 23 22 23 23 24 25 26 25 25 24 24 25
44 45 40 36 33 32 35 38 40 39 36 29 28 31 29 27 27 26 25 26 26 26 28 30 30 30 30 30 30 31 30 31 31 29 27 25 25 25 24 23 23 23 23 24 26 25 26 26 25
43 43 37 36 34 37 40 40 40 41 38 28 28 28 32 32 29 27 26 26 26 25 24 26 27 27 27 28 29 29 30 30 31 31 30 28 28 27 26 25 25 24 24 24 25 26 27 29 28
44 42 39 37 39 40 39 40 40 40 37 29 30 30 31 32 30 29 26 25 26 26 26 27 27 27 26 26 27 28 29 29 29 30 30 30 29 29 28 27 26 26 26 26 26 26 26 28 31
47 45 43 41 41 42 39 37 39 38 37 33 31 35 35 34 34 31 29 28 28 27 29 28 27 27 27 28 28 28 29 28 29 29 29 30 30 30 29 29 29 28 28 27 28 29 28 28 30
50 49 48 46 43 42 39 36 36 36 40 40 33 36 38 37 31 31 31 29 32 33 32 29 26 27 29 28 27 28 28 28 27 27 29 30 30 30 30 30 31 30 31 30 31 31 32 32 32
53 51 49 46 43 43 43 39 36 39 42 43 36 34 36 34 31 29 29 34 35 34 32 29 27 29 28 26 25 27 28 26 26 26 26 28 30 31 31 31 31 30 32 32 32 33 33 35 34
50 51 50 45 47 46 46 37 38 39 43 43 38 36 36 34 32 31 31 34 36 35 30 30 29 28 30 27 28 28 30 29 26 27 26 27 27 29 31 33 31 30 31 32 32 32 32 32 33
50 49 47 45 46 46 46 40 37 42 43 42 41 38 36 34 34 33 29 32 35 36 34 34 32 31 32 33 32 33 32 31 28 29 28 27 28 29 33 34 31 31 32 33 33 34 34 34 34
46 46 46 44 47 46 45 42 38 41 42 42 42 40 37 35 36 36 34 33 36 37 38 38 36 34 34 35 36 35 33 33 31 30 30 29 30 32 34 32 32 32 33 33 32 34 33 34 36
46 47 48 45 44 44 42 43 38 36 42 44 42 42 41 39 39 38 37 35 37 39 40 38 40 38 36 36 35 35 36 38 36 37 35 33 31 33 37 34 33 33 34 34 33 34 34 35 36
40 44 41 40 42 44 42 40 40 39 42 45 43 42 42 41 40 40 40 40 41 41 42 43 42 41 39 37 36 36 39 41 39 38 37 36 33 35 40 37 35 33 34 35 34 35 35 36 36
35 34 32 35 38 40 40 40 38 38 40 42 42 43 43 43 43 42 43 44 45 45 44 43 45 45 43 42 41 38 38 39 39 39 40 40 36 40 42 40 36 35 35 34 34 35 36 36 37
30 30 30 28 32 36 36 37 29 35 35 36 37 39 39 40 42 44 45 47 47 47 46 45 46 47 48 48 48 46 43 41 41 45 47 47 43 45 45 43 41 37 36 35 35 36 37 36 37
25 23 22 24 26 29 29 37 24 27 28 29 31 34 38 40 42 44 45 46 47 48 49 49 50 50 52 53 53 53 51 49 46 48 50 49 45 46 44 43 41 40 39 37 36 36 37 35 36
21 20 22 21 21 24 23 29 28 22 27 30 34 36 39 41 44 45 46 48 50 53 55 57 59 59 60 60 59 59 57 55 54 48 51 51 49 49 47 45 44 42 41 41 39 38 38 38 38
18 19 19 19 19 18 19 24 23 24 28 32 35 39 42 45 49 51 53 55 57 59 61 62 64 65 65 65 65 64 62 62 61 57 50 52 53 51 49 48 46 45 43 43 41 41 41 40 40
19 18 18 17 18 20 21 23 24 29 29 31 35 39 44 48 50 52 55 57 57 54 53 54 57 62 64 64 64 65 65 65 63 59 50 53 54 53 51 50 47 46 45 44 43 43 41 41 41
16 17 16 18 20 21 22 23 24 27 31 34 37 37 40 44 45 46 47 49 51 51 52 53 57 58 58 58 55 57 59 60 59 57 52 53 55 55 51 51 49 48 46 44 44 43 42 43 44
17 15 15 17 21 21 21 22 22 23 26 28 32 35 37 39 41 43 47 51 50 51 49 53 55 55 58 56 50 44 40 43 54 57 54 54 53 53 51 51 52 49 47 45 43 43 37 48 44
14 15 16 17 19 22 22 19 20 20 25 30 33 35 37 41 47 52 58 60 57 57 49 51 55 54 54 55 58 54 47 44 45 50 54 53 51 50 49 51 49 46 47 44 42 41 44 45 44
13 14 13 16 19 20 24 10 18 25 27 29 32 36 41 48 53 54 58 59 58 49 45 46 51 50 50 53 53 56 54 47 42 47 52 52 50 48 48 48 46 45 42 41 40 42 47 43 40

GFSSGP_500_spd_051.txt.gz
Wind_Speed
38 35 34 33 33 29 26 26 26 26 25 26 28 28 29 29 26 24 23 23 19 18 16 18 20 21 20 21 20 19 19 20 20 20 20 21 22 23 23 22 21 21 21 21 21 20 21 21 21
40 38 37 35 35 29 26 29 28 27 26 26 28 29 29 27 24 24 24 23 18 16 17 19 21 21 21 22 22 23 22 21 20 21 21 21 21 21 22 22 23 23 23 23 23 23 23 23 22
42 41 40 39 35 27 25 30 31 28 27 28 29 29 29 27 26 26 26 22 20 17 16 18 19 19 20 22 22 23 23 23 23 23 23 22 22 22 22 23 23 23 24 24 23 24 23 23 23
43 44 43 42 33 28 27 34 31 30 31 31 32 33 31 29 27 25 23 20 20 21 19 18 20 21 19 19 20 21 21 21 23 23 23 24 24 24 24 24 24 24 24 24 24 25 25 24 24
45 45 46 43 34 28 30 38 36 35 33 33 35 36 34 31 29 28 27 25 26 25 23 22 20 20 20 19 19 20 19 19 20 21 22 23 24 24 25 24 25 26 26 26 26 25 25 25 25
47 47 47 42 33 30 34 38 40 37 33 34 36 37 35 34 33 31 30 29 28 28 27 24 23 23 23 22 21 20 20 19 19 20 20 20 20 21 23 24 24 24 25 25 26 26 25 25 24
49 48 46 41 36 35 35 42 42 38 33 30 34 38 38 30 32 32 32 31 30 29 27 27 27 26 25 23 23 22 23 22 21 20 20 20 20 20 20 21 23 23 23 24 25 25 25 24 25
51 50 48 44 37 31 37 42 44 38 32 32 37 35 32 29 31 31 30 30 30 29 28 29 29 28 25 26 25 25 26 25 25 24 23 23 22 21 22 22 21 22 22 23 23 24 24 25 24
54 53 50 45 39 31 38 42 44 38 34 35 36 30 30 30 26 27 27 27 30 31 32 31 30 30 30 28 28 28 28 27 27 26 26 25 24 23 23 23 23 23 23 22 23 23 24 24 24
52 53 50 45 39 35 42 44 44 41 38 37 35 30 29 30 28 26 24 26 28 30 31 31 31 31 31 30 29 30 30 30 29 28 28 27 27 26 26 25 24 24 25 24 24 24 24 24 25
45 46 44 44 37 38 44 44 45 44 41 36 32 31 28 29 28 26 25 24 27 29 27 27 29 28 27 27 28 29 29 29 29 28 28 28 28 27 26 26 25 25 25 26 25 25 24 24 24
44 43 41 36 37 43 47 48 47 45 37 34 32 32 28 28 30 30 29 29 30 30 29 27 28 27 27 28 28 27 27 26 26 26 26 27 28 28 28 27 27 26 26 27 27 26 26 25 26
42 41 38 36 39 43 47 47 44 40 36 36 33 34 32 33 34 33 33 31 30 30 31 30 32 31 30 30 29 27 27 26 26 24 24 25 27 27 27 28 28 28 26 28 29 29 28 29 29
47 44 40 38 41 44 44 43 42 36 38 39 35 35 38 38 37 34 32 30 30 31 33 35 35 33 31 29 30 28 28 27 25 23 24 24 25 25 26 28 29 29 28 28 28 29 30 30 31
51 47 45 43 42 42 43 41 39 37 40 41 39 38 39 40 37 30 29 30 29 31 35 38 37 35 31 30 31 29 30 29 25 24 24 23 23 24 25 28 30 29 29 29 29 29 30 31 32
50 49 47 43 43 44 46 40 40 41 40 42 42 41 40 38 38 32 28 28 30 32 33 35 36 35 34 32 33 33 32 31 27 26 27 26 25 25 26 28 30 29 30 31 31 31 31 31 32
49 49 48 45 47 47 46 42 41 44 43 44 44 40 39 39 40 37 32 31 33 35 37 38 37 36 36 36 36 35 35 35 30 29 30 29 28 28 29 31 31 30 31 32 33 32 31 31 31
46 46 43 43 45 46 45 45 40 42 43 43 43 44 41 39 37 40 39 35 37 39 40 41 39 38 40 39 39 39 36 35 32 32 33 32 31 30 31 33 34 33 32 33 34 34 34 35 35
46 47 45 44 44 45 44 46 40 41 43 43 45 45 44 41 39 41 42 39 37 40 41 42 43 42 41 41 41 41 38 38 37 36 36 36 33 33 34 36 37 36 34 34 33 35 36 36 37
44 45 44 42 44 45 42 43 39 39 41 43 45 45 43 43 41 42 45 45 42 41 42 44 44 45 45 43 42 42 42 42 42 40 38 37 35 36 38 38 41 39 37 36 35 35 35 35 35
33 39 40 40 42 44 43 43 39 35 37 39 41 43 43 41 41 43 45 46 47 44 42 43 46 48 49 48 47 45 44 42 41 41 38 36 38 41 42 42 43 42 41 39 39 38 37 35 35
26 28 29 32 40 41 38 39 30 34 34 35 37 39 41 43 44 44 44 46 47 47 46 46 47 49 50 51 51 49 45 44 43 44 43 43 41 41 42 45 47 45 46 46 42 41 36 37 37
32 30 28 28 31 33 32 36 20 26 28 30 32 35 37 40 40 41 43 45 46 47 48 49 50 50 50 52 53 53 52 50 47 46 46 45 46 46 44 46 47 48 47 44 43 41 40 39 40
27 28 24 24 25 29 26 30 19 24 26 27 27 29 32 36 37 39 41 42 45 47 49 50 51 51 52 53 54 55 55 55 55 52 53 54 51 52 51 50 50 49 49 49 48 46 44 40 41
23 23 23 22 23 22 19 22 21 16 21 25 27 30 33 36 39 42 44 46 47 49 51 54 56 57 58 58 58 58 58 59 59 59 58 60 58 54 54 54 53 52 51 51 49 48 48 44 43
25 25 22 20 18 17 17 20 19 19 22 25 29 32 35 38 41 44 46 48 52 54 56 59 62 63 64 65 65 66 65 66 65 65 65 64 64 62 56 58 57 54 52 51 50 50 49 46 47
23 20 18 17 18 17 18 17 18 21 23 25 29 33 37 39 42 45 47 51 54 56 58 58 57 59 60 62 63 64 65 66 66 67 68 69 68 63 59 57 58 57 56 52 52 52 50 48 48
20 18 17 16 17 16 16 15 18 22 26 29 30 32 33 34 38 43 46 48 49 50 53 55 56 55 57 60 62 64 64 62 61 61 63 66 67 63 59 58 58 57 57 55 53 52 52 49 49
18 16 15 14 14 15 14 13 19 22 25 26 26 29 32 36 40 43 46 50 55 60 64 64 64 62 63 62 60 59 61 59 57 54 53 55 60 63 58 56 55 57 57 55 52 52 51 49 48
13 12 12 14 14 15 18 13 19 21 24 25 26 27 33 35 35 35 40 47 54 61 62 61 61 58 62 64 62 61 60 61 59 55 52 48 45 46 49 55 56 57 54 51 50 49 48 47 44

GFSSGP_500_spd_054.txt.gz
Wind_Speed
40 38 37 36 35 33 30 30 30 31 31 30 30 31 28 27 27 25 22 23 23 17 16 16 17 17 17 18 18 18 18 17 16 16 16 17 18 18 19 20 20 21 21 20 20 20 20 19 19
42 40 39 38 37 32 29 31 31 32 29 29 29 29 29 27 26 24 23 23 22 19 17 18 19 17 17 18 19 20 20 20 19 18 18 19 19 19 18 18 19 20 21 21 20 21 21 21 21
43 42 41 41 38 30 28 32 32 28 28 28 28 28 27 25 26 24 24 23 23 20 19 17 18 17 17 17 17 18 18 20 20 20 20 21 20 19 18 18 19 20 21 22 22 21 21 21 21
44 44 44 43 35 30 30 33 32 29 29 30 28 27 26 26 25 24 23 23 22 22 19 19 19 19 17 16 16 17 17 18 19 19 19 19 19 20 20 19 19 19 20 21 21 21 21 22 21
46 46 46 43 34 31 32 36 33 31 31 32 30 27 27 26 24 22 23 25 25 25 24 22 21 20 21 19 19 19 19 19 20 20 19 19 18 18 18 19 20 20 21 21 21 21 21 22 23
48 47 48 43 34 34 34 37 36 35 34 33 31 30 29 28 26 26 28 28 28 27 28 26 23 24 24 23 23 22 22 21 21 21 21 20 19 18 17 18 18 18 18 20 21 20 20 21 22
49 47 46 41 37 37 35 40 39 38 36 35 33 33 30 30 32 32 31 31 30 31 30 29 28 27 27 25 25 25 24 24 23 23 23 22 21 20 19 18 18 18 19 20 20 20 20 20 21
50 49 48 43 40 36 38 41 42 42 37 34 34 33 31 33 32 32 31 31 30 31 31 31 30 29 27 26 27 26 26 25 25 25 25 25 24 22 22 21 20 20 19 21 21 21 21 20 21
52 51 47 43 41 37 38 42 44 42 37 34 36 34 32 33 29 29 30 29 31 32 33 32 31 29 28 28 29 28 28 27 27 27 26 25 25 26 26 25 24 23 22 21 22 22 21 22 22
54 51 46 42 40 41 42 44 45 43 38 36 37 33 32 31 29 27 27 27 29 33 32 31 30 30 29 30 30 29 29 29 28 27 26 26 26 25 25 25 26 26 25 24 24 23 23 23 23
48 50 47 45 45 44 43 47 46 43 40 37 37 33 31 29 30 28 25 27 28 28 27 27 29 30 29 29 29 28 28 28 27 26 25 24 24 24 24 25 25 25 25 26 25 25 24 24 24
45 42 44 44 48 47 45 47 48 45 38 39 38 37 33 29 28 28 28 31 31 28 29 27 27 27 26 27 27 28 27 28 28 27 25 24 24 24 24 24 24 24 25 26 27 26 25 25 25
43 42 41 38 41 44 45 48 48 45 42 41 39 37 36 33 30 30 29 30 31 31 32 31 30 29 29 30 30 30 30 30 31 28 26 25 25 24 24 25 25 26 26 27 27 27 27 26 27
46 44 40 36 35 38 42 45 48 43 43 40 37 36 37 37 35 33 32 31 29 30 31 35 36 36 35 34 34 33 32 34 33 30 27 25 25 24 23 24 26 27 26 27 27 27 28 28 27
48 47 44 38 35 37 41 42 43 42 42 42 40 38 40 40 39 36 35 33 31 31 34 35 38 39 40 39 37 35 35 34 34 30 29 26 26 25 24 24 25 26 26 26 26 27 28 28 28
48 48 46 40 37 37 41 40 44 46 44 41 42 39 40 40 38 36 34 33 33 33 34 36 38 41 42 42 40 39 38 37 34 33 30 28 28 28 27 26 28 28 27 28 27 27 28 29 30
49 47 45 42 41 39 41 40 44 44 45 42 42 40 38 36 37 36 35 38 37 36 37 37 38 39 41 42 41 41 40 38 36 35 32 31 31 30 28 29 30 30 30 30 29 29 29 31 32
48 47 42 41 43 42 41 42 40 41 42 43 43 42 42 42 41 42 42 40 39 38 38 38 39 40 41 41 40 42 43 41 37 37 35 35 35 32 31 31 32 32 31 31 32 31 32 32 33
45 46 44 42 42 44 43 44 39 40 41 42 44 44 45 45 44 44 43 43 42 41 40 41 42 42 41 42 42 42 44 43 42 40 40 39 38 35 34 33 35 36 36 35 34 33 34 35 35
43 43 41 40 40 41 41 43 39 37 41 43 45 45 46 45 44 43 44 45 44 42 42 42 43 46 45 43 45 44 44 46 44 44 43 42 40 39 38 37 39 38 38 37 36 37 38 38 39
39 38 37 37 39 42 41 42 38 34 38 41 42 43 45 45 42 43 45 45 45 44 44 45 45 47 49 48 46 47 46 46 47 45 43 44 44 44 44 44 43 41 40 40 40 41 42 39 41
28 38 36 37 39 41 40 41 33 35 39 38 39 40 41 41 40 40 41 43 46 46 46 47 47 47 49 51 50 47 47 47 46 48 49 49 49 46 46 44 42 40 41 41 42 42 43 42 40
28 27 30 30 33 38 36 41 26 34 36 35 35 37 38 38 37 36 37 39 42 45 46 46 49 51 51 52 54 54 53 50 49 48 49 50 49 46 46 46 45 44 43 43 44 45 45 46 45
29 25 21 22 27 31 28 33 22 28 30 29 28 29 31 33 35 36 38 39 41 43 44 46 47 50 53 55 57 59 59 58 56 52 50 48 49 49 48 49 48 49 49 48 48 48 49 48 48
23 28 27 23 24 26 23 24 23 22 24 23 23 25 29 33 35 37 37 38 39 42 44 46 48 50 52 55 56 57 58 59 60 60 58 55 53 52 51 51 49 49 53 53 52 50 50 51 51
22 24 24 25 23 21 16 21 18 15 19 22 25 28 31 32 34 35 37 40 43 46 48 51 53 56 57 59 61 61 62 61 62 62 61 61 59 58 57 57 55 55 55 59 56 54 53 53 52
25 24 21 20 21 20 17 17 15 14 19 23 25 27 29 30 32 35 39 41 44 48 51 53 56 58 60 63 65 67 68 68 68 68 67 66 66 65 64 63 63 59 57 53 57 58 58 57 53
22 20 20 19 20 17 14 13 15 18 20 21 23 25 28 32 34 37 39 40 43 45 48 51 54 56 58 59 61 64 67 69 71 71 71 71 70 69 68 66 63 56 60 60 60 62 63 60 57
21 20 21 19 16 13 12 14 17 21 22 23 24 27 30 30 30 31 34 37 41 42 43 45 50 55 60 62 66 68 67 67 68 70 70 67 66 67 66 65 62 62 60 59 59 61 61 57 54
18 16 14 14 13 12 13 15 18 20 22 24 24 25 27 27 31 33 34 31 35 39 46 51 56 60 61 59 61 64 71 68 66 64 62 62 62 60 56 54 53 54 58 56 63 58 56 54 51

GFSSGP_500_spd_057.txt.gz
Wind_Speed
43 41 39 39 39 38 34 33 33 32 32 30 28 28 25 23 23 22 18 20 19 17 16 18 18 17 17 17 16 16 15 15 14 15 15 14 14 14 14 14 16 16 17 18 18 18 18 17 17
45 43 41 40 40 35 32 33 33 33 31 30 31 30 28 27 25 23 20 21 19 17 17 18 19 19 17 17 17 16 16 16 16 16 16 17 17 17 16 16 16 16 17 18 17 18 18 19 19
46 45 43 43 41 34 30 34 34 31 31 32 31 31 28 27 25 22 20 21 21 19 19 18 19 18 17 16 15 14 14 16 16 16 16 17 17 17 17 17 18 18 19 18 17 17 17 18 20
47 47 46 45 38 33 31 35 34 31 32 31 29 29 27 27 25 23 21 20 21 20 19 18 18 19 17 15 15 15 15 15 16 16 16 16 16 16 17 18 20 20 20 20 18 18 18 18 18
47 48 49 46 37 32 33 36 35 33 33 31 29 27 25 24 23 21 19 19 19 20 18 19 20 20 20 20 19 20 19 18 18 19 19 18 18 18 18 18 16 17 18 18 19 19 20 20 20
48 49 50 45 36 35 36 37 36 35 35 32 30 28 26 24 23 22 21 21 21 21 22 22 22 22 23 24 23 24 24 23 22 22 22 21 21 21 20 20 19 18 17 17 18 19 19 20 20
50 48 47 40 38 39 36 39 38 38 36 35 32 29 27 25 26 25 25 25 25 25 25 26 26 26 26 26 25 25 25 24 25 24 24 24 23 23 23 23 22 22 21 20 19 19 21 22 22
51 50 48 43 40 39 40 41 40 40 38 36 33 30 28 27 28 29 29 28 28 29 30 29 29 30 28 27 26 25 26 25 25 24 25 25 25 25 24 24 24 24 23 23 22 21 22 22 22
51 52 48 42 40 39 41 42 42 41 39 37 34 31 28 28 30 30 31 30 32 33 33 32 32 30 29 28 28 28 27 26 26 26 25 25 25 25 25 25 25 25 24 24 24 23 23 23 22
53 50 44 41 41 40 43 44 44 43 41 38 35 32 28 29 30 29 28 30 31 34 34 33 32 32 30 30 31 29 28 27 27 27 26 26 25 24 24 24 24 24 24 23 24 24 24 24 24
52 47 45 43 43 42 44 45 44 44 41 38 37 34 31 30 30 29 29 30 31 31 30 30 31 32 31 32 30 29 28 27 28 28 26 24 25 24 23 22 21 22 22 22 23 23 23 24 24
56 50 47 46 47 44 45 46 46 45 42 41 40 36 31 30 30 30 31 29 29 28 28 28 29 29 29 29 27 27 27 28 28 28 27 25 25 25 23 22 22 23 24 23 22 23 24 24 25
47 52 50 48 48 45 46 47 47 44 45 43 42 38 34 33 32 30 31 29 29 29 30 30 31 31 32 30 28 29 29 31 31 31 29 28 27 27 26 24 24 25 24 23 23 23 23 24 25
45 45 44 41 44 46 48 47 48 43 47 45 43 41 37 35 35 33 32 31 30 31 30 31 32 33 34 33 34 35 35 35 34 34 31 30 29 29 28 27 26 27 25 24 24 23 23 23 23
47 45 43 37 36 39 41 43 44 48 51 48 45 43 42 37 36 34 35 34 34 32 32 32 33 36 36 36 36 37 38 38 37 35 33 31 30 31 30 28 28 29 27 26 26 24 24 23 23
47 48 47 39 36 36 37 35 39 44 47 48 46 44 43 40 37 35 34 33 34 35 36 38 38 39 39 38 39 39 39 40 39 39 37 33 32 33 33 30 31 32 29 28 28 27 26 26 26
49 47 44 41 39 37 37 36 37 39 42 43 44 41 40 38 36 34 34 36 37 38 40 41 41 41 42 42 41 42 42 41 42 41 39 36 35 35 35 34 33 34 32 31 29 29 27 28 30
49 47 45 42 41 40 37 39 36 38 39 41 42 41 39 37 38 40 40 39 39 40 40 41 43 44 44 44 44 42 42 43 43 43 41 41 40 39 38 37 35 35 33 33 31 31 28 30 31
47 45 44 40 39 40 39 40 35 36 37 38 41 43 43 43 41 41 40 40 39 38 39 39 40 43 45 46 46 45 44 45 45 44 45 46 43 41 41 40 38 38 36 37 35 34 32 32 32
45 43 43 41 40 39 39 40 36 36 36 39 40 42 43 44 43 42 42 42 43 43 42 40 40 42 43 45 46 45 46 46 47 47 47 47 45 42 44 44 42 42 41 40 39 37 36 34 34
41 42 41 40 40 40 38 39 36 37 39 39 40 41 42 42 42 43 43 43 44 45 44 43 42 43 45 47 47 48 46 46 48 48 48 48 49 48 47 47 45 46 45 44 43 41 40 38 38
37 37 36 36 38 39 40 40 35 35 36 38 39 40 40 41 41 41 41 42 44 44 44 44 43 43 45 47 49 50 50 49 47 48 50 52 51 51 49 49 49 49 48 47 45 42 41 40 38
34 36 37 35 36 37 38 40 33 36 35 36 37 38 38 38 38 39 39 40 40 42 43 43 43 44 46 48 49 49 50 51 51 51 50 52 54 54 53 53 53 52 50 49 46 44 43 42 42
27 29 33 36 36 36 36 38 32 33 34 34 33 34 36 37 39 39 38 38 37 38 39 40 41 42 43 45 47 50 51 52 53 53 54 55 57 58 57 57 56 54 52 49 49 49 47 47 46
29 30 27 30 34 33 31 31 29 28 31 30 31 32 33 34 34 34 34 34 36 37 38 40 41 43 45 46 48 49 51 53 54 54 55 56 57 58 58 58 59 56 54 53 52 52 50 48 52
27 27 27 27 23 21 21 24 24 23 26 28 30 30 30 30 30 31 33 35 35 37 39 41 43 45 47 50 52 54 56 57 58 59 59 59 59 59 60 59 59 59 58 57 53 51 52 44 51
25 22 22 22 22 20 17 19 20 19 24 27 28 27 27 27 29 30 32 32 34 37 41 44 47 51 53 56 58 59 61 64 66 67 68 68 67 66 64 62 60 59 59 57 55 55 62 56 59
26 24 21 19 20 17 18 19 18 19 21 22 23 24 25 26 27 29 31 34 37 40 42 44 45 48 51 54 57 59 61 64 66 67 69 71 72 73 71 69 67 65 62 60 60 60 61 61 63
23 23 22 20 18 17 17 18 19 20 19 19 21 23 23 26 28 31 32 31 32 36 38 40 40 42 46 50 54 56 58 60 66 70 72 72 71 69 69 70 68 66 63 60 59 59 59 61 61
20 20 17 16 15 15 17 18 19 19 19 19 21 23 25 26 25 25 26 28 30 31 34 38 39 41 43 47 48 52 56 58 60 62 65 70 72 71 67 63 62 61 58 53 52 52 53 55 56

GFSSGP_500_spd_060.txt.gz
Wind_Speed
46 44 43 42 41 40 37 34 33 31 31 28 26 26 23 21 21 22 17 18 17 16 15 16 15 15 16 16 17 17 16 15 16 15 16 16 17 17 16 16 16 16 16 16 17 17 17 18 18
48 46 44 43 43 41 38 36 37 34 32 31 29 28 27 26 25 23 21 20 19 17 18 18 17 16 18 18 17 16 16 15 16 16 17 17 18 18 18 18 18 18 17 16 17 16 17 17 18
48 48 47 46 44 40 36 39 40 36 35 34 32 30 28 27 25 23 21 22 19 17 17 17 16 17 15 16 16 15 15 14 13 14 14 14 14 15 16 16 16 17 18 17 17 18 18 17 17
47 50 50 48 42 37 35 38 39 35 35 34 32 30 28 27 25 23 22 22 20 18 18 17 16 16 15 14 15 13 13 15 15 15 16 16 17 17 18 17 16 16 16 17 18 19 19 20 20
47 49 53 49 42 37 37 39 39 37 36 34 33 30 29 28 26 24 22 21 22 20 18 17 17 17 16 15 16 18 17 17 18 19 20 21 21 20 20 19 18 18 18 18 18 18 17 18 18
46 51 53 49 41 39 38 40 39 38 37 35 33 31 30 27 25 23 21 20 22 21 19 19 19 20 20 20 20 21 23 21 22 23 23 23 23 23 22 22 21 21 21 21 20 19 20 20 20
49 48 50 46 43 39 39 40 39 39 37 36 32 32 32 28 26 25 23 23 23 23 22 23 22 22 23 24 25 24 24 24 23 23 23 24 24 24 24 23 23 23 23 23 23 22 21 21 20
49 50 48 48 43 39 40 41 41 41 40 37 34 34 33 28 27 26 26 25 26 27 26 26 26 26 27 27 26 26 26 25 26 25 24 25 25 25 25 25 24 24 24 23 23 23 23 23 22
51 51 52 45 42 41 41 43 43 42 40 39 36 34 32 29 28 27 27 28 29 30 31 30 30 30 30 29 29 29 29 28 28 26 26 25 25 26 26 26 26 25 24 24 23 23 24 23 24
56 51 48 46 43 43 43 44 44 43 42 39 37 35 33 31 28 29 29 30 31 32 33 33 32 32 31 31 31 31 31 30 28 28 27 26 26 26 25 25 25 24 23 22 22 22 23 22 23
55 50 48 46 44 44 46 46 45 45 43 41 39 37 34 31 28 29 29 29 30 30 32 33 32 32 32 32 33 33 32 31 29 29 28 27 26 26 25 24 23 22 21 21 22 23 23 23 22
54 53 49 48 45 44 46 46 45 45 46 43 41 39 36 33 30 30 30 29 30 30 29 29 29 30 32 33 33 32 31 30 29 29 29 28 27 26 26 24 23 23 24 23 23 24 24 24 22
54 57 52 48 45 45 47 48 45 44 46 44 42 40 38 35 32 32 31 30 30 29 30 30 31 31 33 33 32 32 31 31 31 31 30 30 29 27 27 26 25 25 26 26 25 25 24 23 23
50 53 56 51 45 46 47 50 47 46 47 46 43 42 39 37 34 33 33 31 32 32 31 32 32 33 34 33 33 32 33 33 34 34 34 33 31 30 29 29 28 28 28 28 27 27 26 24 23
49 49 51 55 52 46 47 49 49 47 47 47 44 43 42 38 36 34 34 32 33 34 35 33 35 36 35 34 34 35 36 37 37 36 37 35 34 33 32 33 31 31 32 31 30 29 28 27 26
49 49 48 46 47 48 46 46 49 47 47 47 47 46 44 41 38 36 35 34 35 37 37 38 38 37 37 36 37 38 39 40 39 38 39 38 37 36 36 37 36 35 34 34 32 33 31 30 29
51 47 45 41 41 41 42 42 46 47 47 48 48 47 47 43 40 38 39 39 39 39 40 40 41 40 41 41 42 42 41 42 42 42 42 41 40 40 40 40 40 38 37 36 36 36 34 32 31
49 47 45 44 41 39 40 40 38 37 40 41 43 46 48 46 44 42 41 40 40 40 40 40 41 41 43 44 44 44 44 43 44 45 45 45 45 44 43 43 42 41 40 40 39 38 37 35 33
49 48 45 43 41 42 40 39 38 36 36 35 37 40 43 42 41 41 38 39 39 38 39 39 40 39 41 43 43 43 44 45 46 46 48 48 47 47 47 47 46 45 44 43 43 41 39 39 37
48 49 48 43 41 41 40 41 39 38 36 34 34 36 38 39 40 40 40 39 39 39 40 40 40 41 40 43 44 45 47 46 46 47 48 48 48 49 49 50 49 49 48 48 46 45 44 43 41
48 45 45 43 42 40 42 42 40 39 36 35 35 35 36 37 39 40 40 40 40 40 41 41 41 42 42 42 44 46 47 48 48 48 48 49 51 51 52 51 52 52 51 50 48 49 48 47 46
47 46 45 43 42 42 40 41 39 37 37 37 36 36 37 37 39 40 41 42 42 42 43 43 44 44 44 44 44 45 47 49 49 49 51 53 53 54 54 53 55 55 55 52 50 51 50 50 49
39 39 40 41 40 40 40 40 39 37 35 34 36 36 36 37 39 40 42 42 42 42 42 42 43 43 44 44 44 46 48 50 53 53 52 51 53 56 57 56 57 55 57 55 54 54 54 53 52
33 36 36 36 38 40 38 37 38 37 35 35 34 34 36 37 38 40 41 41 40 40 40 40 41 41 42 43 44 45 46 48 50 52 54 55 52 53 58 60 60 60 57 58 58 59 58 55 54
29 35 33 34 38 40 37 37 38 35 34 34 34 34 36 37 38 38 38 38 38 38 38 37 38 39 40 42 43 44 46 48 49 51 53 55 56 56 56 60 63 65 64 61 62 62 60 58 56
31 34 39 40 39 38 38 38 38 35 33 31 32 34 35 35 35 34 35 34 34 35 36 37 39 40 41 42 43 45 48 51 54 57 59 60 61 62 62 61 62 63 66 67 67 65 62 61 57
30 28 31 30 32 28 28 30 31 29 31 32 31 31 32 32 31 32 32 32 34 35 35 36 38 40 41 44 46 48 50 53 56 59 62 64 66 67 69 69 68 66 65 64 63 64 64 61 59
23 24 23 24 24 23 23 23 24 24 26 28 30 28 27 28 29 30 30 30 31 32 33 36 38 39 41 42 45 48 49 52 55 58 61 64 66 68 69 69 69 69 69 67 65 62 59 59 58
27 26 25 22 20 21 20 22 21 22 23 25 25 26 26 26 27 28 28 29 31 31 30 32 35 37 39 41 44 47 48 49 50 55 60 62 66 69 71 71 69 67 65 64 62 63 63 63 62
26 26 26 26 22 20 21 22 23 24 24 22 22 25 25 27 28 29 30 28 25 24 24 27 31 34 36 38 40 40 36 43 49 52 60 65 65 69 69 66 64 66 65 62 57 55 54 55 56

GFSSGP_500_spd_063.txt.gz
Wind_Speed
49 47 44 41 39 39 36 35 33 31 29 31 26 24 24 22 22 24 18 17 15 15 14 14 13 14 13 13 15 16 16 16 18 18 18 17 17 17 17 18 18 19 20 20 19 18 18 18 17
49 48 46 45 42 40 36 36 33 34 33 28 28 26 25 26 23 23 18 18 18 17 16 16 16 14 14 15 15 15 14 16 16 17 17 16 16 16 17 18 19 20 20 20 20 19 19 18 18
48 49 49 47 45 43 38 41 38 36 33 33 30 29 29 30 24 22 20 19 19 17 17 16 16 15 15 14 13 13 15 14 14 13 12 13 13 13 14 15 15 16 17 18 18 18 18 18 18
48 44 51 51 47 42 40 45 41 36 36 35 32 32 31 29 28 24 23 22 20 18 18 18 16 16 14 14 15 15 15 15 14 14 15 16 16 17 17 18 19 19 19 19 18 18 16 16 16
53 48 51 53 47 43 42 46 41 40 38 38 36 37 35 33 31 26 24 24 21 20 19 19 18 18 18 17 16 17 16 17 17 18 18 19 20 21 21 22 22 22 22 21 20 18 18 18 18
53 52 54 55 48 43 44 42 41 39 40 38 36 34 36 34 31 28 26 24 23 21 20 21 22 21 20 20 19 19 19 19 21 22 22 22 22 23 23 23 23 23 23 23 22 22 21 21 21
51 55 54 52 49 45 43 40 40 38 38 37 38 33 37 34 31 29 27 26 25 24 23 23 24 23 23 22 22 22 23 23 21 22 22 22 23 24 25 25 25 24 24 24 23 23 23 23 23
52 56 55 52 47 44 41 41 39 41 37 41 34 35 36 31 30 29 27 27 26 25 25 24 25 25 25 25 25 26 26 25 24 23 23 24 24 24 25 26 26 25 25 24 23 23 23 23 23
55 54 62 54 47 44 45 44 43 42 43 36 39 41 34 31 30 29 28 27 26 27 28 27 27 27 28 28 29 29 28 27 27 27 26 26 26 26 26 26 26 25 25 24 23 23 22 22 21
54 52 48 47 41 45 46 42 45 42 41 40 37 38 37 34 31 30 29 28 27 29 29 29 29 30 31 30 30 30 30 29 28 29 29 28 27 25 26 25 25 24 22 22 20 21 21 21 21
56 54 43 50 50 43 48 41 47 43 44 41 41 42 38 36 34 31 30 30 30 29 29 31 31 31 31 31 31 31 31 31 31 31 31 29 28 27 26 25 23 22 21 20 21 23 23 23 22
55 54 53 55 46 44 44 43 45 45 46 48 45 38 39 38 35 32 32 32 30 29 30 31 32 32 31 31 32 31 31 31 31 32 32 30 29 27 27 25 24 23 23 22 23 24 24 24 23
53 56 57 56 43 44 45 46 42 47 49 46 43 43 41 39 37 34 33 32 30 29 31 32 32 31 31 32 32 31 31 30 31 32 32 31 30 29 28 26 26 25 25 26 25 26 26 25 25
53 58 58 54 48 45 45 48 47 44 47 45 45 44 42 40 38 36 33 33 32 32 32 34 33 33 33 32 32 31 31 32 33 34 34 34 33 32 31 29 28 28 28 29 29 28 28 28 27
58 58 56 55 46 43 46 49 47 45 44 45 44 43 43 40 38 36 35 33 33 34 34 34 34 34 34 34 33 33 34 35 36 37 37 36 36 34 32 32 32 32 33 33 33 32 32 32 31
57 55 55 56 51 45 41 44 47 47 46 44 44 44 43 40 38 37 36 35 35 35 35 37 36 36 36 35 36 36 36 37 37 38 39 40 40 39 37 36 36 35 34 36 36 36 36 36 35
58 56 48 51 50 49 45 42 47 48 48 47 46 45 45 43 41 40 39 38 38 37 38 38 39 38 38 38 38 38 39 39 40 41 41 42 42 42 42 41 40 41 40 37 39 39 39 40 38
52 53 48 46 45 45 51 47 46 45 46 48 49 49 47 46 44 43 42 40 39 39 39 40 41 40 39 40 40 40 42 41 43 43 42 43 43 43 44 44 44 45 43 42 40 42 44 44 42
53 50 50 46 43 41 40 48 48 44 46 48 48 48 47 45 45 44 43 43 42 41 41 41 40 39 39 41 44 39 43 45 45 45 45 45 44 44 45 45 46 47 46 46 46 46 47 46 46
52 51 49 47 42 41 41 39 47 40 40 40 39 39 42 43 44 45 43 42 41 40 42 42 41 41 40 42 43 43 43 45 46 47 47 47 47 48 47 47 47 49 49 50 50 50 50 49 49
51 50 49 45 42 42 41 40 41 40 38 37 35 35 35 36 37 37 38 38 39 39 39 40 40 41 41 43 43 45 41 44 45 46 48 49 52 52 51 50 51 52 53 53 53 52 52 53 53
50 51 51 45 43 43 43 39 40 39 38 37 36 34 33 34 34 35 35 36 36 36 37 38 39 40 41 43 44 45 46 44 46 47 49 51 53 54 55 53 53 54 53 54 55 55 55 55 54
50 47 47 45 43 45 41 37 45 40 38 35 35 35 36 36 35 35 36 36 36 36 36 37 39 40 41 42 43 45 45 46 46 48 50 51 52 54 55 57 56 55 57 56 56 56 57 56 57
48 45 42 43 43 44 43 43 47 41 39 39 36 35 36 37 37 36 36 37 38 38 39 40 40 40 40 41 42 43 44 45 45 47 48 50 53 54 54 54 56 59 60 60 60 60 60 59 59
38 41 38 39 41 42 42 41 45 41 41 39 37 35 35 35 36 37 37 37 38 39 39 40 40 40 40 40 40 40 41 44 46 47 49 51 52 54 55 57 58 59 61 63 65 64 63 61 62
31 39 35 36 39 44 45 43 46 37 37 36 34 34 35 36 36 36 36 36 36 37 38 38 38 38 37 38 39 41 42 43 45 48 50 52 54 56 58 60 62 64 66 67 67 66 66 65 65
26 30 35 34 35 36 38 42 44 44 40 36 35 33 31 33 35 36 36 36 37 37 36 36 36 36 37 38 40 41 42 43 45 47 49 52 54 56 58 61 62 65 67 68 68 69 68 66 64
33 29 28 34 33 32 34 37 40 38 39 37 34 32 32 33 33 35 36 36 36 35 35 34 34 35 36 37 37 37 40 42 44 47 50 51 51 52 56 60 64 66 68 69 68 66 65 63 63
27 28 26 26 29 27 28 32 30 29 30 31 32 32 33 34 34 34 34 34 33 31 31 32 33 32 31 32 34 37 40 41 45 48 46 45 50 55 55 57 60 62 67 69 68 64 63 61 59
24 24 24 23 24 25 25 29 26 25 26 27 28 28 28 29 29 29 29 29 29 31 31 29 28 27 28 33 36 34 35 37 42 41 48 50 53 53 49 56 61 62 57 60 58 56 55 54 54

GFSSGP_500_spd_066.txt.gz
Wind_Speed
55 51 47 44 43 41 36 36 37 31 28 30 22 22 23 21 22 20 18 15 14 12 12 10 10 11 11 10 11 11 11 12 14 15 16 16 15 15 16 16 16 16 17 17 17 17 18 19 20
58 54 50 48 47 42 37 35 37 32 35 25 24 25 23 29 21 20 17 16 16 14 13 13 13 14 13 13 14 12 13 12 14 15 15 14 14 14 14 13 14 14 15 15 16 17 18 19 18
61 58 55 54 49 44 38 35 39 38 30 31 29 28 30 30 23 22 21 18 17 16 15 15 16 15 13 14 14 12 12 12 13 12 12 12 11 13 13 14 14 15 15 16 17 17 18 18 17
57 55 57 55 52 44 41 43 45 38 33 33 30 31 29 26 23 24 23 20 19 19 18 18 18 16 14 13 13 13 13 12 12 12 14 15 15 16 16 17 17 18 18 18 19 19 19 18 18
42 52 54 55 50 46 39 48 46 38 36 34 32 36 33 31 28 26 24 23 22 20 21 20 19 18 16 15 13 14 14 15 15 16 18 18 19 20 20 20 19 19 19 20 20 20 20 19 19
39 48 56 57 51 46 45 47 46 40 38 35 34 37 34 32 30 28 27 27 25 22 23 21 20 19 16 16 16 16 16 16 18 20 21 20 20 20 20 20 21 21 21 21 21 21 21 21 21
43 42 48 50 46 46 44 47 44 38 38 34 40 37 37 33 32 31 29 29 27 23 24 22 21 20 19 19 19 19 19 19 20 21 21 20 20 21 22 22 22 22 22 22 22 21 21 21 21
50 42 43 54 43 46 44 45 41 39 36 42 38 40 40 35 34 33 31 29 29 27 25 24 22 22 22 21 21 22 23 23 22 20 20 20 22 23 24 24 24 23 22 21 21 20 20 19 19
54 55 45 37 52 44 44 42 43 42 40 41 36 43 41 32 33 33 31 30 29 28 26 24 24 24 24 24 24 25 25 25 24 23 20 20 22 23 25 25 24 24 23 21 20 19 18 18 19
52 58 44 38 38 45 43 33 46 43 39 38 39 37 35 32 32 32 30 30 29 29 27 25 25 26 26 26 28 27 27 26 25 25 24 24 22 23 23 23 24 23 22 21 19 19 18 19 19
51 49 45 46 51 51 45 44 49 44 42 40 39 38 37 34 32 32 31 30 29 28 28 28 27 27 28 26 29 28 27 27 27 26 26 24 23 23 22 22 23 23 21 21 20 20 21 21 21
50 46 50 51 52 50 47 50 37 43 41 43 44 48 37 37 34 33 33 32 31 29 29 29 29 28 27 27 27 28 28 29 28 26 27 25 23 23 23 23 23 23 23 23 23 23 23 23 23
52 49 51 52 51 42 51 42 39 43 44 47 46 41 36 38 37 35 34 34 32 30 30 30 29 28 28 28 28 29 28 28 28 28 27 29 27 26 27 25 26 26 25 25 26 26 26 26 25
51 57 51 55 51 43 43 41 43 43 50 48 43 41 41 40 38 37 35 33 33 32 30 30 29 29 29 29 29 30 29 28 29 29 29 29 31 31 31 31 28 28 27 27 26 27 27 26 28
51 56 57 52 49 45 42 46 50 44 46 43 42 43 42 40 39 37 36 35 34 34 34 30 31 31 30 31 31 30 30 31 30 31 30 31 32 33 33 34 33 32 33 31 31 29 29 30 30
49 53 56 53 50 49 48 42 46 40 45 40 42 43 43 42 40 40 38 37 37 37 34 34 33 32 33 32 33 33 33 33 32 32 33 33 35 36 35 36 36 37 36 37 35 35 34 33 34
48 53 53 52 49 48 44 44 42 44 46 42 41 41 43 41 40 39 39 40 39 36 37 36 34 34 35 35 34 35 36 34 35 36 36 37 38 39 39 39 39 40 38 37 38 39 39 39 39
40 43 49 50 48 48 46 44 44 41 44 46 42 40 39 39 39 39 40 40 37 36 36 37 37 37 37 37 37 36 37 37 39 40 40 41 41 41 41 42 41 42 41 41 40 40 42 41 42
38 43 45 47 48 48 46 47 45 41 38 39 45 43 42 40 40 40 38 37 38 40 40 39 39 39 39 40 40 38 37 41 43 42 43 42 41 42 43 43 43 44 44 44 45 45 44 45 45
41 41 46 45 48 44 46 45 49 47 40 40 41 41 42 42 43 40 39 42 43 42 42 41 41 42 41 41 42 44 40 37 42 44 43 44 45 45 47 46 45 46 47 46 47 47 45 46 48
38 42 45 47 46 41 39 40 42 51 45 39 39 40 41 40 41 41 41 42 43 43 44 44 43 42 42 43 42 43 46 40 38 43 46 46 48 48 49 49 48 48 49 49 49 50 49 49 49
38 43 40 46 42 41 39 39 35 34 42 41 38 37 37 37 37 36 37 39 40 40 38 38 38 40 41 42 42 43 43 45 41 42 46 47 49 50 52 52 53 54 53 53 53 53 52 54 53
37 41 43 41 43 44 40 39 36 36 33 38 37 36 33 34 33 33 32 31 32 33 33 34 35 36 39 39 40 41 42 43 44 44 44 45 46 47 49 51 53 55 57 58 57 57 58 58 58
31 36 39 38 43 44 40 39 38 37 33 32 33 33 32 33 32 31 33 34 35 35 35 34 34 34 36 37 39 39 40 42 42 44 44 44 45 46 48 49 51 53 55 56 57 59 60 61 61
26 30 37 38 42 42 41 41 40 37 36 33 33 33 34 34 33 35 36 36 35 34 34 35 35 36 38 38 39 39 40 40 40 40 41 44 46 47 48 50 53 54 56 57 60 62 64 64 65
31 27 36 38 40 40 42 42 40 40 38 36 34 34 35 36 36 36 35 35 34 35 36 37 38 38 38 38 38 37 36 37 39 41 42 43 44 46 48 50 52 54 56 57 58 59 61 63 66
24 28 30 34 36 39 40 43 41 43 38 35 35 36 36 35 34 35 36 36 36 37 37 37 37 37 36 36 35 35 36 37 38 38 39 42 44 46 48 51 50 50 52 56 58 60 62 63 64
25 19 27 32 33 36 41 42 42 41 41 38 36 34 33 33 32 32 32 35 37 38 38 37 36 35 34 34 34 35 35 34 35 36 38 39 41 43 44 47 52 53 55 57 58 59 62 67 64
18 32 23 24 30 31 32 35 36 35 35 35 35 38 40 37 36 37 38 37 36 36 36 35 34 32 31 32 32 30 30 32 34 35 35 36 35 36 39 43 47 53 52 53 49 58 65 57 56
19 28 29 29 23 26 31 33 32 32 31 29 30 32 34 36 38 39 40 39 37 34 32 30 30 30 30 29 28 28 30 31 31 28 28 23 22 26 31 35 39 47 54 56 50 53 59 51 50

GFSSGP_500_spd_069.txt.gz
Wind_Speed
54 54 52 49 46 44 41 40 42 40 36 31 27 26 27 24 24 18 16 15 15 13 12 11 9 7 6 7 6 7 8 8 9 9 10 11 11 13 14 15 13 13 13 14 14 14 15 16 16
57 56 55 52 50 45 42 42 43 39 31 28 25 26 28 27 24 19 14 13 14 13 13 11 9 9 8 9 9 10 10 11 11 11 11 11 11 11 13 12 12 13 13 13 13 14 14 15 16
66 59 58 55 52 45 40 42 42 37 32 31 30 31 34 27 21 20 18 16 17 14 13 13 12 11 10 11 12 11 11 11 11 10 10 11 11 12 13 13 13 14 14 15 15 15 16 17 18
65 65 60 58 53 45 41 44 46 43 35 34 33 33 31 23 22 24 18 17 15 16 15 15 15 13 12 12 13 13 11 10 10 10 11 12 12 13 15 17 16 15 15 15 16 17 17 18 18
59 62 63 60 54 46 48 45 47 45 36 35 36 35 32 28 26 27 22 19 19 19 17 17 17 15 14 14 13 13 12 12 13 13 13 14 16 17 16 17 16 16 17 17 17 17 17 18 18
50 53 59 56 55 47 52 49 46 45 38 36 38 37 33 30 29 27 25 19 20 21 20 20 20 18 17 16 13 13 14 15 15 15 17 18 18 18 18 19 18 17 17 17 18 17 17 17 18
46 47 45 55 49 45 48 52 50 46 38 34 40 38 34 32 32 29 26 23 22 24 23 22 21 20 18 16 16 15 15 15 14 17 19 20 19 19 20 20 19 18 17 18 19 19 18 17 17
49 38 42 48 55 47 39 47 46 45 39 39 43 40 34 31 32 32 30 27 26 27 26 25 23 21 21 19 17 17 17 16 17 18 18 19 20 20 20 20 19 18 18 18 19 19 18 17 16
53 46 42 43 48 43 41 45 45 43 42 44 45 41 37 34 33 32 32 28 28 28 27 26 25 23 21 19 18 18 19 20 19 20 19 18 18 20 20 19 19 18 18 18 18 18 18 18 17
51 58 41 37 39 46 41 39 48 44 42 45 45 41 38 36 33 31 32 31 30 28 27 26 25 23 21 21 21 21 21 21 22 21 21 19 19 20 18 17 18 18 18 19 19 19 20 20 20
48 49 47 40 41 46 42 44 33 50 47 49 40 37 38 35 34 35 32 32 31 30 27 27 25 24 22 23 23 22 22 21 22 23 24 21 22 21 20 18 18 18 20 21 20 21 21 23 23
45 48 50 46 46 42 49 39 31 41 49 49 46 42 41 38 36 37 35 33 32 31 30 27 27 26 24 25 24 22 22 22 22 23 25 22 21 23 23 22 20 21 22 23 24 23 23 24 25
44 48 49 44 49 45 32 46 47 41 43 47 46 44 42 40 37 35 36 35 32 31 30 30 29 27 26 25 24 23 23 24 24 24 26 26 22 23 25 25 24 24 25 25 26 26 26 27 26
46 46 50 52 47 47 43 41 46 48 36 44 47 45 41 38 38 37 36 34 33 31 31 32 30 28 27 26 26 25 24 26 26 24 25 27 26 25 26 27 26 27 28 27 28 30 30 30 31
47 47 48 51 48 44 42 46 40 43 51 45 45 44 40 40 40 38 36 36 35 33 34 32 30 29 29 29 28 27 27 27 28 27 26 28 28 28 28 29 29 29 31 32 31 32 32 32 32
41 46 49 44 48 44 40 42 33 47 51 46 41 40 42 42 40 39 38 38 38 36 34 32 33 33 31 31 31 30 30 29 29 30 30 31 32 32 31 31 33 33 34 35 35 35 35 35 35
43 41 47 46 44 45 41 43 43 46 48 48 44 41 41 42 42 40 40 38 38 38 36 33 33 33 33 33 32 31 32 31 32 32 33 34 34 35 35 35 34 35 36 35 36 37 39 39 38
37 40 35 42 43 41 45 42 44 41 45 44 46 42 40 41 40 39 40 41 39 36 35 35 35 34 36 36 35 34 34 33 34 34 35 35 35 35 37 37 38 38 38 39 38 40 41 42 42
33 33 33 31 41 45 42 48 39 44 42 42 44 44 40 39 40 41 40 39 37 35 34 37 38 37 36 36 36 36 36 38 36 39 39 38 38 37 37 39 41 42 42 42 42 43 43 43 45
33 30 32 33 38 46 45 45 51 38 41 41 39 46 47 43 41 39 36 34 33 36 37 37 38 40 40 40 39 39 38 39 41 41 40 43 42 40 41 42 43 44 44 45 44 45 46 44 48
29 25 30 34 33 43 45 48 44 44 41 40 39 38 43 48 47 43 39 35 37 39 39 40 41 41 42 41 42 44 44 41 39 39 39 43 46 46 44 45 45 46 46 47 46 48 50 49 49
25 27 29 33 36 38 42 44 40 38 45 41 37 39 40 40 43 44 41 40 39 39 40 42 42 43 44 44 43 43 43 42 41 40 39 41 46 47 48 48 47 46 47 49 50 52 51 52 52
26 27 29 31 34 38 42 42 37 39 41 44 44 43 39 36 36 35 34 35 37 39 41 43 40 39 38 39 39 39 40 41 41 42 41 41 44 46 47 47 47 46 47 48 50 52 55 54 57
32 28 28 35 39 38 38 39 38 32 30 31 39 48 43 37 33 34 35 35 35 34 33 33 33 34 35 36 37 38 38 40 40 41 41 42 43 44 43 43 44 46 48 49 51 53 56 58 59
30 28 30 32 37 36 35 41 35 35 32 31 27 39 39 39 35 35 35 34 32 31 33 34 35 35 35 36 36 38 39 39 39 40 41 41 40 40 42 42 42 45 47 48 50 52 54 55 57
33 37 27 27 32 33 35 40 36 33 33 33 31 29 33 33 32 32 30 31 32 33 35 36 36 36 37 38 37 37 38 39 39 39 38 38 39 41 41 41 42 43 45 46 46 49 53 56 58
35 32 26 23 24 30 36 37 37 35 32 32 34 32 31 32 33 32 32 33 34 35 36 37 37 38 39 38 37 37 37 37 37 36 37 38 38 38 39 40 40 40 40 42 41 47 52 52 56
28 27 25 28 28 30 34 36 38 36 35 33 31 32 35 33 34 35 35 34 36 37 38 38 39 38 38 37 37 36 35 34 35 36 36 36 36 37 37 38 37 32 34 38 40 42 44 45 46
28 24 25 25 27 28 30 34 33 34 36 33 33 34 34 34 35 36 36 35 35 35 35 35 37 37 37 36 35 34 34 34 34 32 32 34 33 33 35 31 30 30 33 37 40 42 43 48 49
28 29 25 26 21 24 27 32 30 32 35 36 36 38 39 41 43 42 40 37 37 37 38 38 37 36 35 33 32 32 31 31 30 31 33 31 29 30 27 30 29 31 35 37 38 38 39 41 41

GFSSGP_500_spd_072.txt.gz
Wind_Speed
61 55 53 51 50 48 43 40 42 43 42 40 39 37 34 33 28 22 19 18 18 17 15 13 12 10 8 5 3 4 4 4 6 6 7 8 9 10 11 11 12 12 13 14 14 14 15 15 15
63 59 56 54 52 49 44 44 43 42 40 39 37 35 34 32 26 21 18 16 19 16 16 14 12 9 7 5 5 5 6 7 8 8 9 9 10 11 11 12 13 13 14 14 13 15 15 15 15
56 64 58 58 54 49 45 47 45 42 40 37 36 37 34 30 26 21 20 16 16 16 16 14 12 10 8 6 7 5 8 7 8 8 10 11 10 11 12 12 13 14 14 14 15 15 15 14 14
58 64 60 60 54 48 49 49 46 42 40 35 39 39 37 32 27 24 22 19 19 18 16 15 14 11 8 7 9 7 9 8 10 11 11 10 10 12 14 15 13 12 13 14 16 16 15 14 15
60 59 67 61 54 49 52 50 49 48 44 41 41 39 34 31 28 26 21 20 18 17 17 16 15 12 11 9 10 10 10 9 11 11 10 11 13 14 15 14 13 13 14 13 14 15 15 16 16
63 57 63 62 52 52 52 50 52 49 43 43 42 41 37 34 31 30 26 24 21 20 19 17 16 14 13 12 11 12 12 13 12 12 13 14 16 15 15 14 14 16 15 15 15 16 16 16 17
60 60 59 62 52 53 53 53 52 51 45 45 44 42 38 36 32 29 26 24 23 21 21 19 18 17 15 14 13 13 13 13 13 15 17 17 17 17 16 16 15 16 15 14 15 16 17 16 16
42 59 58 63 58 53 58 58 56 52 48 46 45 44 38 36 33 30 28 26 24 23 22 21 20 19 17 15 15 15 16 15 14 16 16 17 18 18 18 17 17 16 16 15 16 17 17 17 17
48 51 52 60 62 58 59 58 57 55 52 49 48 45 42 39 35 31 30 28 27 25 25 24 23 21 19 17 18 18 18 17 16 16 16 15 15 16 18 19 18 17 17 17 18 18 17 17 17
53 55 46 52 55 59 57 59 55 56 53 52 49 44 42 40 37 32 31 32 31 29 27 26 24 23 21 21 21 21 19 18 16 16 15 16 16 16 17 17 16 17 19 19 19 19 19 20 20
52 43 50 45 46 52 58 51 54 53 55 52 47 45 42 38 38 34 32 32 34 32 29 27 25 24 24 23 22 22 19 18 17 18 17 17 18 19 19 18 18 19 20 21 22 22 22 23 24
50 57 46 45 47 50 51 56 53 55 56 55 49 47 45 42 39 37 35 32 31 31 30 28 27 27 26 25 23 20 20 19 19 19 18 19 20 22 20 19 21 22 23 24 24 24 24 26 26
43 49 52 48 49 50 46 34 48 48 52 57 53 50 51 47 43 40 38 37 34 31 30 30 29 27 27 25 23 22 21 21 20 21 21 20 22 24 25 24 25 25 26 25 26 25 25 26 29
44 47 51 49 48 49 53 40 47 40 45 50 53 46 48 49 47 42 40 39 37 35 32 32 31 29 27 26 25 24 23 23 21 23 23 23 23 24 26 27 27 27 27 28 28 29 29 29 30
43 45 46 47 49 59 50 43 38 35 43 42 45 46 47 47 46 44 43 41 39 38 36 34 32 29 29 29 28 27 26 26 25 25 26 27 26 26 27 29 30 30 30 31 31 32 32 33 34
43 39 40 42 48 53 55 41 36 51 36 34 43 46 45 43 43 44 43 43 41 40 38 38 34 32 32 32 31 29 27 27 27 27 27 28 29 29 29 30 30 32 32 32 33 34 35 35 36
45 37 34 36 45 46 52 43 35 36 40 46 42 45 48 43 42 42 44 43 41 40 38 38 36 35 33 33 32 31 30 30 30 29 30 31 31 31 32 31 33 34 34 33 33 34 35 36 37
38 44 35 37 38 41 45 44 38 39 39 39 47 51 48 47 44 45 45 44 43 41 41 37 35 37 38 37 34 33 33 32 31 31 33 34 35 35 36 36 35 36 35 36 37 37 38 39 40
34 33 34 30 35 39 40 39 41 41 42 38 42 47 50 48 47 45 44 44 43 41 39 38 37 36 38 39 38 37 34 35 34 35 35 36 38 38 39 37 37 38 39 39 40 41 41 42 43
31 32 31 35 33 33 42 42 43 43 40 40 37 46 45 49 49 47 44 42 41 40 38 38 40 41 39 38 38 37 37 37 37 37 39 41 40 41 39 39 37 38 41 43 43 45 45 44 44
31 28 29 28 33 33 33 42 45 47 44 41 40 37 45 47 49 48 46 44 42 41 42 42 41 40 39 39 38 37 37 38 40 43 44 44 43 42 42 40 40 41 43 44 44 45 45 45 46
30 30 28 28 30 32 32 32 37 44 45 42 37 39 39 43 47 48 49 46 44 43 42 40 39 38 38 38 40 41 40 41 42 43 43 42 42 43 44 45 45 44 44 44 45 45 43 46 48
25 27 28 25 26 29 35 38 35 45 47 44 40 36 39 40 42 45 47 48 44 44 45 43 42 40 39 40 40 41 40 41 41 41 40 40 41 41 44 46 47 47 47 45 45 46 46 47 49
22 25 25 26 29 32 28 34 40 40 41 42 40 42 40 40 39 39 39 41 45 46 48 49 50 47 47 44 44 40 38 37 38 40 40 40 40 41 44 46 46 46 45 46 47 46 46 47 49
30 28 29 30 32 32 32 32 29 38 43 41 40 38 45 43 40 37 37 37 38 40 40 40 40 40 40 39 37 37 38 40 40 41 41 42 43 43 44 43 42 43 44 45 44 44 46 47 45
25 27 31 32 30 24 31 36 27 33 41 39 37 37 42 45 48 44 40 36 38 38 38 38 37 36 36 37 39 40 40 41 42 41 42 43 42 41 40 40 41 41 41 41 42 42 40 40 42
25 28 27 31 24 19 23 29 34 33 37 38 36 34 32 32 39 41 40 39 36 36 36 37 37 37 38 39 40 40 41 41 42 42 41 40 40 39 39 40 40 39 40 41 42 37 37 38 42
26 22 30 30 29 28 29 25 28 32 32 35 34 32 31 31 32 37 38 37 37 37 36 37 37 38 40 40 41 41 42 42 41 41 39 38 38 38 39 38 38 38 39 36 35 35 37 41 42
28 28 36 35 32 29 27 24 25 28 31 33 33 36 38 39 37 36 36 39 40 39 40 41 42 42 42 43 43 42 42 40 39 39 38 37 37 36 35 37 37 37 32 35 34 36 38 39 41
29 24 27 31 28 24 22 20 20 24 27 30 31 34 32 33 40 38 37 36 36 38 40 40 40 39 39 39 38 38 38 38 36 35 36 36 34 34 35 36 35 32 35 36 35 35 39 40 42

GFSSGP_500_spd_075.txt.gz
Wind_Speed
59 58 56 50 49 49 46 40 40 42 41 41 40 38 37 32 31 27 23 22 19 19 17 15 14 12 11 9 6 4 3 3 3 3 5 6 6 7 8 9 11 12 13 13 13 13 13 14 15
61 60 57 55 53 50 45 41 42 40 43 43 40 39 37 34 32 30 23 19 19 19 19 17 15 13 10 8 5 5 3 3 4 4 5 6 7 9 11 12 12 12 12 13 13 14 14 13 13
59 61 61 61 55 49 45 45 44 43 44 44 42 41 39 38 34 28 24 20 18 19 18 17 15 13 10 9 6 5 4 4 4 4 6 8 10 11 11 12 13 13 13 12 12 13 13 13 13
58 62 61 58 57 48 47 49 47 45 45 45 44 42 41 39 33 27 25 23 18 19 19 17 16 13 10 8 8 5 4 4 5 6 7 9 10 11 12 14 14 13 14 14 14 13 13 13 15
65 57 61 69 58 49 49 51 51 48 46 44 42 42 41 39 31 29 25 23 22 20 18 17 16 13 11 8 8 8 6 6 8 9 9 10 12 13 14 14 14 14 15 15 14 13 14 15 16
70 64 61 70 54 48 52 54 52 50 48 45 43 41 41 37 33 31 27 25 22 21 20 19 16 14 11 9 9 10 10 9 11 10 11 11 13 15 16 16 14 14 14 14 14 14 15 16 17
59 71 60 62 54 50 54 54 54 53 52 48 46 46 41 38 35 34 30 27 25 24 22 19 16 14 11 10 10 11 11 12 13 14 14 14 14 16 16 16 15 15 15 14 15 15 16 16 17
55 66 67 55 58 53 56 56 56 56 55 51 49 48 42 36 36 35 33 29 25 24 22 20 18 16 13 13 13 13 13 13 14 15 15 16 18 18 17 16 16 15 15 16 16 16 16 17 17
54 59 69 60 60 57 59 57 59 59 57 55 51 48 43 40 39 35 33 30 27 25 23 22 20 18 16 15 15 16 16 15 15 15 14 15 16 17 16 16 17 16 17 17 18 18 18 18 19
50 54 68 55 55 59 61 62 61 61 58 55 52 50 46 42 39 37 34 31 30 28 27 25 23 21 19 18 18 18 18 17 16 15 14 15 15 15 14 14 16 18 20 21 20 21 21 22 22
52 50 46 46 60 63 62 65 64 62 59 55 52 52 47 44 40 37 35 36 34 30 28 27 25 23 22 21 21 20 19 19 18 16 16 16 17 17 16 16 18 19 20 21 21 22 24 25 24
49 49 43 47 56 58 61 62 65 65 60 58 56 54 50 46 42 40 39 36 34 32 30 27 26 26 25 24 23 21 21 20 19 18 17 18 19 19 19 20 20 22 22 23 23 23 24 26 27
50 54 47 47 42 51 64 58 61 64 63 59 57 52 52 49 47 43 40 38 35 31 30 31 30 29 28 26 25 24 23 22 21 21 20 20 21 21 21 21 22 24 24 24 25 25 26 27 28
48 53 50 48 41 46 54 53 58 62 62 62 57 57 54 51 49 45 42 39 38 35 33 30 30 30 29 27 26 26 26 25 23 23 23 23 23 23 23 24 25 26 26 27 28 29 29 30 31
45 51 52 50 44 49 50 66 43 49 52 60 56 54 54 54 50 48 46 43 41 39 37 36 34 31 31 30 30 30 29 26 25 25 24 24 25 25 26 26 27 28 29 30 31 31 31 32 32
44 47 51 54 56 47 56 57 64 47 48 53 57 57 51 51 52 48 46 44 43 41 40 39 36 34 33 33 32 31 30 27 27 28 27 27 26 27 28 28 30 31 32 33 34 34 34 34 35
46 43 36 39 48 47 51 50 51 52 52 53 54 52 52 51 49 46 44 44 44 43 42 41 38 36 35 35 35 34 31 31 32 30 30 30 29 29 29 31 33 34 34 34 35 35 36 37 39
45 41 35 29 36 41 51 46 53 40 43 49 53 49 52 52 48 49 47 46 45 44 42 42 41 38 38 38 37 37 35 33 33 32 31 31 32 32 33 33 35 36 36 35 37 38 38 38 40
38 42 36 28 34 36 45 47 51 56 41 44 47 45 46 47 50 51 51 50 47 43 42 43 43 42 42 41 41 40 38 37 35 34 33 34 35 35 36 36 38 39 38 38 39 40 41 42 43
31 34 35 32 29 33 38 40 47 38 43 43 48 42 43 42 42 50 49 48 47 46 44 43 43 42 43 44 43 42 39 38 37 35 36 37 37 38 38 39 40 40 39 39 40 42 44 44 44
32 31 29 32 36 30 31 37 39 38 39 41 41 38 37 42 48 48 49 50 48 47 47 46 45 44 44 43 42 41 41 40 39 38 37 38 40 42 43 43 43 42 41 41 42 44 45 45 45
32 29 29 30 30 36 35 35 34 44 38 41 40 44 43 35 36 43 48 51 50 48 48 47 46 44 43 42 42 42 42 41 39 40 41 44 45 45 44 42 42 42 42 42 43 44 45 44 43
30 29 30 30 30 29 31 40 35 35 46 40 40 40 40 43 37 39 45 47 51 52 49 46 45 45 44 43 43 43 42 42 42 42 43 45 45 44 43 42 43 44 45 46 45 45 43 43 44
28 29 29 28 26 28 27 29 26 38 38 40 42 42 43 43 42 39 40 45 48 50 49 49 48 46 45 44 44 43 43 44 45 44 43 41 40 41 41 42 44 45 46 47 47 45 44 45 45
27 27 29 29 31 31 28 28 18 28 38 41 43 44 45 46 43 41 42 43 45 49 51 51 49 48 48 47 49 52 50 47 47 46 43 41 41 42 42 44 44 46 47 47 45 45 45 44 44
25 26 28 30 30 31 28 26 23 26 32 40 43 45 46 49 50 47 45 44 43 43 45 47 50 50 50 49 47 45 44 43 42 40 41 41 43 43 45 45 45 45 44 43 44 43 42 42 41
27 30 31 31 32 31 29 25 25 30 32 36 40 44 45 44 45 47 50 45 42 41 40 41 43 43 45 45 45 42 40 40 41 42 43 43 45 45 45 44 43 41 41 41 41 40 40 37 36
28 26 29 29 30 28 25 19 18 24 28 37 39 41 40 40 40 42 47 49 48 45 42 40 40 41 42 42 42 41 41 42 43 43 44 45 45 45 44 42 41 40 39 38 39 40 37 35 37
30 28 25 26 30 28 24 21 21 24 28 30 38 38 38 39 44 42 39 41 43 45 45 44 41 39 40 40 41 41 42 43 45 47 47 46 44 43 42 40 39 37 37 38 39 36 36 38 39
39 32 32 30 30 30 27 19 18 20 22 24 30 32 34 40 38 38 36 34 35 41 40 40 41 42 41 41 42 44 46 47 45 45 45 43 42 40 39 38 37 37 38 38 35 35 40 39 40

GFSSGP_500_spd_078.txt.gz
Wind_Speed
52 52 52 48 47 47 45 41 38 38 39 39 40 39 37 33 31 26 21 19 18 18 17 14 12 11 9 9 7 6 4 2 1 1 3 3 4 5 6 8 10 10 11 11 11 12 13 13 12
54 55 55 53 51 49 45 41 39 41 43 42 43 39 38 35 33 30 26 22 21 20 19 16 14 12 10 8 6 5 3 3 2 2 3 3 5 7 9 9 10 11 12 13 13 13 13 14 13
56 58 57 57 55 50 45 43 42 41 43 44 44 41 39 36 34 32 28 22 20 19 19 17 15 13 11 9 7 6 5 4 4 2 3 4 6 8 9 9 11 12 12 12 12 13 15 14 13
57 57 59 59 56 51 46 45 46 43 44 46 45 42 40 38 36 32 27 23 22 20 20 18 17 14 12 10 8 7 5 6 4 3 5 7 8 9 10 10 11 12 12 13 13 14 14 14 13
55 53 59 61 57 53 49 46 48 46 46 46 47 44 42 40 38 34 28 25 24 23 21 20 17 14 12 10 10 8 7 6 4 5 7 8 9 10 11 12 13 12 13 14 14 14 13 14 15
53 53 53 59 58 54 53 48 50 49 47 46 45 46 45 42 39 34 29 27 25 25 21 20 17 16 14 12 11 10 8 7 7 7 9 10 11 12 12 13 13 13 13 14 14 14 15 16 17
56 52 47 51 59 52 57 51 51 51 50 48 46 45 45 42 39 34 31 28 25 23 22 19 18 17 15 13 11 10 10 9 9 10 11 12 13 13 13 13 14 14 14 14 14 15 16 17 18
57 53 49 54 58 53 57 55 52 52 52 50 48 45 43 41 39 35 32 29 27 25 23 20 18 17 16 14 12 12 11 11 11 12 13 15 17 16 15 14 14 14 15 15 15 15 16 17 19
53 53 47 50 56 52 57 56 55 53 53 52 49 46 44 43 40 37 35 31 30 26 25 22 20 19 17 15 14 13 13 13 12 12 13 15 15 15 16 15 16 16 16 17 17 18 18 19 19
46 47 43 46 60 48 57 56 58 54 55 55 53 49 46 44 40 38 35 33 31 29 28 25 23 21 20 17 15 15 15 15 14 14 14 15 15 15 14 15 16 17 18 19 19 20 20 21 21
48 46 44 44 59 59 49 60 60 57 57 57 55 51 47 46 43 39 37 38 37 34 30 28 26 24 21 19 17 17 18 17 16 16 17 17 16 15 15 15 17 17 18 18 19 20 21 23 23
49 46 44 41 43 48 49 61 62 60 58 58 55 51 47 48 46 42 41 42 36 35 32 29 27 25 23 22 21 19 20 20 18 17 19 18 18 18 17 17 18 18 19 20 21 22 23 25 26
46 47 44 38 39 50 48 59 61 61 62 58 56 54 48 46 46 43 43 42 38 35 32 31 29 27 26 25 23 22 22 22 21 20 20 21 21 20 19 20 20 21 22 22 24 25 26 27 28
48 46 45 44 41 38 48 55 62 59 62 62 56 53 51 46 49 47 44 42 39 36 34 33 32 31 29 27 26 25 26 26 24 23 22 23 23 22 22 22 23 23 24 25 26 27 28 29 29
46 44 44 45 44 42 41 47 62 59 59 60 60 55 53 51 50 49 47 44 42 40 37 36 34 32 30 29 28 29 29 28 27 26 26 26 26 25 24 25 26 25 26 28 29 29 30 31 31
38 44 43 46 53 42 39 46 58 56 60 61 60 60 56 56 48 50 51 47 43 41 40 40 37 35 33 31 31 31 31 31 30 30 29 29 28 27 27 27 29 29 29 30 31 33 33 33 34
42 43 42 48 52 47 42 45 58 55 57 60 59 58 59 57 52 47 49 49 47 44 42 40 39 37 37 35 34 33 33 33 33 33 32 31 29 30 29 30 31 32 31 32 33 36 37 37 37
42 42 39 43 46 46 46 42 49 70 48 59 58 55 57 61 56 53 52 49 48 47 46 43 41 39 38 38 37 37 36 35 35 34 34 34 32 32 31 31 33 34 34 36 37 38 40 40 39
38 40 37 36 36 42 51 51 52 65 69 53 54 50 47 54 60 56 55 55 52 50 48 46 44 43 41 40 40 39 39 38 37 37 36 36 36 35 34 34 34 35 37 39 40 41 42 42 41
35 37 39 33 32 33 38 46 55 47 63 41 43 55 51 54 56 59 59 58 57 54 51 48 47 45 44 42 42 42 41 41 40 39 39 39 38 38 37 37 37 39 41 43 43 42 41 40 41
31 31 36 34 33 31 31 33 42 52 44 63 39 51 55 56 56 55 56 59 56 52 51 51 51 49 48 47 46 46 45 43 42 42 41 40 39 39 39 40 41 44 46 46 44 42 40 41 43
31 30 32 38 38 35 29 37 32 34 44 49 54 45 50 53 49 45 49 49 52 51 50 48 48 49 49 49 49 48 46 45 44 43 43 42 42 42 42 43 45 47 47 45 43 42 42 43 43
31 31 32 31 34 36 39 37 30 32 38 34 35 44 44 43 41 40 43 46 46 46 47 48 49 49 49 48 47 46 46 45 44 43 44 44 45 45 46 47 47 45 43 43 43 44 44 44 44
32 31 31 29 29 27 24 27 24 33 38 35 37 38 41 43 41 43 41 36 40 47 49 49 51 51 50 49 49 49 48 47 47 46 45 46 46 46 50 51 48 46 43 44 45 47 46 45 42
30 30 29 29 29 27 25 24 12 26 32 32 31 34 41 45 41 41 42 45 42 41 46 49 50 52 51 51 51 49 48 48 47 47 46 48 52 53 51 49 46 44 46 47 47 47 45 43 41
23 27 29 31 31 29 25 24 23 17 19 27 35 38 38 42 47 48 48 47 48 47 44 45 49 51 52 52 50 51 51 51 50 51 53 50 48 46 44 43 43 44 46 47 46 46 44 42 42
23 30 31 30 29 28 27 28 24 23 27 31 34 39 40 41 44 50 52 51 49 49 49 46 45 47 50 53 54 54 54 53 52 49 46 43 42 42 42 44 45 46 46 45 44 43 42 40 39
28 25 30 31 33 33 29 27 27 24 24 30 35 39 41 38 42 47 49 50 51 50 48 46 45 45 45 45 47 47 47 47 46 46 43 42 42 43 44 44 46 46 44 43 42 41 39 38 38
30 28 31 33 35 33 30 27 23 24 22 29 34 39 42 41 37 44 47 49 50 50 52 51 47 45 45 43 44 45 46 45 45 45 44 44 43 45 48 49 47 45 43 42 40 38 38 38 35
33 37 35 35 33 29 26 25 23 23 22 27 29 33 38 35 40 42 45 44 45 48 47 48 51 50 48 46 44 44 44 44 44 43 44 45 46 49 48 45 43 41 40 39 38 37 37 34 31

GFSSGP_500_spd_081.txt.gz
Wind_Speed
57 55 54 49 48 46 45 41 39 40 39 40 38 36 33 30 28 25 21 17 15 15 14 13 12 10 9 8 7 6 6 5 4 2 2 0 2 3 4 6 7 8 9 10 12 12 13 13 14
58 57 55 54 50 48 44 41 40 40 41 40 39 39 36 33 30 29 25 21 17 16 15 14 13 11 10 9 7 5 5 4 3 2 2 1 2 3 5 7 9 9 10 10 11 11 12 13 13
60 58 58 56 52 48 45 42 40 41 42 42 41 40 38 36 33 31 30 25 19 17 16 16 15 13 11 10 8 6 5 4 3 3 3 3 3 4 6 8 9 10 9 9 11 11 11 13 13
61 60 58 56 51 48 48 44 43 41 42 44 43 42 39 37 36 34 32 27 23 18 16 18 16 15 12 11 9 7 6 5 5 4 3 4 5 6 7 7 8 9 9 9 10 11 12 13 13
61 61 59 53 48 49 49 47 46 44 43 44 44 43 40 38 37 35 33 27 24 21 18 17 18 16 15 14 11 9 7 7 6 5 5 6 6 6 7 8 8 9 10 10 11 12 13 13 14
58 61 59 50 44 50 52 50 49 47 46 43 44 44 42 40 38 37 34 29 25 22 21 18 20 18 15 14 12 10 8 8 8 6 7 7 7 8 8 10 10 10 11 12 13 13 14 14 14
54 58 55 49 50 52 52 52 52 48 48 45 43 46 44 43 40 39 35 30 26 23 22 20 21 19 17 14 12 11 10 9 9 8 9 8 8 8 9 10 11 11 11 13 13 14 15 15 16
47 56 58 53 52 53 52 52 53 52 50 47 46 47 47 46 43 40 36 31 28 24 23 22 21 20 18 16 14 12 12 11 10 10 11 11 11 11 11 11 11 12 12 13 14 15 16 17 17
47 48 51 53 52 49 54 52 51 53 50 50 48 47 46 46 43 41 38 33 30 25 23 23 22 21 20 18 16 14 13 13 13 11 11 12 13 13 14 14 13 13 12 13 14 16 17 19 20
51 54 54 52 50 47 50 54 53 54 56 53 50 47 46 45 44 42 40 36 33 28 26 26 24 24 23 21 18 16 14 13 14 13 13 13 13 13 14 14 15 14 14 15 16 17 18 19 21
44 51 56 55 51 50 51 54 55 55 57 59 53 50 47 45 44 44 42 39 37 34 31 28 27 26 25 22 19 17 16 16 16 16 16 15 15 14 15 14 14 14 14 15 16 17 19 20 21
44 46 50 55 53 46 52 53 57 54 58 60 56 51 49 45 44 43 43 41 38 36 34 33 30 28 26 23 22 20 18 17 17 17 18 18 17 17 16 15 15 15 16 17 18 20 21 22 22
45 44 47 49 50 47 49 56 52 55 57 59 60 53 50 48 46 44 45 42 39 36 34 33 31 30 28 25 24 22 20 19 19 20 20 20 19 19 19 18 18 18 18 19 21 22 23 24 26
43 45 45 45 46 45 43 56 52 51 58 61 62 59 52 49 47 44 42 42 40 37 37 35 34 32 30 28 25 24 23 22 22 22 22 23 22 22 22 22 21 21 21 22 23 24 26 27 28
43 43 46 46 44 44 41 46 62 50 53 59 64 62 57 51 48 44 41 43 44 42 40 38 36 34 32 30 29 29 28 26 25 25 24 24 25 25 24 24 25 24 24 25 25 27 28 30 31
41 41 40 45 42 39 40 36 46 51 53 57 62 62 60 53 48 47 45 45 47 43 40 40 38 37 36 35 33 31 29 28 27 28 28 28 28 27 27 28 29 28 26 28 29 30 31 32 34
28 39 42 41 44 44 41 35 46 49 60 58 59 62 60 54 49 48 47 45 49 44 43 42 41 40 39 37 34 32 30 29 30 31 32 31 30 30 30 31 31 30 29 31 32 33 33 36 38
38 36 38 40 42 44 46 43 45 54 55 59 58 59 55 54 52 51 50 45 46 49 46 45 44 44 42 39 37 36 34 34 35 35 35 35 34 33 32 32 33 33 33 34 34 34 37 39 41
39 36 35 36 39 40 44 49 47 42 50 59 62 57 54 52 54 55 51 51 47 49 48 48 48 46 44 42 41 39 38 38 38 38 38 37 37 36 34 34 35 35 36 37 36 37 41 43 43
35 35 36 35 35 39 43 46 49 46 42 56 55 57 51 52 52 52 56 55 54 51 52 50 53 51 48 45 43 42 42 41 41 41 40 40 39 38 37 37 38 38 38 38 39 41 45 46 44
34 33 31 31 34 37 39 43 53 45 43 59 48 48 49 48 51 51 50 55 57 54 55 55 56 54 51 49 47 46 45 44 44 44 43 42 42 41 40 39 40 40 40 40 42 46 48 46 42
31 29 28 28 31 35 39 42 41 48 41 49 41 44 47 47 49 51 51 52 56 63 57 57 56 54 52 51 50 49 48 47 46 46 45 45 44 44 43 43 42 42 42 43 45 47 47 44 42
31 28 27 26 29 33 35 37 26 32 36 35 40 43 44 51 52 56 54 54 53 56 61 61 59 55 53 52 50 50 50 49 48 47 48 48 48 47 46 44 44 44 43 44 49 49 47 44 43
32 30 28 26 25 33 33 32 29 24 24 27 26 31 36 42 45 53 57 53 48 52 55 56 56 57 58 56 54 51 49 49 49 48 48 48 48 47 46 45 47 48 49 52 52 47 45 44 45
31 28 27 27 30 30 28 31 16 27 31 29 27 30 31 35 51 54 49 44 44 44 46 47 47 47 47 47 47 48 50 50 51 51 50 49 49 49 49 48 49 52 55 50 46 43 43 45 46
28 29 29 30 30 28 25 26 16 15 11 21 28 30 31 36 39 41 43 43 43 45 43 42 44 50 52 52 52 52 52 52 51 51 51 50 50 50 51 52 53 50 46 44 43 44 45 46 45
27 31 30 28 29 28 26 27 19 17 16 18 19 24 32 35 35 37 42 45 45 46 46 48 48 46 45 48 51 52 52 53 53 53 52 52 51 51 52 51 46 43 43 43 44 45 46 45 43
24 23 28 31 31 31 29 28 23 22 22 21 24 27 31 32 34 39 42 43 46 50 51 50 50 50 50 47 46 48 50 52 53 54 54 54 53 50 47 46 44 43 43 44 46 45 44 43 42
25 27 26 27 31 33 34 31 27 23 24 27 26 28 31 34 38 38 38 42 46 50 53 55 54 53 52 52 50 50 49 49 48 47 47 46 46 46 45 45 43 43 44 45 45 43 41 39 37
32 29 32 33 31 30 30 27 26 24 21 26 28 28 29 32 34 37 41 38 39 46 51 55 55 55 54 52 49 49 48 48 46 44 45 45 45 45 44 43 44 44 44 43 40 40 39 37 35

GFSSGP_500_spd_084.txt.gz
Wind_Speed
57 56 54 50 49 50 49 44 41 39 39 37 35 33 31 28 25 23 19 17 18 16 14 13 12 11 9 8 8 7 7 7 7 6 3 2 1 1 2 2 3 4 6 8 8 8 9 10 11
57 58 57 54 52 50 48 45 43 42 40 39 37 35 32 30 27 26 23 21 18 17 15 13 12 11 10 8 7 7 7 6 5 3 3 2 2 3 3 4 4 5 7 8 9 9 9 10 11
58 60 60 57 55 51 50 46 44 43 42 41 39 38 35 32 30 29 27 24 21 18 15 14 12 12 11 9 8 9 8 6 5 4 4 3 3 4 4 5 5 7 7 8 8 8 9 10 11
59 61 62 59 57 55 51 48 45 44 44 43 41 40 38 35 32 30 30 28 24 20 17 14 14 13 13 11 10 9 8 7 6 6 4 4 5 5 4 5 6 6 7 7 8 8 9 10 10
59 61 63 61 59 56 52 50 47 45 45 44 43 42 39 37 35 34 32 31 27 21 18 16 14 15 15 13 12 10 9 7 7 6 5 6 6 5 5 5 6 7 7 7 8 8 9 11 12
57 61 63 60 59 57 55 52 49 47 44 44 45 44 41 38 37 35 35 34 29 24 19 18 16 17 16 15 15 13 11 9 8 7 7 6 7 6 5 6 6 7 7 8 9 10 11 12 13
53 57 58 60 63 58 56 52 51 49 46 45 44 46 44 41 39 38 36 36 31 26 21 20 20 18 19 17 17 14 12 11 10 9 9 7 7 6 5 6 7 7 9 9 10 11 12 13 14
51 50 59 64 60 58 54 54 50 50 48 46 45 46 46 44 41 41 38 37 33 28 23 21 22 21 20 19 17 15 14 12 11 11 11 10 9 7 5 6 8 8 9 10 11 12 13 15 16
47 46 54 61 60 57 54 53 52 50 51 48 47 45 46 47 44 42 39 37 33 30 26 23 24 23 22 21 19 17 15 13 12 12 12 11 11 10 8 8 8 9 10 11 12 13 15 17 18
52 49 49 57 60 59 56 54 52 51 51 51 49 47 46 47 47 44 41 39 35 32 29 25 26 26 25 24 22 20 17 16 15 14 14 14 13 12 12 12 11 11 11 12 14 15 17 18 20
50 49 48 54 57 57 57 54 52 52 52 50 50 48 48 47 46 45 44 42 39 36 32 28 28 28 27 26 25 22 19 18 17 17 17 16 15 14 14 14 13 13 13 14 15 16 17 19 20
47 50 52 49 54 55 55 53 52 55 55 54 51 51 49 48 46 45 44 44 43 40 37 33 32 31 29 28 26 23 21 20 19 19 18 18 17 16 16 16 16 16 16 16 17 17 18 19 22
48 52 46 52 51 50 53 53 51 51 56 58 54 53 51 50 49 46 45 46 44 41 38 35 34 33 31 30 28 26 23 21 20 20 20 20 19 19 18 18 18 18 18 19 19 19 20 22 24
51 48 48 53 52 48 53 50 51 49 49 56 60 56 54 53 51 47 46 45 43 43 40 38 36 36 34 32 30 28 25 23 23 22 22 23 22 21 22 22 21 20 20 22 22 22 23 25 27
48 48 49 44 51 50 55 51 45 49 50 54 59 59 56 55 53 51 47 46 44 43 41 39 37 37 35 34 32 31 29 27 26 24 25 25 25 25 25 24 23 22 23 23 24 25 27 29 30
45 50 47 36 47 51 57 50 49 45 49 51 58 57 57 57 52 51 49 47 45 42 40 40 39 39 38 37 35 34 34 32 30 29 28 28 28 28 27 27 27 26 26 26 27 28 30 32 33
38 47 46 39 41 43 49 49 48 43 44 50 56 59 57 56 56 52 50 48 47 44 43 41 42 41 41 39 38 38 37 35 33 32 31 29 29 29 29 30 30 29 28 29 30 31 33 34 35
31 41 42 42 38 41 44 46 45 43 42 47 57 56 59 58 58 55 51 50 49 46 44 42 46 46 43 42 41 41 40 37 35 34 33 32 32 32 33 33 34 33 32 32 32 33 35 36 37
36 27 40 39 40 42 43 44 46 45 42 45 56 61 55 58 59 55 53 51 50 50 47 46 49 48 47 47 45 43 41 40 38 39 38 37 35 35 35 36 36 36 35 35 36 36 37 37 39
41 34 31 34 37 36 39 44 45 46 44 43 52 61 54 55 56 55 53 53 52 51 49 47 48 47 47 50 47 46 44 43 43 42 42 40 39 38 38 38 38 38 38 39 39 40 40 40 41
37 36 34 34 32 32 38 43 46 47 46 46 50 54 59 57 56 53 52 56 55 52 50 51 48 47 43 46 45 46 46 45 45 45 44 43 42 41 41 41 41 41 40 40 41 42 42 43 43
35 32 32 30 29 29 34 39 43 45 48 47 44 52 57 57 57 52 52 54 56 56 56 54 52 52 51 51 48 48 50 50 49 48 47 46 46 45 45 44 43 43 43 43 43 44 45 44 46
28 30 30 29 27 29 33 39 36 36 40 46 52 53 44 60 60 57 54 55 56 53 53 53 58 55 54 54 54 54 55 54 52 50 50 49 48 48 47 46 45 45 46 45 46 46 46 47 50
28 28 28 27 28 30 31 35 37 32 28 33 37 49 40 53 54 50 53 54 51 51 50 52 53 57 57 57 57 56 56 56 55 53 51 50 50 49 48 47 47 48 48 48 47 48 49 52 49
27 28 29 28 30 30 26 30 29 21 32 31 29 35 43 47 42 46 51 48 50 54 57 56 57 55 55 62 61 60 60 59 58 57 55 52 49 50 54 54 53 52 50 49 49 51 52 49 44
23 28 30 30 30 32 23 28 22 17 21 30 34 31 30 30 43 53 48 52 54 53 54 55 53 52 51 53 55 56 55 56 60 61 60 58 56 53 52 52 51 51 51 50 52 52 49 44 43
22 31 33 32 30 28 26 28 19 17 21 18 23 33 31 31 32 34 44 51 53 55 57 56 52 52 50 48 48 49 50 51 52 54 54 55 55 55 54 54 53 53 53 52 52 48 44 43 43
28 26 30 33 33 30 28 27 20 21 21 21 19 20 25 27 27 29 38 38 40 54 57 55 49 46 46 45 46 47 48 50 53 54 54 53 53 53 53 53 53 53 52 48 46 44 42 42 44
20 24 27 29 32 32 31 30 24 21 20 21 24 23 23 24 27 29 31 34 36 36 39 44 49 49 49 49 51 52 52 51 50 50 50 50 50 51 49 48 47 45 45 45 44 43 42 43 43
28 25 27 28 30 30 30 33 29 22 24 26 26 27 28 27 27 31 32 31 35 37 39 44 45 47 51 54 55 56 55 54 54 54 53 51 50 49 46 44 44 44 44 44 41 41 41 41 40

GFSSGP_500_spd_087.txt.gz
Wind_Speed
58 55 53 49 50 49 47 46 46 40 38 35 32 32 33 32 25 27 23 20 18 18 17 14 13 11 10 9 8 7 6 5 6 6 5 4 3 2 2 3 4 4 5 5 6 7 7 9 10
60 57 55 53 51 51 48 48 44 42 43 37 35 33 30 31 29 26 22 22 20 18 15 15 14 12 11 10 8 7 6 6 6 6 5 4 3 3 3 4 5 5 5 6 6 7 9 9 10
61 60 57 55 52 50 48 53 45 45 39 38 38 36 37 31 30 28 27 24 21 17 15 15 14 13 11 10 9 8 7 7 7 6 5 4 4 4 4 5 5 5 5 6 7 8 9 9 10
62 62 61 59 54 49 50 55 49 44 44 42 40 40 35 32 31 29 28 27 24 19 16 15 14 14 12 11 10 9 8 8 8 7 5 5 5 5 5 5 5 5 5 6 6 7 8 8 9
63 64 62 59 55 55 58 52 47 47 47 44 41 41 38 35 32 32 30 30 26 23 20 16 15 14 14 14 12 11 11 9 8 7 6 6 4 5 6 5 4 4 5 6 6 7 8 9 10
63 64 64 61 58 58 59 50 47 48 47 46 42 44 39 37 35 34 32 31 28 25 22 19 18 15 15 16 15 14 12 11 10 8 8 6 5 5 6 6 4 4 5 5 6 8 9 10 11
61 62 59 58 60 63 58 52 51 49 48 48 50 45 42 39 38 35 36 32 32 28 24 22 21 18 16 17 17 16 14 14 12 11 9 7 6 6 7 5 4 5 5 6 7 8 9 11 12
60 57 59 59 50 61 61 57 51 52 52 47 48 51 45 42 39 39 36 35 33 30 26 24 24 21 19 18 19 18 16 15 14 12 11 10 9 7 7 6 6 6 6 7 7 8 10 11 12
58 57 56 56 48 59 61 57 56 54 50 50 49 47 43 43 41 40 38 38 35 32 28 25 25 24 22 20 20 20 18 17 16 15 13 12 10 9 8 7 7 7 7 9 10 10 11 13 15
59 56 46 53 43 56 60 60 57 55 54 54 49 47 46 46 45 42 40 38 34 34 31 28 27 27 24 23 22 22 20 18 16 16 15 13 12 11 10 10 10 10 10 11 13 14 15 16 17
57 51 51 52 57 45 56 63 58 56 54 51 50 45 45 45 47 45 42 38 32 38 33 31 30 28 26 26 25 24 22 19 18 18 17 16 14 14 14 13 13 12 13 13 14 16 17 17 18
53 55 53 47 39 57 58 62 60 58 58 53 48 48 46 46 46 46 44 43 41 40 37 34 33 31 30 29 29 27 25 22 21 20 19 18 17 17 17 16 16 15 15 16 16 17 18 19 21
48 54 50 52 45 46 60 58 60 60 56 54 51 47 48 48 46 46 45 46 45 43 40 38 36 33 33 33 31 29 27 25 23 22 21 20 20 19 19 19 18 17 18 18 18 19 19 21 22
45 36 51 49 46 45 53 60 61 59 55 53 51 50 48 47 47 46 45 44 44 43 42 41 39 36 35 34 33 31 29 27 26 24 23 23 21 20 21 21 20 20 20 20 21 22 22 24 24
51 43 41 48 34 46 49 58 60 60 57 53 51 52 51 49 49 48 47 44 44 45 44 42 41 40 37 37 36 34 31 30 29 26 26 25 24 23 24 24 23 22 22 23 24 24 25 26 27
52 48 47 41 44 46 50 51 56 58 56 50 48 47 53 55 54 52 49 46 46 46 45 42 42 41 40 39 38 37 35 33 32 31 30 29 27 27 27 26 25 25 25 26 27 27 27 28 29
55 47 41 39 44 40 49 51 54 58 54 50 48 47 45 51 57 60 52 51 48 47 45 45 42 41 40 39 40 38 38 36 36 35 34 32 30 31 29 29 28 27 28 29 29 29 30 31 32
43 45 47 41 42 44 42 50 53 57 52 50 47 44 43 45 52 57 60 54 51 49 49 46 44 41 40 41 41 41 39 40 40 40 37 34 33 33 31 31 31 30 30 32 32 32 32 33 35
41 41 45 44 48 42 45 55 50 55 51 48 45 41 38 37 49 56 56 57 54 51 50 48 48 44 42 42 42 43 42 44 44 42 40 38 37 35 34 34 33 34 34 35 34 35 35 36 37
40 38 42 46 50 42 39 48 48 54 54 52 46 42 40 43 46 50 58 56 55 56 52 49 48 45 43 43 45 49 50 48 47 46 43 41 39 38 38 37 36 37 38 38 38 37 37 38 40
37 35 34 42 46 45 44 43 43 45 52 50 48 46 44 43 43 53 55 58 57 56 57 53 51 51 48 44 45 49 55 55 50 47 45 42 42 41 40 40 40 40 40 40 41 40 40 41 41
43 40 37 27 37 38 40 40 40 43 45 49 50 49 47 46 47 52 60 55 59 56 59 58 53 51 49 48 46 44 52 54 49 48 44 43 43 43 43 44 44 44 43 43 42 42 42 43 44
40 44 38 36 32 32 34 36 37 41 43 45 48 50 50 48 50 54 55 57 55 56 57 55 55 54 51 48 48 47 44 45 45 43 41 44 47 49 48 48 47 47 47 46 45 44 46 47 47
31 30 32 31 33 35 32 37 37 38 38 40 45 49 52 51 49 50 54 60 57 56 54 53 53 59 57 52 52 52 54 53 50 52 49 47 51 52 52 51 51 50 49 49 48 49 52 51 48
25 29 32 32 34 34 36 37 36 34 36 38 40 46 46 50 52 52 48 54 57 53 53 52 55 57 56 59 58 57 57 56 57 58 58 55 54 55 56 56 54 55 53 51 55 54 52 50 49
27 31 30 31 30 30 36 32 30 24 26 33 39 40 44 41 43 48 47 48 54 57 56 58 58 52 58 51 50 54 55 57 57 59 61 60 60 59 58 57 56 55 58 59 54 52 51 51 52
28 30 32 34 35 36 36 27 29 20 20 28 34 39 43 38 34 37 40 49 56 53 52 53 53 57 56 54 58 55 53 53 53 54 56 57 56 59 60 60 61 60 57 56 56 55 53 51 51
26 23 28 33 37 35 33 30 26 20 21 24 26 23 25 37 32 33 36 41 50 51 47 49 54 57 55 57 56 56 53 52 51 49 48 48 49 50 53 55 56 57 56 56 55 54 51 48 44
29 30 29 28 33 33 22 25 25 21 21 23 24 24 23 21 30 34 31 38 41 39 58 64 62 56 60 63 60 58 56 52 47 47 47 47 47 48 49 50 51 51 51 50 49 46 43 42 42
29 27 26 31 30 31 33 33 26 20 21 23 25 25 26 26 22 24 27 27 27 29 38 38 49 51 55 60 62 58 57 50 49 50 51 52 52 52 52 52 52 51 50 47 46 43 42 41 39

GFSSGP_500_spd_090.txt.gz
Wind_Speed
60 55 53 56 53 51 49 42 37 33 41 43 40 37 35 24 29 29 23 20 19 17 16 15 14 12 11 9 7 7 6 5 4 5 4 4 3 2 2 3 3 5 5 5 5 6 7 8 8
61 58 55 55 59 56 49 43 45 43 45 35 38 34 31 28 27 28 24 22 20 18 16 16 14 13 11 9 7 7 6 5 5 5 5 5 3 3 3 3 4 4 4 4 5 5 6 7 8
63 61 58 55 52 55 53 44 47 46 40 36 39 36 33 33 30 30 25 23 22 19 18 15 14 14 12 10 8 7 7 7 6 7 6 5 3 3 3 4 4 4 4 4 4 6 6 7 9
64 63 62 59 57 46 50 42 50 46 38 37 35 35 34 33 32 23 27 25 22 20 18 16 15 14 13 11 10 9 8 8 8 7 6 5 4 3 3 3 4 3 2 3 5 6 7 8 8
67 64 62 59 53 48 54 50 55 46 41 40 41 41 38 35 32 29 29 27 25 23 20 17 16 15 13 11 10 10 9 10 10 9 7 5 4 3 2 3 3 2 2 3 4 5 6 7 9
64 64 66 62 54 49 56 50 48 49 46 45 43 43 39 37 32 32 31 29 27 26 23 19 17 15 13 12 12 11 11 11 11 9 7 6 5 4 3 3 3 2 2 2 3 4 6 8 9
65 64 61 59 56 52 52 54 53 49 46 46 46 46 41 39 35 34 32 32 27 26 24 22 20 17 14 14 13 13 13 13 13 11 9 8 6 5 4 4 3 3 2 2 3 5 6 8 9
61 62 61 61 57 54 60 56 52 51 53 46 49 47 37 39 37 36 35 35 29 28 25 23 22 20 18 16 15 15 15 15 15 13 12 11 8 7 6 6 5 4 3 4 5 6 7 8 10
60 64 61 60 58 57 59 57 53 48 47 47 49 48 40 39 38 38 36 34 31 30 27 24 24 23 22 20 17 16 17 17 16 15 13 12 11 9 8 7 7 6 5 6 6 7 8 9 11
62 61 58 51 57 47 56 58 56 53 50 53 49 49 46 42 40 39 37 35 34 32 30 28 24 25 24 22 20 18 18 19 19 17 15 14 13 12 10 9 8 8 8 8 8 9 10 11 12
62 59 53 53 58 52 47 57 58 55 55 52 50 50 46 46 45 42 39 38 36 33 34 28 27 26 26 25 22 21 20 20 20 19 17 16 15 14 12 12 11 10 11 12 12 12 13 13 14
53 58 56 50 55 48 54 57 57 60 56 52 47 48 48 45 48 45 41 39 37 35 36 31 29 28 28 26 24 23 23 23 22 22 19 19 17 16 15 15 13 13 13 14 14 14 15 16 17
56 51 56 58 56 42 48 50 61 61 58 57 57 52 47 50 47 48 44 42 41 38 34 32 33 31 29 29 29 26 26 26 24 24 22 21 20 19 18 17 17 16 16 16 16 16 17 18 19
49 53 57 52 51 61 44 40 57 60 59 56 56 53 50 47 51 43 45 44 43 41 39 40 37 35 32 28 29 29 29 29 27 27 26 24 23 22 20 19 19 19 19 19 18 19 19 19 21
47 41 50 42 59 56 65 55 51 49 60 59 57 54 48 41 41 44 45 43 43 42 41 41 38 37 37 33 32 30 32 31 31 30 29 28 26 25 23 22 22 21 21 21 22 21 21 22 23
46 33 54 59 44 56 58 40 59 59 53 59 58 56 52 49 47 45 42 43 41 41 42 42 40 39 38 35 35 33 33 33 35 33 32 32 30 28 25 25 25 24 24 24 24 23 24 24 25
54 39 40 38 40 44 46 41 41 45 57 55 59 58 55 52 48 45 45 44 44 42 41 40 41 39 40 37 37 37 36 36 37 36 36 36 34 31 29 29 28 27 26 25 25 25 26 27 28
50 46 40 35 30 44 42 40 47 46 54 58 58 58 55 51 49 48 48 49 49 44 45 42 41 41 41 40 39 40 37 37 38 40 41 40 38 35 34 33 31 29 27 27 27 28 29 30 30
47 44 42 40 37 30 44 40 43 44 49 56 56 58 55 49 46 40 38 43 50 54 53 47 46 44 44 41 41 39 39 39 41 43 44 43 42 39 37 36 34 33 30 30 31 31 32 32 33
39 40 40 28 37 26 33 40 35 44 47 53 52 55 54 51 48 43 38 39 42 50 54 56 55 50 46 44 42 43 42 45 44 43 43 43 43 41 40 38 37 36 34 34 34 35 35 35 36
40 39 41 47 36 40 36 38 40 39 45 50 51 54 54 50 47 45 41 40 40 45 50 54 55 55 52 49 45 43 44 44 41 44 45 48 45 44 42 40 40 39 38 37 38 39 38 38 37
29 45 40 45 47 46 46 42 39 39 46 50 50 55 53 50 47 48 45 40 41 42 45 52 54 55 56 55 48 47 49 47 45 41 44 53 51 49 42 40 40 39 40 41 42 42 42 43 41
36 34 39 38 37 40 45 48 42 47 41 47 53 54 56 52 48 49 49 42 40 42 46 50 55 54 59 57 55 52 52 50 48 44 43 48 48 36 47 45 39 41 44 44 45 45 47 47 47
29 35 40 37 35 39 37 46 46 43 42 42 47 48 52 53 52 49 51 44 42 44 48 53 53 56 55 57 56 58 53 50 50 47 48 44 42 42 47 42 43 48 50 50 49 50 50 50 51
30 30 37 44 42 37 33 37 43 40 38 41 41 45 47 48 51 49 52 48 43 46 46 49 56 54 54 58 54 52 53 54 51 49 48 51 52 50 50 51 53 55 55 52 54 54 54 52 52
25 30 35 36 41 36 31 32 33 33 33 36 36 40 41 44 47 48 49 51 48 49 46 45 51 59 56 56 54 52 51 53 55 53 55 56 53 50 55 57 56 56 56 56 55 55 53 55 57
24 28 28 24 27 32 33 30 32 31 26 29 33 35 38 39 40 41 42 45 47 45 46 47 50 58 55 54 54 51 51 49 46 48 50 49 55 56 53 53 53 54 55 56 56 56 56 53 53
29 30 33 31 31 33 33 30 26 25 24 25 25 27 31 30 33 37 38 45 42 41 45 47 47 50 53 55 55 53 53 62 60 58 54 57 53 52 51 50 49 47 47 48 49 50 51 52 51
29 30 29 28 30 31 30 29 28 30 23 24 22 25 27 26 24 25 31 36 35 39 46 42 46 52 51 49 50 55 53 58 59 58 55 56 53 53 51 48 48 47 46 45 45 45 45 45 45
29 30 29 28 27 28 27 27 25 24 22 25 24 26 24 23 22 21 23 36 38 39 35 36 45 52 55 52 56 48 59 51 55 60 64 62 58 53 50 48 48 48 48 48 47 47 46 45 44

GFSSGP_500_spd_093.txt.gz
Wind_Speed
64 63 61 60 62 57 50 42 40 43 43 43 41 38 33 38 37 29 22 24 21 20 18 16 14 12 11 10 9 8 6 5 5 6 5 4 3 2 2 3 3 4 4 4 4 4 5 5 6
67 65 62 65 62 63 52 41 41 42 45 46 42 40 38 39 29 26 28 25 23 21 19 17 14 14 12 11 9 9 8 6 6 5 5 5 3 3 3 3 3 3 3 3 3 4 4 5 8
67 66 63 64 63 62 53 44 44 46 40 43 45 40 32 24 21 21 30 27 24 22 19 16 15 14 13 11 10 9 9 8 7 6 6 6 4 3 3 3 3 3 3 2 2 3 5 6 8
70 66 65 65 61 55 54 46 47 45 43 44 50 46 38 31 30 24 31 28 24 21 19 17 16 15 13 12 11 9 9 8 7 7 7 7 5 3 3 3 2 2 3 1 1 3 5 5 7
68 66 65 64 57 53 56 49 52 49 44 42 46 45 40 32 34 34 29 27 23 20 19 18 16 15 14 13 12 11 9 9 8 8 8 8 6 4 4 4 3 2 2 1 1 2 4 4 6
67 66 64 61 58 51 61 59 57 54 48 45 44 43 40 42 25 31 27 24 25 23 21 19 16 15 14 13 13 12 11 9 9 9 9 8 7 6 5 4 3 3 2 2 0 1 2 3 5
65 66 62 57 55 50 58 55 59 58 53 47 45 40 37 36 34 20 26 28 25 25 23 21 18 16 14 13 14 13 12 11 11 10 10 10 8 8 7 5 4 4 4 3 1 1 2 4 5
62 62 61 57 55 52 50 53 53 57 52 50 47 41 36 35 38 36 31 27 27 26 24 23 21 18 16 14 13 14 14 13 13 13 13 12 11 10 8 6 5 6 5 4 3 3 3 4 5
61 60 60 56 55 52 51 51 51 49 51 44 47 43 39 33 36 38 36 31 30 28 25 23 21 20 19 18 16 15 14 14 15 15 15 14 13 12 10 9 7 7 7 6 5 5 5 6 6
54 60 54 55 55 55 53 51 50 51 46 50 44 45 41 37 36 35 33 30 31 30 26 25 24 22 21 20 19 17 15 16 17 17 16 16 15 14 13 12 10 9 8 8 8 7 7 7 8
55 51 54 53 54 55 57 54 51 50 50 50 47 48 44 42 42 38 36 34 32 31 27 27 25 24 23 23 21 19 17 18 19 19 19 18 18 16 15 14 13 11 11 10 10 9 9 10 10
59 46 56 53 52 55 55 58 53 54 49 46 46 45 50 42 46 34 35 33 34 31 25 30 28 26 26 25 25 21 20 20 21 20 20 20 20 18 17 15 15 14 13 13 13 12 12 12 13
57 60 57 50 52 56 57 50 58 57 52 49 49 48 44 49 46 45 45 41 36 34 36 34 32 31 28 27 27 23 22 23 23 23 23 22 21 20 20 18 17 17 17 16 15 16 16 15 15
52 51 55 46 53 52 56 56 40 53 59 54 50 51 49 49 51 46 47 44 41 39 37 37 34 30 29 28 26 24 23 24 24 25 25 25 24 24 22 20 19 19 19 19 19 18 18 18 18
47 49 63 55 46 55 53 52 37 56 52 60 55 52 48 48 43 48 49 46 45 43 41 38 36 33 33 30 31 28 26 28 27 27 28 28 27 27 26 23 23 23 22 22 21 20 20 20 20
62 49 53 51 58 32 57 61 36 43 55 60 55 54 52 48 49 49 52 53 46 46 41 40 39 34 34 33 32 33 31 31 30 30 31 31 31 31 30 27 27 26 26 25 24 23 22 22 22
49 55 46 54 49 52 45 35 66 29 39 53 56 54 55 52 50 46 48 45 50 42 39 40 38 38 39 35 34 34 33 32 34 33 34 35 36 35 34 32 31 30 29 29 27 25 24 24 24
45 48 45 48 49 56 55 53 49 46 49 40 47 56 54 55 53 48 44 44 42 39 38 38 38 38 35 35 34 34 34 33 35 35 36 37 40 39 38 36 35 34 32 31 29 28 27 27 27
48 50 44 37 35 50 37 46 64 62 59 59 51 49 53 58 53 51 47 45 43 44 42 40 40 39 35 36 35 35 34 36 38 38 39 40 42 44 42 40 39 37 35 33 33 32 30 29 30
45 51 51 36 27 32 30 37 57 61 47 46 54 56 55 56 58 55 51 48 46 45 44 46 46 47 46 47 45 39 39 39 41 41 40 40 42 43 42 42 41 40 37 35 34 34 33 32 32
23 36 42 47 44 34 30 24 36 37 36 38 42 42 51 54 55 53 54 50 47 41 38 38 40 46 49 50 50 49 51 47 44 43 43 41 44 45 43 43 43 41 38 35 35 35 35 34 35
30 29 35 42 34 34 35 32 23 32 36 36 37 42 44 49 53 54 53 50 45 40 40 41 41 42 45 50 52 52 54 51 50 47 44 43 39 39 38 32 46 42 43 36 36 35 35 37 38
37 35 34 37 35 38 42 39 33 31 34 32 31 34 46 46 48 50 53 52 49 44 41 42 41 42 42 45 52 55 56 55 52 56 49 51 51 50 42 36 42 38 26 44 40 39 43 43 45
30 32 32 39 40 43 38 40 44 42 36 38 39 36 38 44 47 50 53 52 50 45 44 44 42 42 41 43 47 55 57 55 51 55 52 53 51 48 45 42 42 37 36 38 41 42 48 50 49
26 32 37 37 41 42 38 42 31 38 47 48 47 44 42 42 48 50 52 52 51 49 45 44 43 44 44 46 49 53 57 58 55 56 56 54 54 50 48 50 49 46 45 49 49 50 50 50 49
24 29 34 37 38 37 41 38 31 26 31 40 47 43 40 42 45 47 49 53 55 53 50 48 48 47 48 50 51 55 55 55 50 59 52 51 54 51 49 51 51 53 49 52 51 49 49 49 50
21 22 35 35 35 37 42 39 33 32 33 31 36 38 36 38 39 41 43 44 48 50 52 51 50 50 52 54 54 53 57 57 63 53 54 55 51 50 51 53 55 54 50 53 51 50 48 49 49
32 27 26 32 33 33 32 36 38 33 28 31 33 33 31 35 36 37 37 37 41 45 48 50 50 51 53 50 50 49 51 57 57 55 53 53 50 49 47 58 56 52 51 51 51 51 48 46 46
31 30 31 30 29 28 24 25 28 26 25 19 25 27 27 31 31 33 34 37 37 38 39 40 43 49 51 48 49 49 49 50 52 52 50 54 53 58 57 58 55 52 54 52 52 52 49 46 44
36 29 28 29 30 31 29 28 28 27 27 27 27 31 31 29 30 30 30 31 30 30 35 38 41 38 41 45 49 51 48 48 52 47 49 51 59 60 60 59 59 55 58 58 56 51 48 48 47

GFSSGP_500_spd_096.txt.gz
Wind_Speed
70 70 67 64 70 65 60 52 43 53 52 51 46 41 35 34 36 33 27 25 23 22 20 18 16 14 11 10 10 10 8 7 6 7 6 4 3 3 3 4 4 5 4 4 4 3 3 4 4
70 73 69 67 69 66 63 50 49 53 54 51 47 44 41 38 32 31 27 25 24 23 21 20 17 15 13 12 11 10 9 8 8 8 7 6 4 3 3 4 5 5 5 4 3 2 3 4 5
71 73 72 70 71 65 57 50 52 46 46 53 53 47 43 37 39 36 31 29 27 25 23 20 17 16 14 13 12 10 10 10 10 9 8 7 6 5 4 5 4 5 5 3 1 1 2 4 4
71 74 72 73 69 61 58 46 50 54 47 54 53 47 44 34 37 40 35 30 28 26 24 21 18 16 15 14 13 11 11 11 10 9 9 8 7 6 5 5 5 5 5 3 1 1 3 3 3
73 73 73 72 67 61 60 48 49 50 53 48 56 47 44 37 36 27 32 31 29 28 26 23 18 17 16 14 13 12 11 11 11 10 10 9 8 7 6 6 5 5 5 3 2 1 1 1 1
66 73 76 69 65 62 59 56 53 50 49 51 48 49 42 35 34 29 31 31 34 31 25 22 19 17 16 14 13 13 12 12 12 11 11 10 9 7 7 7 6 5 4 4 4 3 2 1 1
65 71 70 65 63 64 63 61 56 51 50 44 42 43 48 40 32 32 40 34 33 31 26 23 20 18 16 14 13 13 13 13 12 13 12 11 10 9 8 8 7 6 5 5 5 4 3 2 2
57 68 67 67 63 64 62 62 60 55 53 51 45 46 52 42 45 45 50 39 35 31 26 23 21 18 16 14 12 13 14 14 14 14 14 13 12 11 10 10 8 7 6 6 6 5 5 4 4
60 66 66 65 62 62 60 61 65 61 58 57 51 46 51 56 28 25 32 33 31 27 25 22 21 19 17 16 14 13 13 14 16 17 16 15 14 13 12 11 11 9 8 8 8 7 7 7 6
56 58 64 62 58 59 60 55 65 65 60 55 49 44 45 45 27 29 34 29 29 26 23 21 20 20 20 18 17 15 14 14 17 18 19 17 17 15 14 13 13 13 11 10 10 9 9 9 9
61 56 64 58 59 54 57 55 55 62 61 53 46 41 44 39 35 30 32 21 23 26 24 21 21 22 22 21 19 17 16 16 17 18 19 19 18 17 17 16 15 15 14 13 13 12 12 12 12
54 61 63 54 56 55 56 57 51 52 53 56 55 45 42 39 36 35 32 23 23 24 25 24 23 24 22 23 22 20 17 18 17 19 20 20 20 20 19 18 17 17 16 15 15 14 14 15 15
63 51 65 53 55 56 55 55 56 49 52 53 50 56 46 39 43 40 30 34 27 28 27 26 28 28 24 24 22 21 20 20 19 19 20 20 21 21 21 20 19 18 18 18 17 17 16 17 18
55 42 55 53 52 51 56 54 55 55 50 49 52 50 48 47 43 41 41 34 31 36 31 28 28 21 25 27 25 22 22 22 22 21 21 22 23 23 24 22 21 21 21 21 20 19 20 19 20
53 40 49 60 44 47 55 57 54 53 50 48 46 46 48 47 50 42 47 40 36 29 30 30 30 30 30 27 25 24 22 24 24 25 25 25 25 26 26 27 25 24 24 23 23 22 22 22 23
66 47 44 55 46 55 38 55 59 57 56 53 48 48 47 47 47 44 40 48 45 41 37 35 37 33 30 30 30 29 28 27 27 28 29 29 29 30 30 29 29 28 28 26 26 26 25 25 25
52 55 61 53 46 35 56 41 57 62 57 53 55 56 52 49 46 46 43 38 47 43 43 41 40 37 35 32 35 34 31 29 29 30 31 33 33 34 35 34 33 33 33 32 31 29 28 27 27
45 43 44 53 46 40 51 52 53 58 57 59 54 50 54 56 50 49 48 46 42 46 44 42 42 36 34 33 35 35 30 30 32 31 30 33 36 39 38 37 38 38 38 37 35 33 30 29 29
52 48 50 47 39 49 42 47 52 56 54 42 52 61 54 51 53 53 51 47 46 45 45 36 44 40 34 30 31 34 29 28 33 32 33 35 36 38 39 40 41 43 44 41 39 38 35 31 31
56 47 52 52 42 45 49 50 47 56 60 53 39 44 52 59 55 54 52 50 49 46 42 45 42 41 38 36 37 36 36 35 37 39 39 37 38 38 39 39 42 46 46 42 41 41 39 35 31
51 50 46 46 48 43 48 44 47 53 53 53 51 43 41 41 51 56 55 54 52 48 43 43 44 45 45 41 40 40 44 43 42 44 46 45 43 42 41 39 39 36 38 32 41 46 43 36 32
30 39 50 47 46 45 42 47 47 42 44 48 57 51 44 40 50 49 54 56 53 52 49 46 45 45 47 46 45 41 42 45 48 50 49 49 49 47 45 46 46 36 31 26 30 38 47 45 35
34 32 41 45 55 48 38 36 34 26 36 41 52 53 48 43 47 61 55 52 55 55 52 49 48 48 47 42 39 39 42 45 48 50 53 54 53 51 49 52 52 51 50 41 41 28 21 31 43
29 33 36 30 38 49 49 48 38 25 20 33 41 41 39 39 41 43 50 52 52 54 54 51 49 48 47 41 38 39 41 42 44 44 52 55 56 54 49 44 50 48 49 43 39 38 34 37 39
24 29 35 36 28 39 37 46 48 39 37 35 34 36 36 31 30 33 43 47 47 51 53 51 52 51 49 45 45 45 46 44 43 45 48 52 55 55 53 53 55 56 49 47 50 48 43 46 44
28 27 31 35 39 34 39 42 44 34 39 38 42 44 42 43 38 37 41 41 42 46 47 50 52 53 53 49 46 46 45 44 46 48 50 49 52 50 54 54 52 50 47 50 48 50 53 51 48
29 31 31 33 34 39 41 35 38 37 34 36 37 42 47 49 48 45 44 43 45 46 46 48 48 51 55 53 51 50 49 49 50 51 55 55 61 53 50 56 51 48 49 45 49 51 50 51 47
30 27 27 28 32 36 38 41 37 37 35 33 32 34 34 40 46 47 41 43 43 45 48 52 54 55 54 54 53 52 52 51 53 55 61 59 57 58 64 65 51 51 51 48 48 53 52 49 48
34 33 32 27 29 27 33 32 29 31 35 36 33 30 34 33 36 41 42 39 42 43 45 48 51 54 57 56 56 55 55 54 56 60 63 60 59 58 59 54 51 49 53 54 56 56 54 52 52
37 32 28 28 28 28 26 28 21 20 23 26 27 28 31 31 33 35 36 38 40 41 42 43 44 47 48 51 52 52 51 52 56 60 57 58 53 50 48 50 50 52 55 58 65 64 59 56 53

GFSSGP_500_spd_099.txt.gz
Wind_Speed
69 72 70 69 74 72 71 60 59 60 54 51 49 47 40 36 35 35 31 28 25 23 20 19 18 17 14 13 12 11 10 8 7 7 7 6 4 3 2 3 4 5 6 6 6 5 3 3 4
69 70 73 74 75 74 66 65 59 61 57 56 52 52 44 39 39 35 30 27 27 25 22 21 20 18 15 14 13 11 11 9 8 8 8 7 5 4 3 3 4 5 5 6 5 3 2 2 4
68 67 74 79 74 72 60 66 57 59 62 60 55 54 47 41 36 37 33 29 27 25 23 22 21 19 16 16 14 13 12 10 9 9 9 8 6 5 4 4 4 5 5 5 3 3 1 1 3
68 64 74 79 77 65 60 62 61 59 60 61 58 54 50 47 40 34 33 34 30 28 25 23 21 20 17 17 16 14 12 11 11 10 9 9 8 6 5 4 5 5 5 4 2 2 1 0 1
71 54 65 79 73 67 60 61 66 59 55 61 61 58 53 45 42 38 34 32 32 30 27 24 22 20 18 17 15 14 13 12 12 11 10 9 8 7 6 5 5 6 5 4 3 3 2 1 1
69 52 69 74 71 69 60 60 62 64 58 46 46 61 54 48 40 35 42 41 35 32 28 24 22 21 19 17 16 15 14 13 13 12 11 10 9 9 8 6 5 6 6 5 4 4 3 3 3
72 72 57 64 69 68 65 66 57 62 62 57 50 52 52 48 44 37 37 40 38 33 29 26 23 22 20 18 17 15 14 14 13 13 12 12 11 10 9 7 6 6 7 6 5 5 5 5 5
70 63 70 57 72 66 68 67 59 59 61 58 46 58 37 44 45 40 36 37 39 38 32 30 27 23 22 19 18 16 15 15 14 14 14 14 13 12 11 10 8 8 8 7 7 6 7 7 8
57 55 56 59 67 63 67 67 58 58 58 51 52 43 51 37 48 43 43 43 43 40 37 34 29 25 22 19 17 15 15 15 15 15 15 15 15 14 13 13 11 11 10 9 9 9 9 9 10
71 38 66 66 66 61 65 64 64 58 52 49 57 55 50 55 43 47 51 48 47 41 38 32 27 24 21 19 17 14 12 13 14 15 16 17 16 16 15 15 15 13 13 12 12 12 12 12 13
67 54 55 67 63 62 62 63 60 57 55 48 46 52 45 45 53 43 39 54 56 48 43 32 28 25 21 21 19 16 14 12 12 14 16 18 18 17 17 18 17 16 16 16 15 14 14 15 15
63 47 47 62 62 65 60 60 59 56 60 52 44 44 51 50 48 55 38 53 55 44 36 31 27 23 21 19 18 16 15 14 15 15 15 17 18 18 18 19 19 19 19 19 18 17 17 17 17
67 38 51 54 62 61 58 57 60 55 56 61 54 47 45 47 48 49 52 24 26 31 35 29 25 22 22 20 18 16 15 15 17 18 17 18 18 19 20 21 21 21 21 20 19 19 19 19 19
43 60 49 54 58 59 55 58 58 57 50 58 60 58 51 51 43 46 43 31 32 36 32 24 23 25 23 22 19 17 16 16 18 20 20 20 19 21 22 23 24 23 22 21 22 22 22 22 22
29 38 51 52 55 54 52 55 58 57 54 49 59 59 55 46 38 41 43 38 30 25 26 28 21 26 33 24 18 17 19 19 20 20 22 23 23 23 24 26 26 26 24 25 26 26 25 25 25
35 35 53 55 51 58 51 54 53 55 56 52 46 49 53 51 47 47 44 41 41 39 26 26 25 21 19 20 21 22 21 21 24 24 24 25 26 27 28 28 29 29 30 30 30 30 29 29 28
37 31 50 58 46 58 45 56 56 56 56 55 49 47 50 49 47 44 39 39 37 34 35 26 22 20 24 25 19 21 21 23 27 29 29 27 29 30 31 32 32 32 34 35 35 35 34 33 31
35 38 28 44 54 50 58 49 56 57 56 56 56 52 49 49 44 43 43 42 38 30 28 31 29 28 29 32 31 28 25 27 29 29 28 30 30 32 32 33 35 35 36 38 40 39 38 37 37
46 42 35 21 57 53 41 54 58 64 59 56 56 57 54 51 50 47 44 42 42 39 32 33 35 35 32 31 27 26 25 29 27 25 27 28 29 30 31 34 35 35 37 39 43 44 40 38 39
60 49 42 35 31 53 45 58 43 52 57 61 59 56 56 56 55 51 49 48 46 42 38 38 44 39 38 35 31 30 31 28 27 28 30 32 34 37 36 36 36 33 35 39 41 43 44 42 42
56 56 52 44 37 54 39 35 36 42 44 57 58 56 56 52 55 52 54 54 51 47 45 42 42 44 45 41 32 36 37 35 36 37 36 35 36 38 40 42 44 44 39 37 38 28 22 30 37
39 51 52 50 46 46 52 44 42 45 52 51 49 47 57 64 60 57 53 50 48 49 50 49 46 44 42 40 39 42 42 42 40 39 41 41 42 43 45 46 47 47 44 42 39 38 38 44 36
24 42 48 49 54 56 50 41 43 46 41 42 41 56 46 44 49 53 55 56 53 54 52 50 49 46 45 44 45 48 47 46 46 44 40 40 40 39 42 46 50 51 50 48 45 34 40 38 31
31 31 36 39 45 57 54 49 40 35 37 44 43 52 56 46 44 46 42 42 47 52 57 54 52 50 50 47 48 47 46 45 45 43 40 38 41 43 44 45 48 49 44 48 40 43 46 49 41
37 38 37 36 33 41 50 55 47 34 30 34 39 43 42 49 58 53 50 45 41 46 54 53 54 55 53 51 50 49 49 48 46 44 41 39 42 42 45 44 44 51 52 51 51 50 52 53 43
26 28 32 34 34 37 35 49 56 44 37 30 28 26 41 40 49 48 41 43 45 44 48 57 56 52 54 54 53 52 51 51 49 47 46 44 47 47 48 48 49 41 50 53 50 56 46 44 48
32 31 27 18 32 35 42 35 53 49 43 44 40 32 29 34 36 38 36 35 36 36 39 43 46 48 52 54 54 55 54 54 54 51 50 48 51 52 50 52 54 56 51 57 52 47 46 45 43
35 31 31 36 34 27 31 40 28 36 33 37 44 46 41 40 43 45 46 46 43 41 41 41 42 44 48 51 54 58 56 57 56 55 54 53 53 56 55 55 57 56 58 59 60 63 59 51 49
39 36 33 32 34 34 31 31 36 38 37 33 39 40 41 40 42 46 48 49 48 48 46 46 46 47 50 51 52 54 57 59 60 61 55 55 57 58 61 61 61 63 61 60 60 53 50 50 51
35 30 29 32 28 27 25 23 23 30 31 31 36 40 39 38 36 38 38 42 46 48 48 47 47 48 52 53 54 57 57 58 58 58 60 60 61 62 63 64 65 64 59 54 52 54 54 53 54

GFSSGP_500_spd_102.txt.gz
Wind_Speed
71 72 70 74 75 80 78 72 64 60 55 54 53 52 47 39 39 37 35 34 29 26 24 23 20 18 17 15 14 13 12 8 7 8 8 7 5 4 2 1 1 3 5 6 6 5 4 4 4
69 72 73 76 81 80 79 70 67 60 56 55 55 53 49 42 41 38 35 32 31 29 26 24 21 20 19 17 14 14 14 11 10 9 9 8 7 5 3 2 1 3 4 5 5 4 3 2 4
70 74 69 76 83 81 71 67 59 64 62 58 55 54 50 46 42 39 36 34 31 27 27 24 22 21 20 18 15 14 14 13 11 10 9 9 7 5 4 3 2 3 4 4 3 2 1 1 2
71 75 66 66 84 74 65 63 65 64 69 62 57 60 53 48 43 39 36 34 33 30 27 25 23 22 21 18 16 15 16 13 12 11 10 9 7 5 4 3 3 4 4 3 2 2 1 1 1
70 75 78 55 74 70 66 63 66 70 75 61 56 58 54 50 46 41 39 36 32 30 29 27 26 24 22 20 18 16 15 14 14 12 12 10 8 7 6 4 4 5 5 4 3 3 2 2 1
71 77 74 58 62 68 68 63 67 73 67 67 49 58 55 51 48 41 38 38 36 33 32 29 27 25 23 21 20 18 16 15 15 14 13 11 10 8 6 6 5 6 5 5 5 4 4 3 4
70 79 65 50 45 62 70 63 67 67 69 62 59 58 58 56 51 46 40 37 35 35 34 30 28 26 24 23 21 19 18 17 16 15 13 12 10 9 8 7 6 6 7 6 6 5 5 5 6
69 66 71 50 60 58 70 64 65 65 62 73 45 62 53 56 54 50 47 42 38 36 34 33 30 27 26 24 22 20 19 18 17 15 14 13 12 11 10 9 8 8 8 8 8 7 7 8 8
75 33 68 32 55 54 68 69 64 61 64 64 49 59 42 58 53 50 45 41 44 44 38 34 33 29 27 25 23 21 20 19 17 15 14 13 13 13 12 11 11 11 10 9 9 9 9 10 11
70 41 35 70 48 60 63 65 58 60 63 60 71 48 57 43 53 51 47 40 34 44 40 37 35 33 30 27 24 21 19 18 16 15 15 15 14 14 14 14 15 14 13 12 12 11 12 13 13
61 73 42 49 44 53 56 61 59 58 61 57 56 64 46 55 45 43 54 47 39 42 44 41 38 34 31 28 23 21 17 16 13 14 14 15 15 14 16 16 17 17 16 15 15 15 15 16 16
48 45 51 45 42 47 51 57 63 59 57 43 48 47 63 43 61 48 55 49 50 48 47 44 43 38 34 31 27 23 19 18 16 14 15 15 16 16 17 18 19 19 18 18 18 19 18 18 19
28 44 46 27 53 48 50 50 59 62 59 54 50 43 43 49 42 65 39 56 50 55 56 50 46 40 34 31 26 22 20 18 18 17 18 17 16 16 17 20 21 21 20 20 20 21 21 21 21
10 36 59 30 49 55 54 51 58 59 59 58 54 43 38 36 46 44 34 38 26 63 61 56 46 39 33 30 27 23 20 19 18 18 19 17 16 17 19 21 21 22 22 23 23 23 23 24 24
25 40 62 40 48 49 57 55 53 58 60 56 58 48 49 43 44 43 37 31 35 40 49 52 46 40 34 32 29 25 23 21 19 19 20 19 20 20 21 23 23 24 24 24 25 26 26 26 27
31 47 33 51 49 49 54 59 53 55 58 57 53 47 47 49 41 38 38 34 47 38 35 45 43 40 38 31 29 28 25 23 21 22 22 21 20 21 23 26 27 27 26 26 27 28 30 31 32
19 24 33 52 50 55 50 57 59 54 58 58 52 48 44 45 48 51 47 40 35 37 34 31 32 31 31 31 36 32 29 24 20 18 19 21 21 22 25 26 27 28 29 29 29 30 31 33 34
23 29 34 35 51 47 54 56 60 60 56 57 54 51 45 42 42 47 47 48 39 39 40 34 35 33 32 36 31 32 25 24 19 18 22 22 23 23 25 24 25 25 27 29 31 33 34 36 36
32 25 45 36 55 50 51 54 59 58 57 56 53 50 50 43 38 39 39 43 42 40 39 29 26 32 33 33 36 35 33 24 25 22 20 17 20 23 26 28 27 26 28 30 32 34 36 38 41
37 31 26 26 48 38 59 62 49 53 56 58 54 53 48 49 43 39 39 39 37 34 30 33 29 29 35 31 42 33 32 26 22 22 21 22 23 26 28 31 31 30 33 36 36 37 32 33 29
38 37 33 27 41 56 41 59 49 51 59 60 57 56 51 49 48 44 41 41 37 37 36 35 32 31 30 29 28 27 24 27 28 26 25 29 30 30 33 34 34 36 38 39 40 34 28 35 38
30 37 40 37 30 39 51 36 44 55 53 63 62 59 52 51 52 51 44 43 42 43 43 42 39 36 36 35 35 38 36 33 33 32 35 35 35 34 36 38 37 38 39 41 41 34 39 36 37
20 24 38 49 51 51 37 40 35 47 53 54 59 61 56 53 51 49 50 49 50 49 47 50 48 42 41 39 41 39 40 34 33 36 36 35 36 37 38 36 37 39 41 40 44 43 39 28 31
34 32 28 37 40 53 50 43 45 41 29 36 43 59 57 55 54 50 53 55 53 48 45 45 45 45 46 45 45 44 42 39 40 39 40 42 41 40 39 39 37 39 38 33 43 29 38 42 39
41 40 35 29 32 45 48 52 45 41 34 30 36 39 47 49 50 47 45 42 44 53 53 51 51 51 52 49 47 46 45 45 44 45 45 44 42 42 44 38 38 41 43 42 48 52 38 48 46
43 38 38 35 34 33 34 52 50 43 44 41 34 37 44 42 40 49 51 47 40 43 43 38 38 43 46 49 50 50 49 49 48 47 47 47 47 47 46 44 45 44 45 48 49 49 50 46 46
36 34 32 33 34 36 37 35 40 35 40 43 43 36 39 42 43 42 46 52 48 48 48 48 44 41 40 45 48 49 47 49 51 51 50 50 50 50 50 48 50 52 51 52 52 53 53 49 55
34 34 34 30 27 23 29 35 31 27 30 36 41 44 40 34 35 44 47 45 50 51 55 52 49 44 42 42 45 49 52 51 51 52 52 53 52 53 54 54 55 56 57 55 55 55 57 59 59
33 36 35 32 32 32 27 21 25 29 26 34 44 51 47 41 35 34 42 46 47 46 44 42 39 38 40 41 44 46 47 47 48 48 51 53 55 55 58 60 59 59 58 59 59 60 62 63 61
27 27 30 38 33 27 31 32 25 23 34 34 33 36 49 50 47 41 38 39 40 44 45 44 44 45 45 45 45 44 46 47 48 48 50 52 54 55 59 61 61 60 60 61 60 62 65 62 59

GFSSGP_500_spd_105.txt.gz
Wind_Speed
67 68 65 70 76 82 85 81 74 67 64 60 57 56 54 50 44 41 39 36 34 31 27 25 23 20 18 16 15 15 14 12 10 9 8 8 7 6 4 2 1 1 2 3 4 4 3 4 5
66 66 68 74 78 87 85 79 75 67 62 57 60 59 57 51 45 42 38 36 33 32 29 28 24 22 20 18 16 16 16 14 12 9 9 8 7 6 5 3 2 1 1 2 2 2 3 3 4
68 69 73 81 82 83 83 76 70 66 62 66 60 60 58 50 46 45 41 39 34 32 30 29 26 24 22 20 19 17 16 16 15 11 9 9 9 7 5 3 2 2 2 2 1 0 2 3 3
67 70 78 81 82 81 71 74 65 68 69 71 64 66 60 52 46 45 43 40 38 35 32 30 28 26 24 23 21 19 17 16 16 13 10 9 10 8 6 5 4 3 2 2 1 1 1 3 2
66 71 78 75 56 64 68 66 65 67 68 69 66 57 61 55 50 47 45 40 38 36 33 30 28 27 25 24 23 20 19 17 16 14 13 11 10 9 7 6 5 4 3 2 2 2 3 3 2
66 70 63 46 69 55 60 63 64 68 67 69 70 62 60 59 53 50 45 42 39 38 36 33 31 29 27 26 24 22 21 19 17 16 15 13 11 10 8 6 5 5 5 4 4 4 5 5 4
61 66 41 75 53 60 51 66 67 66 69 71 73 55 51 58 55 51 46 43 41 39 38 36 33 30 28 27 25 23 22 20 18 17 16 15 13 12 9 7 6 6 6 6 6 6 7 6 6
58 58 57 61 41 63 55 61 69 61 64 73 73 68 40 57 57 55 50 46 43 41 38 36 33 31 30 28 26 25 23 22 20 18 17 16 15 13 11 10 8 7 8 7 7 7 7 7 7
58 62 41 41 21 47 49 64 66 61 64 70 71 75 48 35 60 56 52 49 45 43 42 38 34 33 31 30 28 26 25 23 22 19 18 16 16 15 13 11 10 9 8 10 9 9 9 9 9
57 64 30 62 31 26 52 61 69 58 65 65 67 63 45 39 55 54 52 51 46 41 41 39 35 33 32 31 30 28 27 25 23 21 19 18 17 15 13 13 12 11 10 12 12 11 12 13 13
52 64 31 36 52 25 45 60 63 62 60 61 61 54 58 49 35 49 55 56 49 45 40 40 37 36 34 33 32 31 28 26 23 22 21 20 18 16 15 14 13 13 12 12 14 14 14 15 17
49 49 27 31 35 48 38 59 61 65 60 57 57 61 48 42 39 51 52 69 56 50 46 45 42 40 38 36 35 32 30 28 26 24 22 21 20 19 17 17 16 16 16 15 16 17 17 17 18
46 59 27 12 29 22 33 46 61 64 60 58 56 66 69 57 51 28 42 67 62 52 49 53 45 43 41 39 37 34 33 30 27 25 23 20 19 18 18 18 19 19 18 18 18 20 20 20 20
37 48 47 24 24 17 32 43 60 62 61 56 55 53 66 61 53 44 27 51 61 55 48 47 47 46 43 42 40 37 34 32 29 27 24 22 20 19 18 17 18 18 17 18 19 21 22 23 23
36 32 34 32 29 27 24 41 57 59 62 56 50 44 51 48 34 36 42 35 54 51 49 49 50 50 48 46 43 38 34 32 30 28 26 26 23 21 20 20 20 19 17 17 19 20 22 23 24
44 25 36 40 22 35 32 35 51 58 58 56 46 50 48 41 27 30 28 43 33 61 57 56 56 55 56 54 47 40 33 32 31 29 27 26 25 23 22 20 20 22 20 19 20 22 23 24 26
9 29 30 35 23 43 34 42 46 58 62 54 52 42 50 47 40 35 26 26 44 33 31 57 57 63 61 58 50 41 37 37 36 32 30 28 27 24 23 22 21 22 22 22 22 25 25 25 27
22 13 9 18 28 38 36 43 48 51 58 55 51 51 46 38 38 40 39 29 21 29 26 33 56 56 55 48 46 41 42 40 37 34 30 29 27 26 25 24 22 22 23 23 22 23 25 27 29
12 11 15 21 16 54 40 47 47 51 52 57 51 47 49 45 38 34 41 40 35 33 31 32 44 51 44 47 43 44 45 42 37 32 30 24 25 28 23 22 23 23 23 25 25 25 28 31 31
27 26 28 19 9 43 38 40 41 50 54 53 53 49 47 46 46 39 31 33 38 35 41 37 31 38 40 40 44 49 49 45 37 39 38 35 30 26 26 24 24 23 26 30 30 31 32 32 33
31 32 29 28 23 30 43 49 41 46 49 57 52 48 45 45 46 43 42 37 29 29 29 36 34 39 28 47 40 38 42 38 34 34 41 40 35 32 30 27 26 27 30 32 35 36 36 29 28
30 35 36 29 27 26 41 52 45 43 49 52 55 53 48 46 45 42 40 36 33 36 34 29 36 31 32 32 41 45 31 37 38 47 38 29 27 28 26 28 30 30 33 35 31 30 30 29 24
22 25 22 30 31 34 32 50 43 46 44 50 54 51 49 49 46 43 42 40 38 38 35 37 40 40 36 29 32 33 31 30 26 26 30 29 33 32 27 28 29 32 35 33 33 31 37 33 31
32 28 28 22 31 34 31 35 34 43 50 48 48 52 51 49 48 46 45 43 41 40 39 38 39 34 34 35 37 29 30 31 35 32 31 29 26 26 26 32 33 34 32 37 34 34 32 29 35
43 42 38 35 32 32 31 35 39 40 37 51 57 56 49 53 56 52 49 44 42 43 42 42 42 41 41 40 40 40 41 39 38 38 37 34 33 34 32 34 36 37 38 39 39 40 43 42 43
36 36 36 35 33 32 30 35 36 37 37 39 39 36 58 46 49 54 51 48 45 46 44 44 45 46 44 42 38 38 40 42 42 44 40 40 40 40 40 39 41 42 44 45 44 44 47 47 46
28 26 26 28 33 35 36 32 29 35 41 35 38 37 37 38 39 52 51 50 50 45 43 39 37 40 44 46 40 40 44 46 48 48 45 44 44 44 45 45 45 47 48 50 50 49 50 52 55
19 22 24 27 25 28 32 31 30 25 32 32 35 36 39 34 31 31 38 40 41 46 48 44 40 36 40 39 38 37 37 40 45 44 44 44 44 46 47 48 49 49 49 52 54 53 55 57 57
20 26 28 24 24 24 19 26 27 26 26 24 31 37 39 43 39 31 29 36 39 40 40 40 41 40 45 45 44 44 43 42 42 42 44 46 47 47 47 46 46 49 51 53 56 58 58 60 61
14 22 22 29 27 23 24 24 20 18 25 29 31 37 41 42 43 42 34 29 32 40 40 40 41 42 40 43 45 43 41 40 39 39 40 42 42 43 44 45 46 47 50 52 54 58 59 59 60

GFSSGP_500_spd_108.txt.gz
Wind_Speed
79 83 84 81 70 71 77 75 64 63 59 60 63 60 58 57 52 50 45 42 41 37 34 28 24 22 19 18 17 18 16 13 11 11 11 9 8 5 5 3 2 1 0 1 2 2 3 5 6
92 93 89 82 80 78 84 74 70 63 62 63 64 62 61 59 55 50 46 42 41 39 35 30 26 23 21 20 19 19 19 16 13 11 11 10 8 7 5 4 3 2 1 1 0 1 2 5 5
99 94 76 71 71 78 81 74 68 66 67 64 66 65 65 65 57 53 48 45 41 39 37 33 29 27 24 22 21 21 20 18 16 13 13 10 10 8 7 5 4 3 2 1 1 1 2 4 4
62 67 71 74 67 69 72 68 67 67 71 67 69 70 66 63 59 54 49 45 45 40 39 35 32 29 27 25 24 22 20 20 19 17 16 12 12 11 9 7 6 4 3 3 2 2 3 3 3
45 53 64 78 71 69 64 69 69 66 71 71 73 72 68 64 60 54 51 46 42 42 40 35 33 31 29 27 25 24 22 21 21 19 17 15 13 12 10 8 7 5 4 4 4 3 3 4 4
45 48 62 69 43 67 68 66 69 66 70 73 73 71 71 66 60 55 52 48 45 44 41 37 35 33 31 29 27 25 23 23 22 19 17 16 15 13 12 11 8 7 6 5 4 4 4 4 4
44 53 56 56 58 54 56 59 76 65 70 76 71 72 75 61 60 57 54 51 48 45 44 41 38 35 33 30 29 28 26 25 23 22 19 18 17 16 14 12 11 9 7 6 5 5 5 6 6
45 47 57 62 58 55 48 52 63 65 70 70 71 74 70 64 65 60 57 53 50 47 44 42 40 37 34 32 31 30 28 26 25 24 22 20 19 17 16 14 12 10 9 7 6 6 6 7 8
44 45 53 53 51 42 54 47 63 63 60 73 71 75 70 64 61 61 60 57 52 50 46 44 43 40 37 35 33 32 30 28 27 26 24 23 21 19 18 16 14 13 11 9 8 8 8 9 9
40 44 49 51 26 45 56 52 52 63 65 68 71 71 67 63 61 56 66 60 56 51 48 46 44 41 39 36 34 32 31 29 29 27 25 24 23 21 19 18 16 15 13 12 11 10 10 11 11
31 42 43 34 33 42 40 62 50 63 66 59 65 71 64 70 63 43 71 61 56 53 51 47 44 42 39 37 35 34 32 31 30 29 28 26 24 22 21 20 19 18 16 14 13 13 14 14 14
31 40 36 18 9 36 32 48 53 52 58 61 62 67 63 68 59 55 55 65 59 55 51 50 47 45 42 39 37 37 35 34 33 32 31 28 27 26 24 22 21 20 19 17 17 16 17 17 18
35 48 38 21 14 26 23 28 60 56 60 61 62 64 72 74 72 40 69 68 61 56 53 51 48 46 44 41 40 39 37 36 35 33 32 30 29 27 25 24 23 21 20 20 19 18 19 19 20
28 43 39 24 16 13 27 22 52 60 58 62 66 66 63 65 77 44 57 57 62 57 56 52 50 48 46 44 42 40 40 38 37 36 35 33 29 27 25 24 23 22 21 21 21 21 21 22 23
29 39 39 9 9 8 21 26 51 58 61 63 61 56 53 59 65 61 48 45 53 67 61 56 52 48 47 45 44 43 42 41 40 38 35 33 30 27 26 24 22 21 21 21 20 21 21 21 23
26 37 30 11 4 11 15 20 47 59 59 65 58 52 50 51 58 69 54 19 46 67 68 63 54 52 50 49 48 47 44 44 42 40 37 35 31 29 28 26 25 24 24 24 22 22 24 23 24
20 18 25 25 21 23 23 21 34 55 56 61 56 53 48 48 57 53 51 27 43 53 69 63 58 58 56 51 50 49 49 48 46 45 40 37 34 31 30 29 27 26 24 25 23 23 26 25 25
15 14 11 6 28 20 28 25 36 49 54 52 54 52 47 40 50 31 23 26 18 41 68 59 66 58 53 54 54 54 54 52 48 45 41 38 35 33 33 31 29 26 25 25 23 22 24 26 26
9 11 13 4 6 25 29 31 30 43 52 50 52 51 44 36 42 37 33 26 21 28 54 55 59 57 58 58 58 59 57 56 52 48 43 41 39 37 35 35 33 31 29 26 24 22 25 27 29
15 14 15 7 13 17 33 28 36 40 44 43 48 52 49 33 34 34 30 31 22 28 31 40 50 59 63 61 60 64 65 64 59 51 47 43 40 39 40 39 36 31 28 26 25 24 27 29 29
20 23 20 21 19 17 40 32 31 34 40 42 43 50 48 48 48 40 31 26 36 34 36 27 42 36 58 58 66 66 60 56 53 51 47 45 43 41 35 35 36 33 29 27 28 29 31 30 29
25 29 32 29 25 17 28 37 31 36 38 38 39 40 47 47 49 38 34 39 42 27 24 26 33 36 44 49 54 52 51 46 56 48 52 45 45 42 39 36 30 34 28 29 33 33 32 28 26
27 31 33 30 24 21 21 34 37 36 37 35 38 40 44 46 40 42 37 33 40 40 32 32 31 32 24 32 49 46 55 52 37 49 45 45 42 44 40 39 33 35 28 30 31 33 31 26 28
33 31 32 33 28 23 25 31 32 40 43 40 39 40 40 43 48 46 43 41 39 38 25 28 28 31 26 24 35 26 37 35 35 39 37 41 35 31 37 30 24 24 24 26 27 30 35 33 36
29 36 35 35 34 26 22 34 36 37 33 41 44 38 40 39 44 44 43 43 45 38 33 30 29 31 32 30 33 27 31 27 33 28 22 27 28 25 24 25 24 24 28 32 34 35 39 40 41
25 26 27 29 35 31 28 32 33 36 31 33 41 49 44 42 41 41 42 40 43 42 43 40 36 35 33 31 31 33 33 36 36 36 32 30 27 27 32 29 26 30 35 36 38 41 42 45 47
16 16 21 21 26 30 33 31 29 31 32 32 35 34 35 43 48 46 37 40 45 45 41 41 38 38 37 37 36 37 36 35 32 35 34 34 36 37 39 36 34 40 41 41 42 45 46 47 48
13 16 18 20 18 18 26 28 27 30 31 32 36 36 34 32 34 32 45 40 42 45 45 42 40 41 40 38 39 39 41 41 38 35 35 35 36 38 41 42 44 46 45 45 45 47 48 49 49
12 16 22 13 24 19 16 24 24 26 29 30 35 34 33 36 40 33 40 44 46 43 46 45 45 42 37 35 34 34 38 41 36 33 32 34 34 35 39 40 42 44 46 46 46 44 45 46 48
9 17 27 25 20 19 18 16 24 22 26 28 30 31 33 33 31 31 36 31 34 36 40 39 43 43 44 43 41 36 34 39 38 38 38 38 39 37 37 36 36 39 41 41 43 43 45 46 48

GFSSGP_500_spd_111.txt.gz
Wind_Speed
61 65 67 72 77 81 76 60 63 61 56 49 48 54 54 56 56 62 49 44 45 41 39 35 31 27 23 20 18 16 16 16 13 11 11 10 10 8 6 5 3 2 1 1 2 1 4 5 7
67 73 78 82 87 88 78 63 68 67 62 58 54 53 52 60 59 62 54 48 45 42 42 37 32 28 24 22 20 18 18 18 16 13 13 12 12 9 8 7 5 3 2 1 1 1 3 4 5
75 81 88 92 95 95 76 77 78 74 67 63 61 57 58 61 68 60 54 51 48 43 42 38 34 30 27 25 22 21 20 20 18 16 15 13 13 12 10 8 7 5 3 3 2 2 3 3 3
82 92 97 96 99 95 85 79 81 71 70 68 68 61 62 67 70 59 58 54 49 47 44 40 37 34 30 27 25 24 23 22 22 19 17 15 14 13 13 10 8 6 5 4 3 2 3 5 4
85 88 84 89 92 89 79 76 74 69 69 71 67 64 66 65 65 57 59 56 50 50 45 41 39 35 33 31 29 27 25 24 24 23 20 18 16 14 14 12 10 8 6 5 3 3 4 6 6
63 60 61 69 69 52 59 52 71 66 62 68 70 66 66 69 67 61 61 58 52 49 48 44 41 38 35 32 31 29 28 27 25 25 23 21 19 17 16 15 12 10 8 6 5 5 5 6 6
45 49 50 45 46 44 51 65 69 64 71 50 74 51 70 69 67 63 63 60 55 51 50 46 42 39 36 35 34 31 30 29 27 27 23 22 21 19 18 16 14 12 10 8 8 7 7 7 8
45 47 41 37 37 48 52 63 63 66 58 56 60 81 72 71 67 66 64 61 57 53 51 48 45 41 37 36 35 33 32 31 29 25 24 24 23 22 20 19 17 15 12 10 9 8 8 8 9
37 29 27 34 39 58 38 48 55 61 47 64 65 54 68 71 69 67 64 67 60 57 53 50 46 43 40 39 37 35 33 32 30 28 26 26 25 24 22 21 19 18 15 12 11 10 10 10 10
21 22 26 32 38 45 58 23 46 66 53 52 71 61 74 75 73 72 63 60 62 58 56 52 50 47 43 41 39 37 35 33 31 30 29 28 27 25 24 22 20 19 17 15 14 13 13 13 13
12 16 24 28 41 22 57 38 37 54 75 64 64 37 65 74 75 77 68 55 60 58 57 55 52 49 46 43 41 38 36 34 33 32 31 30 29 28 26 25 23 21 19 18 17 16 15 15 15
9 14 19 21 39 23 20 22 37 40 40 56 61 48 54 77 78 76 77 58 64 62 59 58 54 49 47 46 42 40 38 36 34 33 33 32 31 30 29 27 25 24 22 21 20 20 18 18 18
11 17 19 21 32 19 25 23 35 39 56 66 38 34 72 79 75 75 75 54 76 63 64 62 58 53 50 47 44 43 39 37 35 35 35 34 33 32 30 29 27 26 24 24 23 21 20 20 21
14 18 24 30 22 11 15 24 33 40 55 55 55 23 70 80 77 76 70 80 56 75 75 65 61 56 51 47 45 44 42 40 38 38 37 37 35 33 32 31 29 27 26 25 24 23 23 22 23
15 22 25 11 10 13 15 24 32 41 48 59 52 46 60 72 73 72 69 66 68 60 68 68 62 59 53 49 47 45 43 42 41 41 39 38 36 35 34 32 30 29 28 26 26 25 24 23 23
17 21 16 5 5 6 3 19 26 43 43 50 55 55 55 57 64 72 72 62 56 61 63 71 64 60 57 53 50 48 45 44 43 42 41 40 38 37 35 35 33 31 29 27 26 25 24 23 22
19 15 18 11 14 14 7 12 22 38 52 45 54 58 47 51 61 64 72 42 33 49 54 61 64 62 60 56 52 49 48 46 46 45 43 43 40 40 37 35 36 32 30 28 28 27 25 25 25
17 2 5 6 13 17 13 14 25 43 55 51 49 56 55 38 51 56 73 78 49 52 45 55 62 61 60 59 56 53 50 49 49 48 46 46 44 42 40 40 37 34 33 33 31 30 30 29 27
5 11 2 7 8 12 15 15 25 34 50 54 52 51 52 44 38 42 66 72 47 51 43 36 65 64 64 64 58 54 52 52 52 50 49 49 45 46 43 40 36 39 36 37 34 33 32 30 27
14 14 8 9 9 12 14 16 19 19 41 47 48 49 51 45 40 35 39 53 35 29 41 43 53 67 69 65 61 58 54 55 54 52 51 51 49 48 46 41 43 40 39 37 36 35 33 30 26
16 20 19 16 13 13 16 14 19 21 33 45 47 42 47 42 39 29 36 36 19 25 33 40 46 57 75 67 60 60 60 60 58 58 58 56 55 52 50 47 43 39 38 38 37 36 34 29 28
25 26 28 23 21 17 16 20 20 17 25 32 41 42 41 42 39 33 34 35 37 29 27 44 45 47 60 59 58 64 60 58 59 59 59 59 60 57 52 46 41 41 40 38 37 40 34 31 32
31 28 28 25 22 22 19 21 26 23 21 27 31 37 38 41 44 46 36 34 30 35 33 38 31 42 47 61 51 62 62 62 62 61 61 60 51 54 51 46 42 42 40 38 35 39 30 26 22
25 29 32 30 24 21 22 24 22 25 22 24 29 35 35 36 38 37 36 31 30 33 39 31 25 39 47 46 39 55 61 59 59 64 67 66 60 52 52 45 45 44 40 40 33 29 30 22 25
22 20 20 29 30 25 21 24 29 22 29 27 33 36 37 36 34 35 32 35 32 26 22 34 20 32 32 53 36 42 48 53 55 59 61 36 43 57 52 42 43 43 37 29 27 25 19 25 30
16 10 14 12 15 23 24 22 32 27 23 26 30 34 32 32 33 33 34 35 35 36 35 31 26 30 25 21 22 27 22 45 46 35 29 47 29 41 55 35 29 24 26 23 22 21 20 31 35
15 10 16 20 17 19 22 24 24 29 25 27 30 31 37 37 31 30 30 32 33 34 36 33 33 33 32 30 29 31 21 24 29 28 27 31 25 24 23 26 27 26 26 28 29 32 35 36 38
11 11 13 16 13 7 12 21 24 29 24 24 24 27 30 37 40 40 37 34 33 31 33 34 34 36 34 29 30 28 27 28 31 28 28 26 27 28 28 28 31 28 34 33 32 37 39 37 38
13 12 18 10 15 9 6 15 24 29 27 25 23 26 32 32 35 38 44 42 42 37 33 37 41 42 40 37 33 32 33 34 35 33 33 30 30 30 29 28 29 31 32 35 38 39 39 43 40
25 1 19 21 7 18 11 5 14 22 24 24 24 22 28 30 29 30 29 33 26 32 38 38 37 41 42 43 39 38 36 34 32 35 35 34 31 30 29 31 32 32 33 33 34 35 38 38 39

GFSSGP_500_spd_114.txt.gz
Wind_Speed
53 56 57 60 63 64 58 42 55 49 49 45 43 42 38 40 44 50 51 50 43 39 39 38 34 31 27 23 19 16 15 14 15 12 11 9 9 10 9 6 4 2 2 1 2 2 5 7 7
55 58 59 65 68 67 51 50 55 56 54 50 48 44 43 42 51 47 49 53 44 37 42 41 36 32 30 25 22 18 17 17 16 15 13 12 12 10 10 8 5 5 3 1 1 2 4 7 7
57 59 63 69 70 69 53 64 62 62 61 59 57 51 46 50 55 47 47 52 53 42 43 42 39 35 31 28 24 21 20 19 18 18 15 13 13 13 12 10 8 7 5 3 2 3 5 7 6
60 64 69 73 73 70 67 77 74 74 69 63 60 60 53 60 58 48 52 45 54 48 44 45 41 38 34 31 28 24 22 21 21 21 18 15 15 15 14 11 10 10 7 5 4 3 5 7 6
64 70 76 77 76 75 74 82 77 76 74 72 58 62 57 64 61 51 53 49 52 50 46 47 44 40 36 33 30 27 25 24 24 24 22 18 17 17 16 14 13 12 10 8 6 6 6 7 7
70 78 81 83 84 84 85 87 86 79 80 76 74 66 65 65 64 55 55 52 57 51 51 50 45 43 39 36 33 31 28 27 27 26 25 23 20 20 18 16 15 14 12 10 9 8 7 8 9
75 81 81 82 87 88 89 85 91 80 84 81 76 66 56 57 59 56 57 56 55 54 54 52 49 45 43 38 37 34 32 30 29 29 26 25 24 22 20 18 16 15 14 13 10 9 9 9 10
69 66 76 73 64 70 66 69 78 74 69 67 73 77 74 75 64 62 59 61 60 60 56 54 51 48 45 42 39 36 34 33 31 31 28 26 26 23 22 19 18 17 16 14 13 11 11 10 11
52 57 57 53 51 50 49 61 61 66 71 73 72 71 64 49 52 53 60 63 63 63 59 57 53 52 48 45 42 40 37 35 33 32 29 28 25 24 22 21 20 19 18 16 14 13 12 12 12
33 35 27 28 28 29 42 44 53 58 68 70 69 69 52 60 62 46 61 66 67 65 63 59 55 52 51 46 44 41 39 37 34 32 31 28 26 25 24 24 22 21 19 18 17 15 14 14 14
15 9 12 14 17 21 33 44 44 65 67 66 70 72 53 44 45 42 63 69 68 65 60 62 57 54 51 50 46 43 41 39 36 34 32 30 28 26 27 26 25 23 23 21 20 18 17 17 17
13 10 9 8 14 19 21 29 36 40 59 58 65 65 64 51 61 70 61 61 67 70 68 66 63 57 54 50 47 44 43 41 38 36 33 31 30 30 29 28 27 26 25 24 22 21 20 19 19
7 6 4 7 11 20 18 35 25 25 44 70 51 75 63 50 37 62 67 66 69 67 48 73 70 65 58 53 50 47 45 43 39 37 34 32 32 31 31 29 28 28 27 26 24 24 22 21 20
7 6 9 11 12 10 24 17 13 26 41 65 46 64 73 46 36 50 63 73 67 75 59 69 72 67 59 57 54 49 47 42 41 38 36 34 35 34 32 30 29 29 29 28 27 26 25 23 23
7 9 7 10 15 14 7 12 17 30 30 63 59 52 78 49 37 59 62 72 73 75 60 46 76 67 63 60 54 52 48 46 43 39 39 38 36 35 33 32 31 32 31 30 30 29 27 25 24
4 7 5 2 13 13 3 4 14 30 26 49 64 64 58 75 40 49 64 74 76 72 48 57 67 69 65 60 55 53 52 48 46 43 42 40 38 37 36 34 34 34 34 33 32 30 28 26 24
9 2 9 17 16 15 8 4 18 26 26 49 41 57 50 33 38 47 61 71 79 82 66 40 58 57 57 59 59 55 53 50 48 46 44 42 40 39 38 37 38 37 37 35 33 31 27 26 25
6 4 11 11 13 14 10 2 17 20 21 44 35 46 48 28 34 42 60 69 72 74 78 49 47 52 63 59 61 58 56 51 49 47 45 44 43 41 40 41 41 40 39 31 37 30 28 30 30
5 10 10 2 7 8 14 4 10 19 22 33 30 39 40 41 28 40 54 57 67 66 67 56 54 48 60 61 57 60 57 54 52 52 48 46 44 44 44 43 43 42 37 42 36 28 35 32 35
14 13 14 11 4 7 9 11 11 10 19 31 38 41 39 51 26 30 43 49 67 65 59 53 37 40 49 69 66 55 56 55 52 50 48 48 47 48 46 47 45 40 46 41 31 33 37 35 34
20 19 16 17 15 13 8 9 7 15 19 28 39 36 37 39 42 29 26 43 62 64 58 41 43 43 41 69 69 69 61 57 58 55 52 51 50 50 50 49 47 51 44 39 36 37 35 38 39
23 26 22 21 19 17 14 9 1 15 11 19 31 37 35 35 35 33 30 22 45 68 63 46 30 41 42 52 71 68 62 60 59 57 56 53 54 54 51 52 53 50 47 43 39 36 35 32 36
22 25 26 22 17 14 14 5 7 5 13 12 27 36 32 34 33 33 31 19 34 50 55 43 37 41 40 47 47 52 56 57 64 60 57 54 56 57 54 60 54 53 49 43 36 35 38 37 35
28 21 23 24 18 16 10 7 7 5 14 14 16 28 33 33 31 34 35 33 34 35 45 36 40 50 48 48 49 42 53 49 46 64 62 57 56 53 57 60 56 52 52 48 44 42 37 37 38
25 14 9 7 14 17 12 10 15 7 14 15 18 23 31 33 35 29 35 38 39 25 28 30 39 40 61 32 44 42 42 50 52 58 60 54 58 50 61 57 55 57 51 47 42 38 40 42 35
16 2 10 1 6 6 17 12 17 15 14 21 21 22 29 32 31 29 30 24 25 25 20 22 18 24 33 40 41 47 48 50 40 54 55 60 54 55 55 55 59 57 54 56 45 46 45 31 25
8 11 15 11 15 15 6 20 16 13 17 21 27 23 25 25 30 29 26 29 26 27 21 15 18 14 23 19 19 35 26 35 28 36 51 51 50 42 49 62 49 58 63 37 33 30 31 28 20
9 8 13 14 11 3 8 12 17 13 17 20 25 27 26 29 28 27 21 25 24 29 26 24 20 20 21 22 25 24 22 27 19 20 24 37 39 33 21 26 33 28 46 28 20 28 23 20 28
13 12 12 9 14 10 9 7 17 17 16 17 21 22 26 29 30 29 28 27 25 24 23 24 29 28 25 23 24 21 24 28 27 27 24 19 27 26 24 21 22 24 22 23 26 26 26 32 34
31 6 14 10 13 11 16 5 4 14 18 16 20 22 24 28 33 35 35 35 34 32 29 27 25 27 30 32 31 28 28 29 29 30 28 29 30 31 31 29 26 26 28 30 30 30 33 32 31

GFSSGP_500_spd_117.txt.gz
Wind_Speed
48 51 48 51 54 56 47 43 46 42 42 40 38 39 34 33 32 35 32 35 43 40 39 37 34 31 29 25 22 19 16 13 13 14 12 11 10 9 9 6 5 3 3 1 1 2 5 8 9
49 50 51 53 56 57 49 49 50 51 49 45 43 41 40 35 40 38 33 34 42 44 38 40 36 34 31 29 25 22 19 16 14 15 14 11 11 11 11 8 6 6 4 4 2 2 5 7 8
50 51 53 57 57 57 52 58 57 52 49 50 51 50 46 42 40 38 34 33 35 44 39 41 40 36 35 32 28 25 22 19 17 17 16 13 15 14 13 11 9 7 7 6 4 3 5 8 7
55 58 58 59 59 52 57 62 60 61 56 53 55 54 55 51 47 46 40 35 34 41 44 42 42 39 38 35 31 27 26 23 21 19 19 17 18 16 15 13 11 9 9 9 6 5 6 7 8
57 61 61 60 56 56 59 63 65 65 64 61 62 63 62 57 53 57 49 40 39 42 39 47 46 41 40 38 35 30 28 26 24 22 22 21 20 18 17 15 13 11 10 11 9 8 8 9 10
60 61 60 60 55 59 63 66 72 70 69 69 69 68 64 61 58 59 54 50 44 44 44 46 51 46 41 40 37 34 31 29 27 25 24 24 23 19 18 16 16 14 12 12 13 11 9 10 11
58 62 60 60 58 61 64 72 75 76 75 75 73 72 65 62 61 59 60 54 50 47 44 41 51 51 45 41 40 37 34 33 31 28 26 26 25 23 20 18 19 17 15 14 14 13 12 11 12
60 62 65 66 68 65 73 79 81 82 80 77 77 75 69 66 64 60 57 53 52 52 49 46 49 54 50 45 42 40 38 35 33 32 28 26 26 25 22 20 20 19 17 16 15 14 13 13 13
50 57 65 67 75 76 80 85 89 88 88 82 85 82 72 72 68 58 45 57 58 55 53 50 52 52 52 50 45 42 42 39 37 34 32 28 27 25 25 23 22 20 18 17 17 16 16 15 15
45 45 46 47 51 61 70 76 80 87 94 88 86 84 78 76 73 68 64 58 57 54 54 54 53 57 54 52 49 45 42 40 37 36 33 30 28 27 26 24 23 21 21 20 19 19 18 17 16
34 32 31 27 23 28 42 55 63 76 82 76 70 77 75 78 74 63 52 67 46 55 62 57 58 60 57 54 51 47 44 43 41 39 36 33 30 27 26 25 25 24 24 22 21 21 20 19 17
20 23 20 17 16 13 14 21 30 39 49 48 69 71 78 79 77 69 76 46 63 60 62 65 63 61 59 57 54 50 46 46 44 42 38 34 30 29 28 28 28 26 26 24 24 23 23 21 20
17 11 9 8 10 12 14 18 19 17 31 31 52 76 76 70 72 78 68 47 68 62 63 64 65 65 64 59 58 53 50 46 45 44 39 35 32 32 30 29 28 27 27 26 26 26 25 24 23
8 8 12 14 12 14 14 16 18 19 23 27 39 78 75 66 72 68 71 66 50 66 66 66 64 66 66 64 60 55 51 50 48 44 40 37 35 33 32 30 29 29 30 29 28 28 28 27 25
11 7 10 5 5 10 6 12 8 15 18 22 36 78 75 64 73 80 72 64 79 48 59 61 63 65 65 66 62 57 53 51 49 44 41 39 37 36 34 32 31 32 31 30 30 30 29 29 28
2 5 9 11 10 4 7 4 2 10 18 20 38 66 58 63 59 76 69 73 50 52 53 57 61 55 75 70 66 63 58 53 49 44 42 43 41 40 36 35 34 33 32 31 32 32 32 31 28
3 6 8 9 14 14 4 4 6 8 17 15 27 49 60 72 69 58 51 55 54 45 54 65 59 60 73 66 71 67 60 54 53 47 46 47 44 41 39 39 37 35 34 34 35 35 34 32 28
11 8 6 4 9 12 9 6 6 13 11 20 23 52 49 59 77 66 44 39 42 48 59 64 64 65 70 76 79 68 65 57 55 50 49 48 44 43 42 41 38 37 36 37 37 36 34 26 32
14 11 12 6 4 5 9 12 4 9 16 18 19 46 46 37 55 54 32 35 37 43 63 63 63 56 78 64 87 78 67 59 56 52 51 49 48 46 44 41 39 38 40 41 39 37 31 34 31
19 20 18 13 10 7 8 9 3 4 13 20 28 38 44 46 40 47 37 31 36 49 53 61 61 58 64 43 64 65 61 60 55 53 52 51 51 48 45 43 43 42 44 43 41 36 37 35 31
22 23 23 21 15 12 8 6 3 5 10 18 33 16 42 42 40 29 31 25 31 35 49 58 58 58 42 38 44 60 68 65 62 61 58 56 53 51 49 48 47 45 46 47 43 38 42 34 38
19 23 21 20 17 8 4 6 8 12 8 14 24 25 27 40 27 27 28 23 14 23 37 51 56 59 75 57 53 50 60 64 66 62 57 57 55 52 51 49 48 50 50 50 43 46 36 41 34
19 20 22 20 17 8 4 10 7 11 14 13 15 25 27 29 28 24 28 17 24 18 24 34 43 46 48 48 46 39 47 59 66 62 63 58 57 56 53 52 51 50 53 49 50 43 30 43 34
21 12 13 17 15 11 10 13 12 15 15 11 17 25 28 27 29 24 24 23 26 21 28 30 38 51 45 36 44 56 54 49 44 56 54 63 58 57 56 56 55 55 52 51 52 51 44 42 40
10 3 7 5 11 15 15 14 10 10 18 17 15 19 27 21 23 22 25 25 31 18 19 32 32 50 62 37 39 47 47 60 47 47 55 60 59 59 57 57 57 54 56 58 56 49 50 46 45
7 17 16 9 8 12 15 15 11 12 17 18 13 19 23 31 28 23 17 21 20 26 21 17 29 39 54 50 37 38 41 36 44 39 42 45 59 62 56 58 57 60 55 48 51 45 43 48 46
12 11 10 17 19 13 13 14 18 15 16 22 18 18 22 26 31 29 22 22 16 16 12 13 22 32 40 45 36 31 34 36 35 40 45 45 44 43 52 57 46 42 38 44 45 44 51 51 52
14 14 11 13 19 18 6 9 14 15 18 24 30 20 25 20 24 29 31 26 17 18 15 18 18 21 30 26 38 38 30 27 29 29 33 47 51 51 53 51 45 33 46 47 42 41 43 45 33
18 14 11 10 11 10 7 3 9 15 18 21 25 28 19 21 19 25 26 26 20 18 24 20 14 16 20 25 22 20 24 17 23 16 27 28 26 32 39 44 46 35 21 15 21 22 25 30 32
19 17 16 20 23 14 10 6 7 1 17 20 21 18 18 21 22 24 26 24 17 19 17 22 28 21 21 20 16 19 21 22 24 26 19 24 22 13 26 37 30 30 24 22 22 25 28 31 30